[[{"header":{"parameterUnit":"m.s-1","parameterCategory":1,"la1":30.6,"la2":28.766,"lo1":-90.7593,"lo2":-88.6598,"dy":0.0162,"dx":0.0183,"nx":116,"ny":114,"refTime":"2023-04-08T12:00:00:Z","depth":0,"parameterNumber":2,"parameterNumberName":"U-component_of_WINDS"},"data":[0.0,0.0,0.0,0.0,0.0,0.0,0.0,0.0,0.0,0.0,0.0,0.0,0.0,0.0,0.0,0.0,0.0,0.0,0.0,0.0,0.0,0.0,0.0,0.0,0.0,0.0,0.0,0.0,0.0,0.0,0.0,0.0,0.0,0.0,0.0,0.0,0.0,0.0,0.0,0.0,0.0,0.0,0.0,0.0,0.0,0.0,0.0,0.0,0.0,0.0,0.0,0.0,0.0,0.0,0.0,0.0,0.0,0.0,0.0,0.0,0.0,0.0,0.0,0.0,0.0,0.0,0.0,0.0,0.0,0.0,0.0,0.0,0.0,0.0,0.0,0.0,0.0,0.0,0.0,0.0,0.0,0.0,0.0,0.0,0.0,0.0,0.0,0.0,0.0,0.0,0.0,0.0,0.0,0.0,0.0,0.0,0.0,0.0,0.0,0.0,0.0,0.0,0.0,0.0,0.0,0.0,0.0,0.0,0.0,0.0,0.0,0.0,0.0,0.0,0.0,0.0,0.0,0.0,0.0,0.0,0.0,0.0,0.0,0.0,0.0,0.0,0.0,0.0,0.0,0.0,0.0,0.0,0.0,0.0,0.0,0.0,0.0,0.0,0.0,0.0,0.0,0.0,0.0,0.0,0.0,0.0,0.0,0.0,0.0,0.0,0.0,0.0,0.0,0.0,0.0,0.0,0.0,0.0,0.0,0.0,0.0,0.0,0.0,0.0,0.0,0.0,0.0,0.0,0.0,0.0,0.0,0.0,0.0,0.0,0.0,0.0,0.0,0.0,0.0,0.0,0.0,0.0,0.0,0.0,0.0,0.0,0.0,0.0,0.0,0.0,0.0,0.0,0.0,0.0,0.0,0.0,0.0,0.0,0.0,0.0,0.0,0.0,0.0,0.0,0.0,0.0,0.0,0.0,0.0,0.0,0.0,0.0,0.0,0.0,0.0,0.0,0.0,0.0,0.0,0.0,0.0,0.0,0.0,0.0,0.0,0.0,0.0,0.0,0.0,0.0,0.0,0.0,0.0,0.0,0.0,0.0,0.0,0.0,0.0,0.0,0.0,0.0,0.0,0.0,0.0,0.0,0.0,0.0,0.0,0.0,0.0,0.0,0.0,0.0,0.0,0.0,0.0,0.0,0.0,0.0,0.0,0.0,0.0,0.0,0.0,0.0,0.0,0.0,0.0,0.0,0.0,0.0,0.0,0.0,0.0,0.0,0.0,0.0,0.0,0.0,0.0,0.0,0.0,0.0,0.0,0.0,0.0,0.0,0.0,0.0,0.0,0.0,0.0,0.0,0.0,0.0,0.0,0.0,0.0,0.0,0.0,0.0,0.0,0.0,0.0,0.0,0.0,0.0,0.0,0.0,0.0,0.0,0.0,0.0,0.0,0.0,0.0,0.0,0.0,0.0,0.0,0.0,0.0,0.0,0.0,0.0,0.0,0.0,0.0,0.0,0.0,0.0,0.0,0.0,0.0,0.0,0.0,0.0,0.0,0.0,0.0,0.0,0.0,0.0,0.0,0.0,0.0,0.0,0.0,0.0,0.0,0.0,0.0,0.0,0.0,0.0,0.0,0.0,0.0,0.0,0.0,0.0,0.0,0.0,0.0,0.0,0.0,0.0,0.0,0.0,0.0,0.0,0.0,0.0,0.0,0.0,0.0,0.0,0.0,0.0,0.0,0.0,0.0,0.0,0.0,0.0,0.0,0.0,0.0,0.0,0.0,0.0,0.0,0.0,0.0,0.0,0.0,0.0,0.0,0.0,0.0,0.0,0.0,0.0,0.0,0.0,0.0,0.0,0.0,0.0,0.0,0.0,0.0,0.0,0.0,0.0,0.0,0.0,0.0,0.0,0.0,0.0,0.0,0.0,0.0,0.0,0.0,0.0,0.0,0.0,0.0,0.0,0.0,0.0,0.0,0.0,0.0,0.0,0.0,0.0,0.0,0.0,0.0,0.0,0.0,0.0,0.0,0.0,0.0,0.0,0.0,0.0,0.0,0.0,0.0,0.0,0.0,0.0,0.0,0.0,0.0,0.0,0.0,0.0,0.0,0.0,0.0,0.0,0.0,0.0,0.0,0.0,0.0,0.0,0.0,0.0,0.0,0.0,0.0,0.0,0.0,0.0,0.0,0.0,0.0,0.0,0.0,0.0,0.0,0.0,0.0,0.0,0.0,0.0,0.0,0.0,0.0,0.0,0.0,0.0,0.0,0.0,0.0,0.0,0.0,0.0,0.0,0.0,0.0,0.0,0.0,0.0,0.0,0.0,0.0,0.0,0.0,0.0,0.0,0.0,0.0,0.0,0.0,0.0,0.0,0.0,0.0,0.0,0.0,0.0,0.0,0.0,0.0,0.0,0.0,0.0,0.0,0.0,0.0,0.0,0.0,0.0,0.0,0.0,0.0,0.0,0.0,0.0,0.0,0.0,0.0,0.0,0.0,0.0,0.0,0.0,0.0,0.0,0.0,0.0,0.0,0.0,0.0,0.0,0.0,0.0,0.0,0.0,0.0,0.0,0.0,0.0,0.0,0.0,0.0,0.0,0.0,0.0,0.0,0.0,0.0,0.0,0.0,0.0,0.0,0.0,0.0,0.0,0.0,0.0,0.0,0.0,0.0,0.0,0.0,0.0,0.0,0.0,0.0,0.0,0.0,0.0,0.0,0.0,0.0,0.0,0.0,0.0,0.0,0.0,0.0,0.0,0.0,0.0,0.0,0.0,0.0,0.0,0.0,0.0,0.0,0.0,0.0,0.0,0.0,0.0,0.0,0.0,0.0,0.0,0.0,0.0,0.0,0.0,0.0,0.0,0.0,0.0,0.0,0.0,0.0,0.0,0.0,0.0,0.0,0.0,0.0,0.0,0.0,0.0,0.0,0.0,0.0,0.0,0.0,0.0,0.0,0.0,0.0,0.0,0.0,0.0,0.0,0.0,0.0,0.0,0.0,0.0,0.0,0.0,0.0,0.0,0.0,0.0,0.0,0.0,0.0,0.0,0.0,0.0,0.0,0.0,0.0,0.0,0.0,0.0,0.0,0.0,0.0,0.0,0.0,0.0,0.0,0.0,0.0,0.0,0.0,0.0,0.0,0.0,0.0,0.0,0.0,0.0,0.0,0.0,0.0,0.0,0.0,0.0,0.0,0.0,0.0,0.0,0.0,0.0,0.0,0.0,0.0,0.0,0.0,0.0,0.0,0.0,0.0,0.0,0.0,0.0,0.0,0.0,0.0,0.0,0.0,0.0,0.0,0.0,0.0,0.0,0.0,0.0,0.0,0.0,0.0,0.0,0.0,0.0,0.0,0.0,0.0,0.0,0.0,0.0,0.0,0.0,0.0,0.0,0.0,0.0,0.0,0.0,0.0,0.0,0.0,0.0,0.0,0.0,0.0,0.0,0.0,0.0,0.0,0.0,0.0,0.0,0.0,0.0,0.0,0.0,0.0,0.0,0.0,0.0,0.0,0.0,0.0,0.0,0.0,0.0,0.0,0.0,0.0,0.0,0.0,0.0,0.0,0.0,0.0,0.0,0.0,0.0,0.0,0.0,0.0,0.0,0.0,0.0,0.0,0.0,0.0,0.0,0.0,0.0,0.0,0.0,0.0,0.0,0.0,0.0,0.0,0.0,0.0,0.0,0.0,0.0,0.0,0.0,0.0,0.0,0.0,0.0,0.0,0.0,0.0,0.0,0.0,0.0,0.0,0.0,0.0,0.0,0.0,0.0,0.0,0.0,0.0,0.0,0.0,0.0,0.0,0.0,0.0,0.0,0.0,0.0,0.0,0.0,0.0,0.0,0.0,0.0,0.0,0.0,0.0,0.0,0.0,0.0,0.0,0.0,0.0,0.0,0.0,0.0,0.0,0.0,0.0,0.0,0.0,0.0,0.0,0.0,0.0,0.0,0.0,0.0,0.0,0.0,0.0,0.0,0.0,0.0,0.0,0.0,0.0,0.0,0.0,0.0,0.0,0.0,0.0,0.0,0.0,0.0,0.0,0.0,0.0,0.0,0.0,0.0,0.0,0.0,0.0,0.0,0.0,0.0,0.0,0.0,0.0,0.0,0.0,0.0,0.0,0.0,0.0,0.0,0.0,0.0,0.0,0.0,0.0,0.0,0.0,0.0,0.0,0.0,0.0,0.0,0.0,0.0,0.0,0.0,0.0,0.0,0.0,0.0,0.0,0.0,0.0,0.0,0.0,0.0,0.0,0.0,0.0,0.0,0.0,0.0,0.0,0.0,0.0,0.0,0.0,0.0,0.0,0.0,0.0,0.0,0.0,0.0,0.0,0.0,0.0,0.0,0.0,0.0,0.0,0.0,0.0,0.0,0.0,0.0,0.0,0.0,0.0,0.0,0.0,0.0,0.0,0.0,0.0,0.0,0.0,0.0,0.0,0.0,0.0,0.0,0.0,0.0,0.0,0.0,0.0,0.0,0.0,0.0,0.0,0.0,0.0,0.0,0.0,0.0,0.0,0.0,0.0,0.0,0.0,0.0,0.0,0.0,0.0,0.0,0.0,0.0,0.0,0.0,0.0,0.0,0.0,0.0,0.0,0.0,0.0,0.0,0.0,0.0,0.0,0.0,0.0,0.0,0.0,0.0,0.0,0.0,0.0,0.0,0.0,0.0,0.0,0.0,0.0,0.0,0.0,0.0,0.0,0.0,0.0,0.0,0.0,0.0,0.0,0.0,0.0,0.0,0.0,0.0,0.0,0.0,0.0,0.0,0.0,0.0,0.0,0.0,0.0,0.0,0.0,0.0,0.0,0.0,0.0,0.0,0.0,0.0,0.0,0.0,0.0,0.0,0.0,0.0,0.0,0.0,0.0,0.0,0.0,0.0,0.0,0.0,0.0,0.0,0.0,0.0,0.0,0.0,0.0,0.0,0.0,0.0,0.0,0.0,0.0,0.0,0.0,0.0,0.0,0.0,0.0,0.0,0.0,0.0,0.0,0.0,0.0,0.0,0.0,0.0,0.0,0.0,0.0,0.0,0.0,0.0,0.0,0.0,0.0,0.0,0.0,0.0,0.0,0.0,0.0,0.0,0.0,0.0,0.0,0.0,0.0,0.0,0.0,0.0,0.0,0.0,0.0,0.0,0.0,0.0,0.0,0.0,0.0,0.0,0.0,0.0,0.0,0.0,0.0,0.0,0.0,0.0,0.0,0.0,0.0,0.0,0.0,0.0,0.0,0.0,0.0,0.0,0.0,0.0,0.0,0.0,0.0,0.0,0.0,0.0,0.0,0.0,0.0,0.0,0.0,0.0,0.0,0.0,0.0,0.0,0.0,0.0,0.0,0.0,0.0,0.0,0.0,0.0,0.0,0.0,0.0,0.0,0.0,0.0,0.0,0.0,0.0,0.0,0.0,0.0,0.0,0.0,0.0,0.0,0.0,0.0,0.0,0.0,0.0,0.0,0.0,0.0,0.0,0.0,0.0,0.0,0.0,0.0,0.0,0.0,0.0,0.0,0.0,0.0,0.0,0.0,0.0,0.0,0.0,0.0,0.0,0.0,0.0,0.0,0.0,0.0,0.0,0.0,0.0,0.0,0.0,0.0,0.0,0.0,0.0,0.0,0.0,0.0,0.0,0.0,0.0,0.0,0.0,0.0,0.0,0.0,0.0,0.0,0.0,0.0,0.0,0.0,0.0,0.0,0.0,0.0,0.0,0.0,0.0,0.0,0.0,0.0,0.0,0.0,0.0,0.0,0.0,0.0,0.0,0.0,0.0,0.0,0.0,0.0,0.0,0.0,0.0,0.0,0.0,0.0,0.0,0.0,0.0,0.0,0.0,0.0,0.0,0.0,0.0,0.0,0.0,0.0,0.0,0.0,0.0,0.0,0.0,0.0,0.0,0.0,0.0,0.0,0.0,0.0,0.0,0.0,0.0,0.0,0.0,0.0,0.0,0.0,0.0,0.0,0.0,0.0,0.0,0.0,0.0,0.0,0.0,0.0,0.0,0.0,0.0,0.0,0.0,0.0,0.0,0.0,0.0,0.0,0.0,0.0,0.0,0.0,0.0,0.0,0.0,0.0,0.0,0.0,0.0,0.0,0.0,0.0,0.0,0.0,0.0,0.0,0.0,0.0,0.0,0.0,0.0,0.0,2.4445,0.0,0.0,0.0,0.0,0.0,0.0,0.0,0.0,0.0,0.0,0.0,0.0,0.0,0.0,0.0,0.0,0.0,0.0,0.0,0.0,0.0,0.0,0.0,0.0,0.0,0.0,0.0,0.0,0.0,0.0,0.0,0.0,0.0,0.0,0.0,0.0,0.0,0.0,1.4237,1.4809,1.5373,1.5964,1.6375,1.6608,1.6742,0.0,0.0,0.0,0.0,0.0,0.0,0.0,0.0,0.0,0.0,0.0,0.0,0.0,0.0,0.0,0.0,0.0,0.0,0.0,0.0,0.0,0.0,0.0,0.0,0.0,0.0,0.0,0.0,0.0,0.0,0.0,0.0,0.0,0.0,0.0,0.0,0.0,0.0,0.0,0.0,0.0,0.0,0.0,0.0,0.0,0.0,0.0,0.0,0.0,0.0,0.0,0.0,0.0,0.0,0.0,0.0,0.0,0.0,0.0,0.0,0.0,0.0,0.0,0.0,0.0,0.0,0.0,0.0,0.0,0.0,0.0,2.5133,0.0,0.0,0.0,0.0,0.0,0.0,0.0,0.0,0.0,0.0,0.0,0.0,0.0,0.0,0.0,0.0,0.0,0.0,0.0,0.0,0.0,0.0,0.0,1.144,1.1523,1.1734,1.1765,1.1836,0.0,0.0,0.0,0.0,0.0,0.0,1.3253,1.3847,1.4285,1.4535,1.5132,1.6004,1.7086,1.7401,1.7545,1.7561,1.8097,0.0,0.0,0.0,0.0,0.0,0.0,0.0,0.0,0.0,0.0,0.0,0.0,0.0,0.0,0.0,0.0,0.0,0.0,0.0,0.0,0.0,0.0,0.0,0.0,0.0,0.0,0.0,0.0,0.0,0.0,0.0,0.0,0.0,0.0,0.0,0.0,0.0,0.0,0.0,0.0,0.0,0.0,0.0,0.0,0.0,0.0,0.0,0.0,0.0,0.0,0.0,0.0,0.0,0.0,0.0,0.0,0.0,0.0,0.0,0.0,0.0,0.0,0.0,2.7186,2.7217,2.7235,2.7229,2.7234,2.7229,2.7321,2.6912,2.618,0.0,0.0,0.0,0.0,0.0,0.0,0.0,0.0,0.0,0.0,0.0,0.0,0.0,0.0,0.0,0.0,0.0,0.0,0.0,0.0,0.0,0.0,1.1999,1.2088,1.235,1.2375,1.2395,1.2414,0.0,0.0,0.0,0.0,1.2916,1.3113,1.3933,1.4495,1.4768,1.5821,1.6687,1.7348,1.7636,1.8191,1.8926,1.8319,1.8032,1.7993,0.0,0.0,0.0,0.0,0.0,0.0,0.0,0.0,0.0,0.0,0.0,0.0,0.0,0.0,0.0,0.0,0.0,0.0,0.0,0.0,0.0,0.0,0.0,0.0,0.0,0.0,0.0,0.0,0.0,0.0,0.0,0.0,0.0,0.0,0.0,0.0,0.0,0.0,0.0,0.0,0.0,2.1511,2.1849,0.0,0.0,0.0,0.0,0.0,0.0,0.0,0.0,0.0,0.0,0.0,0.0,0.0,2.6924,2.7576,2.8025,2.8433,2.88,2.9145,2.9308,2.9277,2.9293,2.9305,2.9272,2.8944,0.0,2.6615,2.6259,0.0,0.0,0.0,0.0,0.0,0.0,0.0,0.0,0.0,0.0,0.0,0.0,0.0,0.0,0.0,0.0,0.0,0.0,0.0,0.0,0.0,1.1895,1.2132,1.2525,1.2413,1.2448,1.27,1.2581,0.0,0.0,1.2959,1.318,1.3283,1.4082,1.4874,1.5586,1.6545,1.7404,1.8179,1.845,1.9011,1.9762,1.9381,1.9074,1.8808,1.8904,0.0,0.0,0.0,0.0,0.0,0.0,0.0,0.0,0.0,0.0,0.0,0.0,0.0,0.0,0.0,0.0,0.0,0.0,0.0,0.0,0.0,0.0,0.0,0.0,0.0,0.0,0.0,0.0,0.0,0.0,0.0,0.0,0.0,0.0,0.0,0.0,0.0,0.0,0.0,2.1363,2.171,2.1543,2.1837,2.2116,0.0,0.0,0.0,0.0,0.0,0.0,0.0,0.0,0.0,2.6831,2.7674,2.823,2.8576,2.9193,2.9677,3.0053,3.0276,3.0461,3.0665,3.066,3.0657,3.064,3.0264,2.9578,2.8675,2.7812,2.7246,2.6848,0.0,0.0,0.0,0.0,0.0,2.5771,0.0,0.0,0.0,0.0,0.0,0.0,0.0,0.0,0.0,0.0,0.0,0.0,1.1619,1.1809,1.212,1.259,1.2433,1.2492,1.2835,1.2662,1.2552,1.2552,1.2975,1.3256,1.333,1.4386,1.5468,1.6523,1.7332,1.8121,1.889,1.9183,1.9665,2.0287,2.0376,2.0076,1.9542,1.9619,1.9285,1.8713,0.0,0.0,0.0,0.0,0.0,0.0,0.0,0.0,0.0,0.0,0.0,0.0,0.0,0.0,0.0,0.0,0.0,0.0,0.0,0.0,0.0,0.0,0.0,0.0,0.0,0.0,0.0,0.0,0.0,0.0,0.0,0.0,0.0,0.0,0.0,0.0,0.0,2.1592,2.1904,2.1678,2.2048,2.2461,0.0,0.0,0.0,0.0,0.0,0.0,2.6208,2.6748,2.7334,2.8116,2.8941,2.9547,2.9834,3.0431,3.0909,3.1257,3.1366,3.1494,3.1645,3.163,3.1566,3.1421,3.099,3.0643,3.0282,2.9154,2.8291,2.7645,2.7494,2.7275,2.6994,2.6661,2.652,2.6364,0.0,0.0,0.0,0.0,0.0,0.0,0.0,0.0,0.0,0.0,0.0,1.1212,1.1912,1.1992,1.2176,1.2654,1.2677,1.2677,1.2711,1.2711,1.27,1.27,1.2723,1.2848,1.3111,1.4896,1.6351,1.7416,1.8235,1.8821,1.9191,1.944,1.9907,2.0511,2.0826,2.046,1.9604,1.9932,1.9688,1.9099,1.932,0.0,0.0,0.0,0.0,0.0,0.0,0.0,0.0,0.0,0.0,0.0,0.0,0.0,0.0,0.0,0.0,0.0,0.0,0.0,0.0,0.0,0.0,0.0,0.0,0.0,0.0,0.0,0.0,0.0,0.0,0.0,0.0,0.0,0.0,0.0,0.0,0.0,0.0,2.3118,2.3222,0.0,0.0,0.0,0.0,2.4761,2.5139,2.6009,2.744,2.7537,2.8352,3.0123,3.0206,3.0749,3.1824,3.189,3.2067,3.2429,3.2737,3.2685,3.2236,3.2236,3.1999,3.1547,3.0836,3.0526,3.0412,2.952,2.8876,2.8395,2.7749,2.748,2.7433,2.7085,2.6775,2.6491,0.0,0.0,0.0,0.0,0.0,0.0,0.0,0.0,1.0288,1.083,1.1172,1.1526,1.1949,1.2427,1.2836,1.3189,1.3165,1.3165,1.3224,1.3041,1.2961,1.2961,1.3109,1.3645,1.4558,1.5687,1.6628,1.7321,1.8246,1.8979,1.9617,2.0046,2.0617,2.1288,2.1409,2.1065,2.0389,2.0635,2.016,1.9245,1.9325,1.9083,0.0,0.0,0.0,0.0,0.0,0.0,0.0,0.0,0.0,0.0,0.0,0.0,0.0,0.0,0.0,0.0,0.0,0.0,0.0,0.0,0.0,0.0,0.0,0.0,0.0,0.0,0.0,0.0,0.0,0.0,0.0,0.0,0.0,0.0,0.0,0.0,0.0,2.3681,2.3931,0.0,2.513,2.5347,2.5655,2.619,2.6762,2.7293,2.7838,2.847,2.9225,3.0075,3.0566,3.1121,3.1731,3.195,3.2232,3.2592,3.2702,3.2776,3.283,3.283,3.2725,3.2543,3.2041,3.1684,3.1403,3.051,2.977,2.9115,2.8869,2.8638,2.8439,2.8315,2.7931,2.7355,0.0,0.0,0.0,0.0,0.0,0.0,0.0,0.0,1.0207,1.0729,1.12,1.1669,1.2082,1.2639,1.3143,1.3467,1.3366,1.3268,1.3317,1.3149,1.3061,1.3061,1.3546,1.4399,1.5603,1.6439,1.7106,1.771,1.8663,1.9392,1.9932,2.0403,2.097,2.1671,2.1714,2.152,2.1238,2.1351,2.0703,1.9592,1.982,1.9498,1.8907,0.0,0.0,0.0,0.0,0.0,0.0,0.0,0.0,0.0,0.0,0.0,0.0,0.0,0.0,0.0,0.0,0.0,0.0,0.0,0.0,0.0,0.0,0.0,0.0,0.0,0.0,0.0,0.0,0.0,0.0,0.0,0.0,0.0,0.0,2.3424,2.4114,2.4606,2.5065,2.5644,2.6424,2.6589,2.6888,2.7443,2.7982,2.8447,2.8837,2.9592,3.0266,3.0864,3.1467,3.195,3.2285,3.2621,3.291,3.3124,3.3203,3.3327,3.3367,3.3299,3.3228,3.3024,3.2538,3.2072,3.1711,3.1007,3.0364,2.9754,2.9429,2.9105,2.881,2.8692,2.8303,2.776,0.0,0.0,0.0,0.0,0.0,0.0,0.9163,0.9568,1.005,1.0513,1.0984,1.1551,1.2292,1.2641,1.2974,1.3448,1.3183,1.3003,1.2992,1.3003,1.3003,1.3024,1.3975,1.4997,1.609,1.7011,1.7905,1.871,1.9528,2.0017,2.022,2.0493,2.0966,2.1597,2.1747,2.1861,2.1991,2.2086,2.1358,2.0182,2.0824,2.039,1.932,0.0,0.0,0.0,0.0,0.0,0.0,0.0,0.0,0.0,0.0,0.0,0.0,0.0,0.0,0.0,0.0,0.0,0.0,0.0,0.0,0.0,0.0,0.0,0.0,0.0,0.0,0.0,0.0,0.0,0.0,0.0,0.0,0.0,2.3566,2.4417,2.5264,2.5982,2.6599,2.7151,2.7488,2.7757,2.8093,2.8414,2.8759,2.9409,3.0434,3.0817,3.146,3.254,3.2889,3.3208,3.3571,3.389,3.4057,3.4057,3.4392,3.4291,3.3844,3.3719,3.341,3.2939,3.2095,3.1547,3.1285,3.0961,3.0654,3.032,2.9356,2.877,2.8518,2.8185,2.7878,2.7653,0.0,0.0,0.0,0.0,0.0,0.0,0.8807,0.9068,0.9461,1.0069,1.0563,1.1109,1.1741,1.2315,1.2782,1.3122,1.3191,1.3169,1.3022,1.3148,1.3356,1.3626,1.4371,1.5287,1.6361,1.7124,1.7996,1.9006,1.9588,2.0168,2.0638,2.0921,2.1298,2.1739,2.1797,2.1699,2.1606,2.2197,2.1872,2.0956,2.0925,2.0477,1.9894,0.0,0.0,0.0,0.0,0.0,0.0,0.0,0.0,0.0,0.0,0.0,0.0,0.0,0.0,0.0,0.0,0.0,0.0,0.0,0.0,0.0,0.0,0.0,0.0,0.0,0.0,0.0,0.0,0.0,0.0,0.0,2.3942,2.4628,2.4919,2.532,2.5926,2.6843,2.7179,2.7601,2.8177,2.8462,2.8772,2.9097,2.9449,2.983,3.0326,3.0681,3.1179,3.1894,3.2053,3.2239,3.2598,3.2699,3.2742,3.2742,3.2828,3.2779,3.2688,3.2637,3.2542,3.2405,3.2183,3.1994,3.191,3.1509,3.1276,3.1128,3.0302,2.9929,2.9845,2.9761,2.9369,2.8757,0.0,0.0,0.0,0.0,0.0,0.0,0.8499,0.8728,0.907,0.9636,1.0188,1.0731,1.1246,1.1894,1.2366,1.2634,1.2727,1.2726,1.2714,1.3088,1.3591,1.4289,1.4972,1.5784,1.6755,1.7467,1.8176,1.9026,1.9524,2.0104,2.0701,2.0968,2.145,2.211,2.1997,2.1992,2.2042,2.2303,2.2162,2.1732,2.1425,2.0926,2.0414,2.0585,2.0273,1.9759,1.9855,1.9513,1.9015,1.9124,0.0,0.0,0.0,0.0,0.0,0.0,0.0,0.0,0.0,0.0,0.0,0.0,0.0,0.0,0.0,0.0,0.0,0.0,0.0,0.0,0.0,0.0,0.0,0.0,2.5061,2.5897,2.6467,2.6569,2.6876,2.7682,2.8318,2.8826,2.923,2.9663,2.9998,3.0179,3.0472,3.0724,3.0861,3.1212,3.1547,3.1896,3.2022,3.2221,3.2403,3.2543,3.2599,3.2599,3.2599,3.2599,3.2599,3.2367,3.2274,0.0,3.2101,3.1926,3.177,3.1479,3.1305,0.0,0.0,0.0,0.0,0.0,2.9531,2.9095,0.0,0.0,0.0,0.0,0.0,0.0,0.8152,0.8393,0.8712,0.9144,0.9745,1.0312,1.0749,1.1322,1.1773,1.2079,1.1998,1.2028,1.2281,1.2902,1.3715,1.4766,1.5485,1.6264,1.7187,1.7863,1.8489,1.9,1.9463,1.9987,2.0589,2.0786,2.144,2.2435,2.2204,2.2352,2.278,2.2338,2.2247,2.2358,2.2117,2.1607,2.0977,2.1345,2.0812,1.9981,2.0581,2.021,1.9505,1.9806,0.0,0.0,0.0,0.0,0.0,0.0,0.0,0.0,0.0,0.0,0.0,0.0,0.0,0.0,0.0,0.0,0.0,0.0,0.0,0.0,0.0,0.0,0.0,0.0,2.6245,2.7159,2.7936,2.7937,2.8021,2.8562,2.9605,3.0285,3.0312,3.0898,3.1232,3.1232,3.1482,3.1603,3.1631,0.0,0.0,0.0,0.0,3.2668,3.2668,3.2994,3.3133,3.3133,3.3091,3.3077,3.3077,3.2577,3.2313,3.2327,3.1901,3.1517,3.1276,3.1276,3.1102,3.0808,3.0574,3.0247,2.9953,2.9348,2.9148,0.0,0.0,0.0,0.0,0.0,0.0,0.0,0.7455,0.7627,0.7932,0.8504,0.8971,0.9508,1.0177,1.0556,1.0957,1.1425,1.1451,1.1708,1.2342,1.2808,1.3403,1.4215,1.5002,1.5934,1.7091,1.7872,1.8758,1.9725,1.9957,2.025,2.0587,2.0627,2.0961,2.1547,2.1504,2.1734,2.2181,2.2394,2.2423,2.2247,2.2362,2.2165,2.1799,2.187,2.156,2.1091,2.1221,2.0893,2.0446,2.0504,2.0113,1.9608,1.9668,1.9259,0.0,0.0,0.0,0.0,0.0,0.0,0.0,0.0,0.0,0.0,0.0,0.0,0.0,0.0,0.0,0.0,0.0,0.0,0.0,2.5915,2.6721,2.7576,2.8455,2.8897,2.922,2.9427,2.9751,3.0057,3.0344,3.0694,3.0897,3.0897,3.095,3.1085,3.1281,3.1625,3.1894,3.2123,3.242,3.263,3.263,3.2684,3.2711,3.2711,0.0,0.0,3.2299,3.1961,3.1853,3.1806,3.1758,3.1684,3.1583,3.1583,3.141,3.1116,3.0822,3.0675,3.0581,3.0234,3.0145,3.0074,0.0,0.0,0.0,0.0,0.0,0.0,0.6975,0.711,0.7315,0.7611,0.802,0.8468,0.8947,0.942,0.9804,1.0083,1.0463,1.1064,1.1909,1.2496,1.3225,1.422,1.5026,1.5875,1.6788,1.7465,1.8117,1.8764,1.9294,1.9725,2.0118,2.0449,2.084,2.131,2.1565,2.1768,2.2023,2.2328,2.2503,2.2569,2.2449,2.2332,2.2255,2.214,2.1852,2.1509,2.1526,2.1176,2.0649,2.0659,2.0372,1.9985,1.9842,1.9568,1.9237,0.0,0.0,0.0,0.0,0.0,0.0,0.0,0.0,0.0,0.0,0.0,0.0,0.0,0.0,2.3942,2.4678,0.0,2.6425,2.7128,2.7824,2.8519,2.9201,2.9672,2.9994,3.0024,3.0343,3.0635,3.0782,3.1183,3.145,3.145,3.1631,3.1778,3.1877,3.2072,3.2219,3.2367,3.2514,3.2594,3.2594,3.2594,3.2594,3.2594,3.2447,3.2367,3.2367,3.2219,3.2072,3.1891,3.1891,3.1797,3.1711,3.1711,3.1583,3.1436,3.1289,3.1049,3.0768,3.0635,3.0627,3.0587,0.0,0.0,0.0,0.0,0.0,0.0,0.0,0.667,0.6773,0.6832,0.7213,0.7579,0.787,0.8372,0.8779,0.8937,0.9654,1.0469,1.1317,1.2129,1.3038,1.4173,1.5073,1.5836,1.6411,1.7028,1.7463,1.7655,1.8434,1.9054,1.9527,2.0096,2.0651,2.1172,2.1649,2.1908,2.2028,2.2268,2.2619,2.2916,2.2419,2.2322,2.2441,2.21,2.1847,2.1659,2.1712,2.1267,2.0644,2.0644,2.0448,2.015,1.9937,1.9854,1.9737,1.9416,1.932,0.0,0.0,0.0,0.0,0.0,0.0,0.0,0.0,2.2191,2.2944,2.3283,2.4045,2.4915,2.5704,2.6662,2.7556,2.8248,2.8885,2.9518,3.0012,3.0341,3.06,3.0654,3.0982,3.1276,3.1336,3.1824,3.2131,3.2185,3.246,3.2594,3.2594,3.2648,3.2674,3.2674,3.2728,3.2768,3.2768,3.2768,3.2768,3.2755,3.2701,3.2674,3.2674,3.2621,3.246,3.2185,3.2131,3.1931,3.1711,3.1711,3.1711,3.1711,3.1711,3.1383,3.0955,3.0902,3.0875,3.0835,0.0,0.0,0.0,0.0,0.0,0.0,0.0,0.0,0.6361,0.6611,0.6839,0.7218,0.7833,0.796,0.8305,0.9014,0.9702,1.0321,1.0853,1.1868,1.2746,1.3496,1.4662,1.5608,1.6216,1.7106,1.7664,1.7857,1.8338,1.8785,1.9264,1.9326,1.9824,2.0694,2.1172,2.1605,2.2038,2.2481,2.2686,2.2686,2.221,2.2165,2.2237,2.1587,2.1519,2.1776,2.1906,2.1487,2.0877,2.0877,2.0567,2.0182,2.0147,1.9992,1.9738,1.9475,1.9364,1.9302,1.9302,2.0078,2.0922,2.095,2.187,2.2795,0.0,2.3459,2.4178,2.4519,2.5363,2.6089,2.6345,2.7374,2.8262,2.8531,2.9262,3.0025,3.0608,3.0942,3.1223,3.1537,3.1343,3.1436,3.1957,3.2064,3.2211,3.2527,3.2581,3.2594,3.2594,3.2835,3.2982,3.2982,3.3187,3.332,3.332,3.332,3.332,3.3307,3.3053,3.2982,3.2969,3.2714,3.2581,3.2527,3.2211,3.1931,3.1711,3.1711,3.1711,3.1711,3.1711,3.1671,3.1543,3.1276,3.1183,3.1129,0.0,0.0,0.0,0.0,0.0,0.0,0.0,0.0,0.0,0.6121,0.6369,0.6679,0.7047,0.7289,0.7705,0.8396,0.8888,0.9495,1.0237,1.1253,1.2213,1.3075,1.4168,1.5025,1.5617,1.6325,1.6776,1.6969,1.7596,1.8165,1.8642,1.9019,1.9563,2.0226,2.0955,2.1389,2.1649,2.2384,2.26,2.2449,2.2147,2.1874,2.1665,2.1178,2.0815,2.065,2.1007,2.0884,0.0,2.0258,2.003,1.9928,1.9958,1.9902,1.98,1.9847,1.9846,1.9867,2.0072,2.0865,2.1647,2.1823,2.2671,2.3487,2.3664,2.4363,2.5042,2.5164,2.5897,2.6673,2.7095,2.7756,2.8482,2.9262,2.982,3.0381,3.0955,3.1303,3.153,3.1698,3.1557,3.165,3.2064,3.2251,3.2527,3.2822,3.3009,3.3053,3.3053,3.316,3.3227,3.3227,3.3347,3.3414,3.3414,3.3414,3.3414,3.3414,3.3293,3.3227,3.3227,3.3106,3.2915,3.2581,3.2238,3.1931,3.1711,3.1711,3.1711,3.1711,3.1711,3.1711,3.1698,3.153,3.149,3.1436,0.0,0.0,0.0,0.0,0.0,0.0,0.0,0.0,0.0,0.0,0.5988,0.6253,0.6525,0.6877,0.7321,0.7905,0.8282,0.8899,0.9831,1.0827,1.1812,1.2786,1.3798,1.4557,1.5043,1.5586,1.5942,1.6154,1.6858,1.746,1.8058,1.8605,1.9179,1.9794,2.069,2.112,2.1163,2.2107,2.2352,2.2073,2.1879,2.15,2.0949,2.0572,2.0014,1.9475,1.9957,2.002,1.9821,1.9365,1.9318,1.949,1.9606,1.9724,1.9846,2.0119,2.037,2.0668,2.0962,2.177,2.2552,2.2832,2.3581,2.4329,2.4623,2.5304,2.5879,2.5879,2.6507,2.7215,2.7722,2.8179,2.8794,2.986,3.0287,3.0675,3.1263,3.153,3.1711,3.1711,3.1711,3.1858,3.2185,3.2474,3.2755,3.3066,3.3293,3.3414,3.3414,3.3494,3.3547,3.3547,3.3614,3.3627,3.3547,3.3547,3.3494,3.3414,3.3414,3.3414,3.3414,3.3414,3.3093,3.2581,3.2318,3.2011,3.1711,3.1711,3.1711,3.1711,3.1711,3.1711,3.1711,3.1711,3.1711,3.1684,0.0,0.0,0.0,0.0,0.0,0.0,0.0,0.0,0.0,0.0,0.0,0.0,0.0,0.6938,0.7303,0.7756,0.8221,0.8899,0.9831,1.0827,1.1759,1.2572,1.3621,1.4351,1.4716,1.5252,1.5618,1.5829,1.6187,1.6818,1.7704,1.7864,1.8418,1.9358,2.0234,2.0613,2.0697,2.1631,2.1868,2.1579,2.1394,2.0877,2.0199,1.9704,1.9144,1.8695,1.9095,1.8986,1.8623,1.834,1.8505,1.887,1.9193,1.9541,1.9846,2.0119,2.0842,2.1609,2.1903,2.284,2.3817,2.4075,2.481,2.5545,2.5877,2.636,2.6747,2.6747,2.7255,2.7762,2.8112,2.8617,2.9255,3.0253,3.0595,3.0982,3.1617,3.1711,3.1711,3.1711,3.1711,3.1938,3.2527,3.2594,3.2835,3.336,3.3414,3.3414,3.3414,3.3708,3.3868,3.3868,3.4148,3.4162,3.3881,3.3868,3.3721,3.3414,3.3414,3.3414,3.3414,3.3414,3.3093,3.2594,3.2581,3.2246,3.1711,3.1711,3.1711,3.1711,3.1711,3.1711,3.1711,3.1711,3.1711,3.1711,0.0,0.0,0.0,0.0,0.0,0.0,0.0,0.0,0.0,0.0,0.0,0.0,0.0,0.0,0.0,0.0,0.8261,0.8842,0.946,1.0444,1.1248,1.1853,1.2908,1.3628,1.3957,1.4484,1.4887,1.5065,1.566,1.6281,1.692,1.7499,1.8224,1.9132,1.9883,2.0354,2.0652,2.1267,2.1286,2.091,2.0874,2.0285,1.9419,1.8935,1.8266,1.75,0.0,1.7496,1.8038,1.7749,1.7793,1.8056,1.8745,1.9206,1.9714,2.1004,2.2031,2.2832,2.3327,2.4182,2.509,2.5772,2.6306,2.6841,2.7336,2.7603,2.7737,2.7737,2.7898,2.8125,2.839,2.8778,2.9325,3.0266,3.0654,3.0996,3.1631,3.1711,3.1711,3.1711,3.1837,3.2118,3.2554,3.2594,0.0,3.3374,3.3414,3.3507,3.3721,3.3828,3.3975,3.4162,3.4269,3.4269,3.4175,3.3988,3.3828,3.3721,3.3507,3.3414,3.3414,3.3414,3.3093,3.2594,3.2594,3.226,3.1711,3.1711,3.1711,3.1711,3.1711,3.1711,3.1711,3.1711,3.1711,3.1711,0.0,0.0,0.0,0.0,0.0,0.0,0.0,0.0,0.0,0.0,0.0,0.0,0.0,0.0,0.0,0.0,0.0,0.8678,0.9334,1.0151,1.0844,1.1358,1.2298,1.2954,1.3254,1.3717,1.4147,1.451,1.5031,1.5632,1.6308,1.6861,1.7561,1.8426,1.9033,1.9495,1.9886,2.0316,2.0285,1.9957,1.9833,1.9338,1.8538,1.8013,1.7313,0.0,1.6065,1.6332,1.6943,1.6978,1.7138,1.7518,1.8396,1.9228,2.0244,2.1945,2.31,2.3905,2.4636,2.5478,2.6333,2.7108,2.7522,2.7869,2.8393,2.8419,2.8353,2.8353,2.8259,2.8286,2.8551,2.8801,2.9255,3.0074,3.0541,3.0996,3.1631,3.1757,3.1912,3.2019,3.2193,3.242,3.2714,3.2755,3.2955,3.3374,3.3414,3.3547,3.3868,3.3988,3.4175,3.4417,3.4576,3.4589,3.4482,3.4189,3.3935,3.3721,3.3507,3.3414,3.3414,3.3307,3.3,3.2581,3.2487,3.2166,3.1711,3.1711,3.1711,3.1711,3.1711,3.1711,3.1711,3.1711,3.1711,3.1711,0.0,0.0,0.0,0.0,0.0,0.0,0.0,0.0,0.0,0.0,0.0,0.0,0.0,0.0,0.0,0.0,0.0,0.0,0.945,1.0009,1.0588,1.1151,1.1896,1.2392,1.2555,1.2914,1.3443,1.4137,1.4297,1.4874,1.583,1.5986,1.6479,1.7255,1.7759,1.8124,1.8477,1.8851,1.8903,1.8692,1.8455,1.8044,1.7572,1.6904,1.6374,1.5948,1.5744,1.5552,1.5503,1.6058,1.6668,1.7348,1.8252,1.9699,2.1378,2.2908,2.3986,2.4879,2.5864,2.6734,2.7536,2.8125,2.85,2.8738,2.8961,2.8788,2.8604,2.8591,2.8366,2.8232,2.8484,2.8791,2.9148,2.978,3.0381,3.0982,3.1631,3.1917,3.2211,3.2554,3.2607,3.2728,3.3009,3.3013,3.3133,3.3414,0.0,3.3574,3.3895,3.4189,3.4469,3.4711,3.5044,3.5057,3.4842,3.4469,3.4015,3.3414,3.3414,3.3414,3.34,3.3106,3.2875,3.2581,3.2238,3.1931,3.1711,3.1711,3.1711,3.1711,3.1711,3.1711,3.1711,3.1711,3.1711,3.1711,0.0,0.0,0.0,0.0,0.0,0.0,0.0,0.0,0.0,0.0,0.0,0.0,0.0,0.0,0.0,0.0,0.0,0.0,0.9686,1.023,1.0663,1.0946,1.1737,1.2166,1.2247,1.2692,1.3041,1.3231,1.3679,1.411,1.4581,1.5242,1.5929,1.6572,1.7121,1.7537,1.7906,1.8009,1.7949,1.7712,1.7464,1.7087,1.6614,1.6289,1.5906,1.549,1.5491,1.5489,1.5573,1.6273,1.7464,1.8822,1.977,2.1101,2.2597,2.3877,2.5039,2.6186,2.7322,2.807,2.8724,2.9312,2.9526,2.9539,2.9406,2.8978,2.8537,2.8353,2.7884,2.755,2.763,2.8072,2.8607,2.9121,2.994,3.0801,3.1604,3.1917,3.2211,3.2554,3.2781,3.2942,3.2973,3.3387,3.3681,0.0,3.3761,3.3895,3.4189,3.4496,3.479,3.507,3.5151,3.5164,3.5084,3.4576,3.4015,3.3414,3.3414,3.3414,3.34,3.3106,3.2875,3.2581,3.2238,3.1931,3.1711,3.1711,3.1711,3.1711,3.1711,3.1711,3.1711,3.1711,3.1711,3.1711,0.0,0.0,0.0,0.0,0.0,0.0,0.0,0.0,0.0,0.0,0.0,0.0,0.0,0.0,0.0,0.0,0.0,0.0,0.0,0.9972,1.0374,1.067,1.1256,1.1623,1.171,1.2084,1.2396,1.2631,1.3065,1.3507,1.3988,1.4597,1.5211,1.578,1.6095,1.6434,1.6786,1.6786,1.671,0.0,0.0,1.6289,1.5995,1.5805,1.5563,1.5339,1.542,1.5686,1.616,1.7078,1.827,1.9599,2.0646,2.2091,2.3655,2.4991,2.6239,2.7429,2.8486,2.9165,2.9726,3.0181,3.0207,3.0034,2.974,2.9125,2.8484,2.8085,2.7523,2.7068,2.7068,2.7549,2.8192,2.8751,2.97,3.0707,3.1591,3.2086,3.25,3.2879,3.3187,3.3374,3.3374,3.3801,3.4082,3.4082,3.4082,3.4202,3.4496,3.4721,3.4897,3.5191,3.5191,3.507,3.4817,3.4482,3.4015,3.3414,3.3414,3.3414,3.34,3.3106,3.2875,3.2581,0.0,3.1931,3.1711,3.1711,3.1711,3.1711,3.1711,3.1711,3.1711,3.1711,3.1711,3.1711,0.0,0.0,0.0,0.0,0.0,0.0,0.0,0.0,0.0,0.0,0.7067,0.0,0.0,0.0,0.0,0.0,0.0,0.0,0.0,0.0,1.0085,1.0451,1.0837,1.1123,1.13,1.1514,1.1873,1.233,1.2579,1.303,1.3692,1.3951,1.439,1.4928,1.4968,1.5173,1.5466,1.5466,1.5517,1.5587,1.5596,1.5612,1.5596,0.0,1.5358,1.5363,1.554,1.6138,1.6984,1.8059,1.9025,2.0052,2.1339,2.2885,2.4571,2.6081,2.7376,2.85,2.9396,3.0065,3.0574,3.0742,3.0627,3.0293,2.9833,2.9058,2.8257,2.7655,2.7054,2.6653,2.6653,2.7134,2.7722,2.8337,2.9419,3.0547,3.147,3.2139,3.2768,3.3347,3.3694,3.3895,3.3935,3.4202,3.4376,3.4376,3.4416,3.4536,3.475,3.4855,3.4937,3.5191,3.5191,3.4937,3.4389,3.4336,3.4042,3.3467,3.3427,3.3414,3.34,3.3106,3.2888,3.2634,0.0,0.0,3.1764,3.1724,3.1711,3.1711,3.1711,3.1711,3.1711,3.1711,3.1711,3.1711,0.0,0.0,0.0,0.0,0.0,0.0,0.0,0.0,0.0,0.0,0.7716,0.8206,0.0,0.0,0.0,0.0,0.0,0.0,0.0,0.0,0.0,1.0879,1.1423,1.1732,1.1771,1.2189,1.2441,1.2558,1.2585,1.2766,1.3052,1.3392,1.3677,1.3961,1.4236,1.451,1.4773,1.4773,1.5032,1.5411,1.5201,1.5127,1.512,1.5143,0.0,0.0,1.5917,1.671,1.755,1.8172,1.9295,2.0719,2.238,2.4003,2.5521,2.6774,2.7949,2.9085,3.0012,3.0635,3.1036,3.0835,3.0627,3.0132,2.9072,2.8136,2.7335,2.6734,2.6146,2.5745,2.5745,2.6226,2.6814,2.7443,2.8497,2.9659,3.0782,3.165,3.2492,3.3284,3.3708,3.3975,3.4229,3.4509,3.4683,0.0,3.491,3.4963,3.4711,3.499,3.5151,3.5191,3.5191,3.503,3.4748,3.4442,3.4148,3.3801,3.3534,3.3414,3.34,3.3106,3.2946,3.2929,0.0,0.0,3.2011,3.177,3.1711,3.1711,3.1711,3.1711,3.1711,3.1711,3.1711,3.1711,0.0,0.0,0.0,0.0,0.0,0.0,0.0,0.7237,0.7558,0.7558,0.8043,0.8424,0.8479,0.8702,0.8966,0.0,0.0,0.0,0.0,0.0,0.0,1.0969,1.1293,1.1492,1.1603,1.1815,1.1962,1.2073,0.0,1.2529,1.3013,1.332,1.3629,1.3961,1.4118,1.4275,1.4406,1.4406,1.4552,1.4786,1.483,1.4836,1.4865,1.5201,0.0,0.0,1.6168,1.6856,1.7731,1.8635,1.9779,2.1116,2.2714,2.4459,2.6199,2.7416,2.8564,2.9659,3.0381,3.1009,3.1383,3.1089,3.0688,3.0132,2.9058,2.8016,2.7055,2.6119,2.5464,2.5013,2.5013,2.5531,2.6226,2.7162,2.827,2.9402,3.0635,3.1543,3.2372,3.3106,3.3734,3.4162,3.4309,3.4723,3.499,3.499,3.5124,3.5137,3.499,3.5124,3.5191,3.5191,3.5191,3.5057,3.4815,3.4469,3.4175,3.3881,3.3561,3.3414,3.3414,3.3267,3.312,3.2959,3.2679,0.0,3.2091,3.1944,3.181,3.1711,3.1711,3.1711,3.1711,3.1711,3.1711,3.1711,0.0,0.0,0.0,0.0,0.0,0.0,0.0,0.7423,0.7795,0.7795,0.8247,0.8516,0.8424,0.8607,0.8854,0.0,0.0,0.0,0.0,0.0,0.0,0.0,0.0,0.0,1.1529,0.0,0.0,1.1835,1.2047,0.0,0.0,0.0,0.0,0.0,1.4018,1.4091,1.4141,1.4141,1.4251,0.0,0.0,1.4814,1.4915,0.0,0.0,0.0,0.0,1.6932,1.785,1.8926,2.0051,2.126,2.2592,2.4494,2.644,2.7724,2.8845,2.9887,3.0595,3.1129,3.1423,3.1196,3.0595,2.9847,2.8908,2.7789,2.66,2.5545,2.4826,2.4412,2.4412,2.4893,2.5665,2.676,2.7883,2.9072,3.0247,3.1223,3.2091,3.2848,3.3681,3.4282,3.4402,3.4897,3.5191,3.5191,3.5191,0.0,3.5191,3.5191,3.5191,3.5191,3.5191,3.5084,3.4909,3.4496,3.4202,3.3975,3.3587,3.3414,3.3414,3.3414,3.3293,3.3066,3.3,0.0,0.0,3.2158,3.1971,3.1805,3.1738,3.1711,3.1711,3.1711,3.1711,3.1711,0.0,0.0,0.0,0.0,0.0,0.0,0.0,0.7494,0.7795,0.7795,0.8371,0.8759,0.8749,0.8837,0.9059,0.0,0.0,0.0,0.0,0.0,0.0,0.0,0.0,0.0,0.0,0.0,0.0,1.2608,1.262,0.0,0.0,0.0,0.0,0.0,0.0,1.3711,1.3929,1.3929,0.0,0.0,0.0,0.0,0.0,0.0,0.0,0.0,0.0,1.7213,1.8074,1.8713,1.9757,2.0931,2.2098,2.3905,2.5879,2.7321,2.839,2.9322,3.0488,3.0835,3.0862,3.0835,2.9993,2.8881,2.803,2.6707,2.5491,2.4813,2.4249,2.3884,2.3884,2.4329,2.4893,2.5571,2.6667,2.7843,2.8988,3.0194,3.133,3.25,3.3424,3.4135,3.4721,3.5004,3.5191,3.5191,3.5191,0.0,3.5191,3.5191,3.5191,3.5191,3.5191,3.5177,3.5151,3.4603,3.4309,3.4269,3.3694,3.3414,3.3414,3.3414,3.34,3.336,0.0,0.0,0.0,3.2318,3.2091,3.2038,3.1818,3.1711,3.1711,3.1711,3.1711,3.1711,0.0,0.0,0.0,0.0,0.0,0.0,0.734,0.763,0.7909,0.808,0.845,0.874,0.8914,0.8951,0.9092,0.9455,0.0,0.0,0.0,0.0,0.0,0.0,0.0,0.0,0.0,0.0,1.2425,1.2686,1.2686,0.0,0.0,0.0,0.0,0.0,0.0,1.4216,1.4323,1.453,0.0,0.0,0.0,0.0,0.0,0.0,0.0,0.0,0.0,0.0,1.7889,1.8636,1.9466,2.0347,2.1555,2.2867,2.4342,2.6533,2.7802,2.8764,2.994,3.0394,3.0488,3.0314,2.9602,2.8708,2.7682,2.644,2.5291,2.4529,2.3915,2.35,2.35,2.3981,2.4623,2.5384,2.6493,2.7682,2.8828,3.0047,3.1156,3.2158,3.3227,3.4042,3.4456,3.4923,3.5191,3.5191,3.5191,0.0,3.5191,3.5191,3.5191,3.5191,3.5191,3.5191,3.5191,3.4616,3.4322,3.4309,3.3708,3.3414,3.3414,3.3414,3.3414,3.34,0.0,0.0,0.0,3.2594,3.2265,3.2078,3.1784,3.1711,3.1711,3.1711,3.1711,3.1711,0.0,0.0,0.0,0.0,0.0,0.7408,0.749,0.7732,0.7974,0.8158,0.8481,0.8761,0.8949,0.9137,0.9318,0.9493,0.9829,0.0,0.0,0.0,0.0,0.0,0.0,0.0,0.0,0.0,1.2571,1.2913,1.2913,1.3185,0.0,0.0,1.3893,1.4084,0.0,0.0,0.0,0.0,0.0,0.0,0.0,0.0,0.0,0.0,0.0,0.0,0.0,0.0,0.0,0.0,0.0,1.972,2.0753,2.1729,2.3014,2.5558,2.6934,2.7924,2.9072,2.9584,2.9717,2.9553,2.8951,2.8081,2.7148,2.5972,2.4903,2.4102,2.3541,2.3193,2.3193,2.3674,2.4329,2.513,2.6239,2.7415,2.8604,2.9793,3.0889,3.1864,3.2946,3.3801,3.4269,3.4923,3.5324,3.5324,0.0,0.0,3.5324,3.5324,3.5284,3.5204,3.5191,3.5191,3.5191,3.4616,3.4322,3.4309,3.3708,3.3414,3.3414,3.3414,3.3414,3.3414,0.0,0.0,0.0,3.2755,3.2474,3.2198,3.1824,3.1711,3.1711,3.1711,3.1711,3.1711,0.0,0.0,0.0,0.0,0.0,0.0,0.7454,0.7732,0.7906,0.7906,0.8486,0.8892,0.8892,0.9426,0.9788,0.9788,0.9855,0.0,0.0,0.0,0.0,0.0,0.0,0.0,0.0,0.0,1.3392,1.3404,1.3404,1.3404,1.3404,1.3684,1.3811,1.3824,0.0,0.0,0.0,0.0,0.0,0.0,0.0,0.0,0.0,0.0,0.0,0.0,0.0,0.0,0.0,0.0,0.0,0.0,0.0,2.0646,2.2064,2.4446,2.5757,2.6667,2.7884,2.8205,2.8286,2.8537,2.7722,2.6694,2.6145,2.5064,2.4048,2.3425,2.3086,2.2893,2.2893,2.3402,2.3968,2.4519,2.5638,2.6854,2.8031,2.9179,3.0368,3.1577,3.25,3.3334,3.4229,3.511,3.5631,3.5631,0.0,0.0,3.5591,3.5631,3.5498,3.5204,3.5191,3.5191,3.5191,3.4616,3.4322,3.4309,3.3708,3.3414,3.3414,3.3414,3.3414,0.0,0.0,0.0,0.0,3.2835,3.2594,3.2527,3.1952,3.1711,3.1711,3.1711,3.1711,3.1711,0.0,0.0,0.0,0.0,0.0,0.0,0.0,0.8054,0.8204,0.8484,0.8699,0.8961,0.933,0.9547,0.9734,0.9923,1.0121,0.0,0.0,0.0,0.0,0.0,0.0,0.0,0.0,0.0,1.3506,1.387,1.4026,1.4139,1.43,1.4374,1.4414,1.4428,1.474,1.4916,0.0,0.0,0.0,0.0,0.0,0.0,0.0,0.0,0.0,0.0,0.0,0.0,0.0,0.0,0.0,0.0,0.0,0.0,0.0,2.2251,2.3861,2.5451,2.6627,2.7094,2.7268,2.7362,2.68,2.6118,2.5529,2.4646,2.3777,2.3161,2.296,2.284,2.2592,2.322,2.3968,2.4506,2.5625,2.6841,2.8018,2.9165,3.0354,3.1577,3.2986,3.4162,3.4857,3.5351,3.5578,3.5578,0.0,0.0,3.5645,3.5578,3.5498,3.5204,3.5191,3.5191,3.5191,3.4616,3.4322,3.4309,3.3708,3.3414,3.3414,3.3414,0.0,0.0,0.0,0.0,0.0,3.2835,3.2594,3.2541,3.1952,3.1711,3.1711,3.1711,3.1711,3.1711,0.0,0.0,0.0,0.0,0.0,0.0,0.0,0.8186,0.8365,0.8623,0.8725,0.8929,0.9256,0.9603,0.9857,1.0022,1.0421,0.0,0.0,0.0,0.0,0.0,0.0,0.0,0.0,1.3554,1.3877,1.4334,1.4447,1.458,1.4699,1.4699,1.4699,1.4699,1.4915,1.5069,0.0,0.0,0.0,0.0,0.0,0.0,1.6612,0.0,0.0,0.0,0.0,0.0,0.0,0.0,0.0,0.0,0.0,0.0,0.0,0.0,2.2111,2.3754,2.505,2.5692,2.596,2.596,2.5638,2.5208,2.4727,2.4017,2.3322,2.2792,2.2699,2.2632,2.2458,2.3166,2.3968,2.4506,2.5625,2.6841,2.8018,2.9165,3.0474,3.2032,3.344,3.4549,3.5137,3.5565,3.5845,3.5952,0.0,0.0,3.5819,3.5792,3.5605,3.5204,3.5191,3.5191,3.5191,3.4616,3.4322,3.4309,3.3708,3.3414,3.3414,3.3414,0.0,0.0,0.0,0.0,0.0,3.2835,3.2594,3.2541,3.1952,3.1711,3.1711,3.1711,3.1711,3.1711,0.0,0.0,0.0,0.0,0.0,0.0,0.0,0.8203,0.8421,0.8421,0.8651,0.8818,0.8831,0.9593,1.0102,1.0129,0.0,0.0,0.0,0.0,0.0,0.0,0.0,0.0,0.0,1.4157,1.4466,1.4783,1.4803,1.4803,1.4803,1.4803,1.4803,1.4803,1.4803,1.4993,0.0,0.0,0.0,0.0,0.0,0.0,0.0,0.0,0.0,0.0,0.0,0.0,0.0,0.0,0.0,0.0,0.0,0.0,0.0,0.0,0.0,0.0,0.0,2.4035,2.4479,2.4506,2.4302,2.4008,2.3803,2.3268,0.0,2.2445,2.2405,2.2432,2.2445,2.318,2.3968,2.4532,2.5638,2.6841,2.8018,2.9245,3.0782,3.2772,3.3788,3.4563,3.5164,3.5738,3.6193,0.0,0.0,0.0,3.6099,3.6072,3.5805,3.5217,3.5191,3.5191,3.5164,3.4603,3.4309,3.4282,3.3694,3.3414,3.3414,3.3414,0.0,0.0,0.0,0.0,0.0,3.2822,3.2581,3.25,3.1938,3.1711,3.1711,3.1711,3.1711,3.1711,0.0,0.0,0.0,0.0,0.0,0.0,0.0,0.0,0.0,0.0,0.8844,0.9032,0.9233,0.9767,1.0199,0.0,0.0,0.0,0.0,0.0,0.0,0.0,0.0,0.0,1.4091,1.4477,1.4938,1.5456,1.5658,1.5777,1.5777,1.5777,1.5777,1.5777,1.5777,1.5956,0.0,0.0,0.0,0.0,0.0,0.0,0.0,0.0,0.0,0.0,1.7272,1.7616,0.0,0.0,0.0,0.0,0.0,0.0,0.0,0.0,1.9973,2.0722,2.1523,0.0,2.334,2.3545,2.3198,2.2873,0.0,2.2653,2.2211,2.2098,2.2258,2.2485,2.2746,2.3348,2.4071,2.485,2.5772,2.6841,2.8018,2.9985,3.177,3.3146,3.3908,3.4643,3.5444,3.5859,3.6193,0.0,0.0,3.6687,3.6099,3.6072,3.5805,3.5217,3.5191,3.5084,3.4922,3.4509,3.4202,3.3988,3.3601,3.3414,3.3414,3.3414,0.0,0.0,0.0,0.0,3.3053,3.2741,3.246,3.2171,3.1858,3.1711,3.1711,3.1711,3.1711,3.1711,0.0,0.0,0.0,0.0,0.0,0.0,0.0,0.0,0.0,0.0,0.0,0.9149,0.9301,0.9911,0.0,0.0,0.0,0.0,0.0,0.0,0.0,0.0,0.0,1.3933,1.4599,1.4847,1.5242,1.5886,1.6025,1.6108,1.6108,1.6108,1.6108,1.6108,1.6108,1.6194,0.0,0.0,0.0,0.0,1.7911,0.0,0.0,0.0,0.0,0.0,1.7551,1.7846,0.0,1.8133,1.8223,1.8398,0.0,0.0,0.0,0.0,1.9386,1.996,2.0517,2.147,2.2372,2.2632,2.2458,2.2298,2.2592,2.2311,2.2017,2.2151,2.2418,2.2672,2.2867,2.3581,2.4409,2.5157,2.6132,2.7429,2.9155,3.0975,3.2514,3.3507,3.4162,3.487,0.0,3.5979,3.6246,0.0,0.0,3.654,3.6099,3.5939,3.5658,3.5204,3.507,3.4976,3.4815,3.4469,3.4175,3.3881,3.3561,3.3414,3.3414,3.3414,0.0,0.0,0.0,0.0,3.2946,3.2519,3.2251,3.2078,3.1784,3.1711,3.1711,3.1711,3.1711,3.1711,0.0,0.0,0.0,0.0,0.0,0.0,0.0,0.0,0.0,0.0,0.0,0.0,0.0,0.0,0.0,0.0,0.0,0.0,0.0,0.0,0.0,0.0,0.0,1.447,1.5181,1.5219,1.5578,1.6294,1.6361,1.6392,1.6392,1.6392,1.634,1.6252,1.6252,1.6232,0.0,0.0,0.0,0.0,1.7949,0.0,0.0,0.0,0.0,0.0,0.0,0.0,0.0,1.8291,1.8322,1.8366,1.8382,0.0,0.0,0.0,0.0,0.0,1.9983,2.0748,2.1475,2.185,2.1957,2.1991,2.2285,2.2164,2.2084,2.2418,2.2686,2.2947,2.3134,2.3995,2.4893,2.5598,2.6814,2.846,3.0555,3.1912,3.2982,3.3788,3.4442,3.5203,3.6046,3.6112,0.0,0.0,0.0,3.638,3.6086,3.5792,3.5498,3.5204,3.491,3.4788,3.4696,3.4402,3.4108,3.3814,3.3534,3.3414,3.3414,3.3414,3.3387,0.0,0.0,0.0,3.2812,3.2305,3.2078,3.2011,3.177,3.1711,3.1711,3.1711,3.1711,3.1711,0.0,0.0,0.0,0.0,0.0,0.0,0.0,0.0,0.0,0.0,0.0,0.0,0.0,0.0,0.0,0.0,0.0,0.0,0.0,0.0,0.0,1.3949,1.4215,1.4746,1.5589,1.5758,1.6306,1.7217,1.7548,1.7711,1.7711,1.7711,1.7448,1.6955,1.6955,1.6812,1.6654,0.0,0.0,0.0,0.0,0.0,0.0,0.0,0.0,0.0,0.0,0.0,0.0,1.8292,1.8203,1.8112,1.8338,0.0,0.0,0.0,0.0,0.0,1.9706,2.0147,2.0628,2.1448,2.1649,2.1729,2.1991,2.2017,2.2171,2.2719,2.2867,2.3201,2.4146,2.4716,2.5371,2.644,2.8243,2.99,3.0962,3.2171,3.321,3.3814,3.4616,3.5378,3.606,3.6299,0.0,0.0,0.0,3.638,3.6086,3.5792,3.5498,3.5204,3.491,3.4643,3.4389,3.4095,3.3801,3.348,3.3427,3.3414,3.3414,3.3414,3.328,0.0,0.0,3.2692,3.2225,3.2144,3.1957,3.1778,3.1738,3.1711,3.1711,3.1711,3.1711,3.1711,0.0,0.0,0.0,0.0,0.0,0.0,0.0,0.0,0.0,0.0,0.0,0.0,0.0,0.0,0.0,0.0,0.0,0.0,0.0,0.0,0.0,1.4412,1.4891,1.5433,1.6007,1.6318,1.6895,1.7722,1.7908,1.8086,1.8268,1.8069,1.7846,1.7577,1.736,1.7315,1.7444,1.7964,0.0,0.0,0.0,0.0,0.0,0.0,0.0,0.0,0.0,0.0,0.0,0.0,1.816,1.8042,1.8324,0.0,0.0,0.0,0.0,0.0,1.9599,2.0013,2.0384,2.1136,2.1462,2.1743,2.2358,2.2492,2.2706,2.3469,2.3714,2.4088,2.4919,2.5611,2.6507,2.8016,2.9459,3.0755,3.1797,3.2826,3.3694,3.4282,0.0,3.5605,3.6086,0.0,0.0,0.0,0.0,0.0,3.5845,0.0,3.5257,3.4977,3.4683,3.4389,3.4095,3.3788,3.3561,3.3414,3.3414,3.3414,3.3414,3.3253,3.3106,3.2959,0.0,3.2345,3.2091,3.1931,3.1784,3.1711,3.1711,3.1711,3.1711,3.1711,3.1711,3.1738,0.0,0.0,0.0,0.0,0.0,0.0,0.0,0.0,0.0,0.0,0.0,0.0,0.0,0.0,0.0,0.0,0.0,0.0,0.0,0.0,1.4363,1.4813,1.5613,1.6161,1.6368,1.6754,1.7343,1.8138,1.8221,1.8455,1.8779,1.8522,1.8312,1.8182,1.7863,1.7859,1.814,1.8462,1.877,0.0,0.0,0.0,0.0,0.0,0.0,0.0,0.0,0.0,0.0,0.0,0.0,0.0,0.0,0.0,0.0,1.8317,1.849,1.8677,1.9559,2.0013,2.0357,2.1042,2.1483,2.1984,2.2733,2.3054,2.3442,2.4235,2.4636,2.5026,2.5785,2.676,2.7963,2.9539,3.0581,3.157,3.2648,3.3521,3.4282,3.4855,3.5378,3.5845,3.6139,0.0,0.0,0.0,0.0,0.0,3.5591,0.0,3.499,3.4829,3.4416,3.4108,3.3895,3.3574,3.3414,3.3414,3.3414,3.3374,3.3307,3.308,3.2906,3.2746,3.2305,3.2064,3.1984,3.1757,3.1711,3.1711,3.1711,3.1711,3.1711,3.1711,3.1764,3.1797,0.0,0.0,0.0,0.0,0.0,0.0,0.0,0.0,0.0,0.0,0.0,0.0,0.0,0.0,0.0,0.0,0.0,0.0,0.0,0.0,1.4613,1.5155,1.623,1.6733,1.6579,1.6985,1.7623,1.8559,1.8935,1.929,1.9604,1.9587,1.9274,1.8737,1.8703,1.8617,1.8478,1.882,1.8979,1.9029,0.0,0.0,0.0,0.0,0.0,0.0,0.0,0.0,0.0,0.0,0.0,0.0,0.0,0.0,1.7729,1.8317,1.849,1.8677,1.9559,2.0013,2.041,2.1341,2.197,2.2445,2.2813,2.3549,2.4275,2.4927,2.5251,2.5798,2.6974,2.8323,2.9606,3.0541,3.1711,3.2688,3.3253,3.4135,3.4817,3.5124,3.5685,3.6153,0.0,0.0,0.0,0.0,0.0,0.0,3.5578,0.0,0.0,3.4815,3.4215,3.3908,3.3881,3.3574,3.3414,3.3414,3.3414,3.3267,3.3013,3.2986,3.2679,3.2158,3.2118,3.1944,3.1751,3.1724,3.1711,3.1711,3.1711,3.1711,3.1711,3.1711,3.1837,3.2078,0.0,0.0,0.0,0.0,0.0,0.0,0.0,0.0,0.0,0.0,0.0,0.0,0.0,0.0,0.0,0.0,0.0,0.0,0.0,1.4861,1.5325,1.5861,1.6787,1.7239,1.7164,1.7518,1.8121,1.8977,1.9594,1.9949,2.0086,1.9824,1.957,1.9346,1.913,1.9104,1.9254,1.9389,1.9574,1.9794,1.9666,0.0,0.0,0.0,0.0,0.0,0.0,0.0,0.0,0.0,1.7945,1.761,1.82,1.8029,1.7729,1.8317,1.849,1.8677,1.9559,2.0013,2.0464,2.155,2.2405,2.3078,2.3581,2.4235,2.5024,2.5972,2.64,2.7014,2.839,2.945,3.036,3.1243,3.2219,3.3076,3.3627,3.4469,3.5137,3.5431,3.5979,3.6313,0.0,0.0,0.0,0.0,0.0,0.0,0.0,0.0,0.0,3.4496,3.4095,3.3788,3.3587,3.3467,3.3414,3.3414,3.3414,3.3253,3.2973,3.2835,3.2492,3.2091,3.1904,3.177,3.1711,3.1711,3.1711,3.1711,3.1711,3.1711,3.1711,3.1711,3.1851,3.2131,0.0,0.0,0.0,0.0,0.0,0.0,0.0,0.0,0.0,0.0,0.0,0.0,0.0,0.0,0.0,0.0,0.0,0.0,1.495,1.5369,1.5876,1.6493,1.7148,1.7556,1.7698,1.804,1.8573,1.929,1.996,2.0292,2.0292,2.0012,1.9893,1.9876,1.9641,1.9675,1.9893,1.9893,2.0047,2.0269,1.9853,1.9648,0.0,0.0,0.0,0.0,0.0,0.0,0.0,0.0,1.8017,1.7736,1.8228,1.8029,1.7729,1.8317,1.849,1.8704,1.9666,2.0147,2.0655,2.183,2.2806,2.3674,2.4436,2.5144,2.5905,2.6894,2.7629,2.847,2.9673,3.0426,3.1109,3.1992,3.2746,3.348,3.4082,3.4763,3.5311,3.5591,3.5979,0.0,0.0,0.0,0.0,0.0,0.0,0.0,0.0,0.0,0.0,0.0,3.3895,3.3627,3.3414,3.3414,3.336,3.328,3.328,3.312,3.2875,3.2594,3.2286,3.1957,3.1805,3.1711,3.1711,3.1711,3.1711,3.1711,3.1711,3.1711,3.1724,3.1818,3.1998,3.2278,0.0,0.0,0.0,0.0,0.0,0.0,0.0,0.0,0.0,0.0,0.0,0.0,0.0,0.0,0.0,0.0,0.0,0.0,1.5163,1.5586,1.6154,1.6973,1.7327,1.7698,1.8108,1.8497,1.898,1.9504,2.0026,2.0314,2.0292,2.0292,2.0292,2.0292,2.0292,2.0292,2.0292,2.0292,2.0292,2.0269,1.9996,1.9785,0.0,0.0,0.0,0.0,0.0,0.0,0.0,0.0,1.816,1.8042,1.8298,1.8029,1.7729,1.8317,1.849,1.8744,1.989,2.0454,2.0962,2.2138,2.31,2.4124,2.5264,2.6199,2.7001,2.7602,2.8898,3.01,3.0688,3.1276,3.2005,3.2839,3.3494,3.4095,3.4735,3.5017,3.5311,3.5591,3.5578,0.0,0.0,0.0,0.0,0.0,0.0,0.0,0.0,0.0,0.0,0.0,3.3574,3.3414,3.3414,3.3414,3.3253,3.2973,3.2973,3.2875,3.2581,3.2238,3.1944,3.1711,3.1711,3.1711,3.1711,3.1711,3.1711,3.1711,3.1711,3.1711,3.1751,3.1998,3.2291,3.2634,0.0,0.0,0.0,0.0,0.0,0.0,0.0,0.0,0.0,0.0,0.0,0.0,0.0,0.0,0.0,0.0,0.0,0.0,1.5787,1.6164,1.6666,1.7315,1.7715,1.8114,1.8513,1.8865,1.9206,1.9504,1.9746,2.0012,2.0292,2.0292,2.0292,2.0292,2.0292,2.0292,2.0292,2.0292,2.0201,1.9996,1.9785,1.9556,1.9288,0.0,0.0,0.0,0.0,0.0,0.0,0.0,0.0,0.0,1.8104,1.7871,1.7729,1.8317,1.849,1.8744,1.989,2.0454,2.1034,2.2425,2.3554,2.4706,2.6119,2.68,2.7535,2.8965,3.01,3.0955,3.1343,3.1938,3.2554,3.32,3.3801,3.4322,3.4762,3.5191,3.5538,3.5565,3.5819,0.0,0.0,0.0,0.0,0.0,0.0,0.0,0.0,0.0,0.0,0.0,3.3574,3.332,3.3106,3.3106,3.2959,3.2728,3.2465,3.2318,3.2225,3.2144,3.1944,3.1711,3.1711,3.1711,3.1711,3.1711,3.1711,3.1711,3.1711,3.1711,3.1751,3.1998,3.2291,3.2634,0.0,0.0,0.0,0.0,0.0,0.0,0.0,0.0,0.0,0.0,1.2618,1.3133,0.0,0.0,0.0,0.0,0.0,0.0,0.0,1.6661,1.7187,1.7715,1.8118,1.8521,1.8944,1.8981,1.9191,1.961,1.9665,1.991,2.0292,2.0292,2.0292,2.0292,2.0292,2.0292,2.0292,2.0178,2.0042,1.986,1.9556,1.9333,1.9173,0.0,0.0,0.0,0.0,0.0,0.0,0.0,0.0,0.0,1.804,1.7832,1.7729,1.8317,1.849,1.8744,1.989,2.0615,2.1381,2.2712,2.4022,2.5426,2.7241,2.8016,2.8751,3.0301,3.1036,3.157,3.2139,3.2621,3.3093,3.3694,3.4189,3.4603,3.4949,3.5231,3.5458,3.5458,0.0,0.0,0.0,0.0,0.0,0.0,0.0,0.0,0.0,0.0,0.0,0.0,3.34,3.316,3.2973,3.2915,3.2714,3.242,3.2185,3.2038,3.1931,3.1931,3.1837,3.1711,3.1711,3.1711,3.1711,3.1711,3.1711,3.1711,3.1711,3.1711,3.1764,3.2131,3.2433,3.2648,0.0,0.0,0.0,0.0,0.0,0.0,0.0,0.0,0.0,0.0,1.3269,1.3602,0.0,0.0,0.0,0.0,0.0,0.0,0.0,0.0,1.7733,1.8155,1.8559,1.8926,1.9292,1.8947,1.9097,1.9798,1.9696,1.9876,2.0292,2.0292,2.0309,2.0343,2.0332,2.0309,2.0298,2.0013,1.9882,1.9791,1.9379,1.9196,1.9104,1.8658,0.0,0.0,0.0,0.0,0.0,0.0,0.0,0.0,1.8069,1.7806,1.7729,1.8317,1.8504,1.8784,1.993,2.0922,2.1917,2.3073,2.4543,2.6306,2.8561,2.9535,3.0314,3.1436,3.1764,3.2045,3.2826,3.3213,3.3614,3.4215,3.4549,3.483,3.5151,3.5191,3.5191,3.5191,0.0,0.0,0.0,0.0,0.0,0.0,0.0,0.0,0.0,0.0,0.0,3.3387,3.3093,3.2933,3.2893,3.2688,3.2407,0.0,3.2064,3.1931,3.1711,3.1711,3.1711,3.1711,3.1711,3.1711,3.1711,3.1711,3.1711,3.1711,3.1711,3.1711,3.1791,3.238,3.2594,3.2674,0.0,0.0,0.0,0.0,0.0,0.0,0.0,0.0,0.0,0.0,0.0,0.0,0.0,0.0,0.0,0.0,0.0,0.0,0.0,0.0,1.8226,1.8787,1.904,1.9219,1.9292,1.9158,1.9324,1.9798,1.9462,1.9663,2.0292,2.0292,2.0486,2.076,2.0429,2.0354,2.0424,2.0046,1.97,1.9356,1.9242,1.9081,1.885,1.8589,0.0,0.0,0.0,0.0,0.0,0.0,0.0,0.0,1.7845,1.7635,1.7729,1.8317,1.8651,1.905,2.0267,2.1248,2.2211,2.338,2.5464,2.7669,2.9339,3.0181,3.0808,3.1577,3.2086,3.2541,3.2955,3.3213,3.3614,3.4215,3.4376,3.4603,3.5124,3.5191,3.5191,0.0,0.0,0.0,0.0,0.0,0.0,0.0,0.0,0.0,0.0,0.0,0.0,3.3066,3.2835,3.2581,3.2291,3.2225,3.2051,0.0,3.1805,3.1778,3.1711,3.1711,3.1711,3.1711,3.1711,3.1711,3.1711,3.1711,3.1711,3.1711,3.1711,3.1711,3.1791,3.238,3.2594,3.2674,0.0,0.0,0.0,0.0,0.0,0.0,0.0,0.0,0.0,0.0,0.0,0.0,0.0,0.0,0.0,0.0,0.0,0.0,0.0,0.0,1.8863,1.9272,1.9299,1.9292,1.9292,1.923,1.9412,1.9798,1.9756,2.0023,2.0589,2.0589,2.0725,2.0942,2.0738,2.0597,2.0529,2.0022,1.9664,1.9415,1.9122,1.8874,1.8651,1.859,0.0,0.0,0.0,0.0,0.0,0.0,0.0,0.0,0.0,0.0,1.7729,1.8317,1.8691,1.9156,2.0361,2.1416,2.2645,2.4556,2.6519,2.8257,2.9606,3.0368,3.1036,3.1965,3.238,3.2728,3.3106,3.344,3.3748,3.4055,3.4349,3.4589,3.475,3.4897,3.4937,0.0,0.0,0.0,0.0,0.0,0.0,0.0,0.0,3.3374,0.0,3.2933,3.2822,3.2822,3.2541,3.2251,3.2104,3.1971,3.1824,3.1711,3.1711,3.1711,3.1711,3.1711,3.1711,3.1711,3.1711,3.1711,3.1711,3.1711,3.1711,3.1711,3.1711,3.1711,3.1791,3.238,3.2594,3.2674,0.0,0.0,0.0,0.0,0.0,0.0,0.0,0.0,0.0,0.0,0.0,0.0,0.0,0.0,0.0,0.0,0.0,0.0,0.0,0.0,0.0,1.9647,1.9429,1.9329,1.9402,1.9337,1.9519,1.9887,2.0241,2.0583,2.093,2.093,2.0976,2.1098,2.0982,2.083,2.0597,2.0021,1.9756,1.9629,1.9129,1.8785,1.8597,1.8599,1.8535,1.8413,1.8699,1.8858,1.8829,1.8521,0.0,0.0,0.0,0.0,1.7729,1.8317,1.8731,1.9252,2.0405,2.1683,2.3313,2.5772,2.7309,2.85,2.9646,3.0368,3.1116,3.2286,3.2554,3.2768,3.3307,3.3627,3.3828,3.3881,3.4295,3.4549,3.4349,3.4536,0.0,0.0,0.0,0.0,0.0,0.0,0.0,0.0,0.0,3.2955,3.2955,3.2674,3.2514,3.2514,3.2185,3.2024,3.2024,3.1784,3.1711,3.1711,3.1711,3.1711,3.1711,3.1711,3.1711,3.1711,3.1711,3.1711,3.1711,3.1711,3.1711,3.1711,3.1711,3.1711,3.1791,3.238,3.2594,3.2674,0.0,0.0,0.0,0.0,0.0,0.0,0.0,0.0,0.0,0.0,1.571,1.6217,0.0,0.0,0.0,0.0,0.0,0.0,0.0,0.0,0.0,1.9863,1.9508,1.9456,1.9822,1.9746,1.9926,2.0319,2.0657,2.0876,2.0978,2.0978,2.118,2.1484,2.0906,2.0695,2.0736,2.0321,1.991,1.9529,1.9434,1.9248,1.8996,1.8773,1.8845,1.9034,1.8861,1.9005,1.9135,1.8591,1.8396,0.0,0.0,0.0,1.7729,1.8317,1.8906,1.9535,2.0458,2.2285,2.4356,2.5985,2.7309,2.85,2.9646,3.0368,3.1049,3.1971,3.242,3.2768,3.3307,3.3454,3.3561,3.3841,3.3948,3.4082,3.4295,3.4349,0.0,0.0,0.0,0.0,0.0,0.0,0.0,0.0,3.2835,3.2648,3.2648,3.2318,3.2158,3.2158,3.1877,3.173,3.173,3.1738,3.1711,3.1711,3.1711,3.1711,3.1711,3.1711,3.1711,3.1711,3.1711,3.1711,3.1711,3.1711,3.1711,3.1711,3.1711,3.1711,3.1791,3.238,3.2594,3.2674,0.0,0.0,0.0,0.0,0.0,0.0,0.0,0.0,0.0,0.0,0.0,1.6712,0.0,0.0,0.0,0.0,0.0,0.0,0.0,0.0,0.0,1.9902,1.9731,1.967,1.9729,1.9989,2.0267,2.0522,2.0805,2.1083,2.1333,2.1453,2.1608,2.1757,2.1465,2.1253,2.1094,2.04,1.9964,1.975,1.9416,1.9118,1.8878,1.896,1.8984,1.8981,1.9071,0.0,1.9026,1.8553,1.8291,1.8108,1.7714,0.0,0.0,0.0,1.8933,1.9696,2.1074,2.2693,2.4315,2.5824,2.6948,2.8045,2.9366,3.0127,3.0795,3.1677,3.2091,3.2478,3.3066,3.3307,3.3454,3.3601,3.3774,3.3868,3.3814,3.3961,0.0,0.0,0.0,0.0,0.0,0.0,0.0,0.0,3.2514,3.2291,3.2291,3.2024,3.1864,3.1864,3.1778,3.1711,3.1711,3.1711,3.1711,3.1711,3.1711,3.1711,3.1711,3.1711,3.1711,3.1711,3.1711,3.1711,3.1711,3.1711,3.1711,3.1711,3.1711,3.1711,3.1764,3.2193,3.2447,3.2661,0.0,0.0,0.0,0.0,0.0,0.0,0.0,0.0,0.0,0.0,0.0,0.0,0.0,0.0,0.0,0.0,0.0,0.0,0.0,0.0,0.0,2.0073,1.9972,1.9902,1.9913,2.0214,2.0523,2.0743,2.0931,2.12,2.1636,2.1907,2.1984,2.1932,2.1835,2.1655,2.1386,2.0514,2.0112,2.0005,1.9466,1.914,1.9018,1.9241,1.9262,1.9184,1.9433,0.0,0.0,0.0,1.8448,1.8196,1.7916,1.7969,0.0,0.0,0.0,1.9933,2.155,2.2806,2.4044,2.5516,2.66,2.7684,2.9045,2.982,3.0547,3.137,3.1784,3.2144,3.2666,3.3,3.3187,3.3187,3.3387,3.3467,3.3227,3.34,0.0,0.0,0.0,0.0,0.0,0.0,0.0,0.0,3.2158,3.1998,3.1998,3.1784,3.1711,3.1711,3.1711,3.1711,3.1711,3.1711,3.1711,3.1711,3.1711,3.1711,3.1711,3.1711,3.1711,3.1711,3.1711,3.1711,3.1711,3.1711,3.1711,3.1711,3.1711,3.1711,3.1751,3.1998,3.2291,3.2634,0.0,0.0,0.0,0.0,0.0,0.0,0.0,0.0,0.0,0.0,0.0,0.0,0.0,0.0,1.9414,1.9805,0.0,0.0,0.0,0.0,0.0,2.0549,2.014,0.0,2.0728,2.0521,2.0646,2.1171,2.105,2.1244,2.1683,2.2152,2.2241,2.1978,2.1662,2.1522,2.1437,2.0814,2.0412,2.0144,1.9814,1.9691,1.9735,1.9764,1.9928,0.0,0.0,0.0,0.0,0.0,0.0,1.8823,1.8547,1.845,1.8531,0.0,0.0,0.0,2.1657,2.2659,2.3665,2.517,2.6413,2.7575,2.8748,2.9468,3.0194,3.1062,3.149,3.1831,3.2091,3.2433,3.2634,3.2634,3.2648,3.2661,3.2648,3.2648,0.0,0.0,0.0,0.0,0.0,0.0,0.0,0.0,3.1851,3.1738,3.1738,3.1724,3.1711,3.1711,3.1711,3.1711,3.1711,3.1711,3.1711,3.1711,3.1711,3.1711,3.1711,3.1711,3.1711,3.1711,3.1711,3.1711,3.1711,3.1711,3.1711,3.1711,3.1711,3.1711,3.1751,3.1998,3.2291,3.2634,0.0,0.0,0.0,0.0,0.0,0.0,0.0,0.0,0.0,0.0,0.0,0.0,0.0,1.9434,1.9746,1.9883,2.0195,0.0,0.0,0.0,0.0,2.0718,2.0687,2.0622,2.0543,2.0704,2.0879,2.1074,2.0851,2.0966,2.1436,2.1719,2.1778,2.1686,2.1779,2.1716,2.1536,2.0858,2.0533,2.0426,2.0145,2.004,2.0062,2.0062,0.0,0.0,0.0,0.0,0.0,0.0,0.0,0.0,1.8546,1.8624,1.8824,1.9118,1.9693,2.0384,2.1203,2.2071,2.3065,2.4546,2.5545,2.6493,2.7869,2.8644,2.9325,3.0207,3.0621,3.1015,3.145,3.2091,3.2594,3.2594,3.2594,3.2594,3.2594,3.2594,0.0,0.0,0.0,0.0,0.0,0.0,0.0,0.0,0.0,0.0,3.1711,3.149,3.1383,3.1383,3.1209,3.1196,3.1383,3.157,3.1711,3.1711,3.1711,3.1711,3.1711,3.1711,3.1711,3.1711,3.1711,3.1711,3.1711,3.1711,3.1711,3.1711,3.1711,3.1711,3.1724,3.1831,3.2179,3.2607,0.0,0.0,0.0,0.0,0.0,0.0,0.0,0.0,0.0,0.0,0.0,0.0,0.0,0.0,2.0352,2.043,2.0722,2.0933,2.0998,2.0794,2.0778,2.1001,2.0983,2.0876,2.0607,2.0716,2.0836,2.0997,2.0652,2.076,2.1332,2.1322,2.1372,2.1413,2.1644,2.1701,2.1597,2.0918,2.0631,2.0604,2.0336,2.0342,2.0504,2.0393,0.0,0.0,0.0,0.0,0.0,0.0,0.0,0.0,1.8958,1.8998,1.9132,1.9426,1.9853,2.033,2.0949,2.175,2.2665,2.3865,2.4783,2.5705,2.6974,2.7802,2.8551,2.9432,2.994,3.0368,3.0849,3.149,3.2072,3.2273,3.23,3.23,3.23,3.23,0.0,0.0,0.0,0.0,0.0,0.0,0.0,0.0,0.0,0.0,3.1417,3.1183,3.1076,3.1076,3.0889,3.0889,3.1076,3.1276,3.1423,3.1517,3.1517,3.157,3.1711,3.1711,3.1711,3.1711,3.1711,3.1711,3.1711,3.1711,3.1711,3.1711,3.1711,3.1711,3.1711,3.1711,3.2086,3.2594,0.0,0.0,0.0,0.0,0.0,0.0,0.0,0.0,0.0,1.9354,0.0,0.0,0.0,0.0,0.0,2.1464,2.1481,2.1398,2.1227,2.0959,2.098,2.1364,0.0,0.0,2.0979,2.0541,2.053,2.099,2.0475,2.0616,2.1381,2.1118,2.1048,2.118,2.1195,2.139,2.1645,2.0979,2.0722,2.0692,2.0386,2.0634,2.1175,0.0,0.0,0.0,2.1329,2.1011,0.0,2.0695,0.0,0.0,0.0,1.9626,1.9481,1.9733,1.9983,2.0344,0.0,0.0,0.0,2.3132,2.4182,2.5277,2.6146,2.7028,2.7896,2.8761,2.9415,2.9953,3.0306,3.0555,3.0942,3.1577,3.1684,3.1684,3.1684,3.1684,0.0,0.0,0.0,0.0,0.0,0.0,0.0,0.0,3.0795,3.0795,3.0795,3.0782,3.0768,3.0768,3.0768,3.0782,3.0782,3.0795,3.0929,3.1209,3.1223,3.1383,3.1711,3.1711,3.1711,3.1711,3.1711,3.1711,3.1711,3.1711,3.1711,3.1711,3.1711,3.1711,3.1711,3.1711,3.2086,3.2594,0.0,0.0,0.0,0.0,0.0,0.0,1.965,1.9727,1.9962,0.0,0.0,0.0,2.1046,2.1154,2.1221,2.1273,2.1273,2.1301,2.1347,2.1151,2.1123,2.1389,2.1123,2.0891,2.0789,2.0704,2.0684,2.0708,2.0475,2.0477,2.0747,2.0509,2.0524,2.0754,2.0813,2.1009,2.1318,2.1144,2.1203,2.1423,2.132,2.154,0.0,0.0,0.0,0.0,0.0,2.1275,2.0953,0.0,2.064,2.0508,0.0,0.0,1.9983,2.0064,2.0321,2.0628,2.1002,0.0,0.0,0.0,0.0,0.0,2.5237,2.5998,2.6734,2.7575,2.8272,2.8834,2.9312,2.9646,2.9967,3.0341,3.0755,3.1036,3.1036,3.1036,0.0,0.0,0.0,0.0,0.0,0.0,0.0,0.0,3.0795,3.0795,3.0795,3.0641,3.0381,3.0167,3.0368,3.052,3.052,3.0688,3.0835,3.0915,3.1129,3.1276,3.1356,3.157,3.1711,3.1711,3.1711,3.1711,3.1711,3.1711,3.1711,3.1711,3.1711,3.1711,3.1711,3.1711,3.2086,3.2594,0.0,0.0,0.0,0.0,0.0,2.0042,2.0391,2.0625,2.0878,0.0,0.0,0.0,2.1856,2.1916,2.1997,2.2077,2.2077,2.196,2.1684,2.1529,2.1482,2.149,2.124,2.1042,2.0986,2.0836,2.0736,2.0688,2.038,2.0272,2.0333,2.0091,2.0098,2.0264,2.0424,2.0678,2.1028,2.1306,2.1525,2.1701,2.1701,2.1963,0.0,2.2153,2.2121,0.0,0.0,0.0,2.163,2.1456,2.1274,0.0,0.0,0.0,0.0,0.0,0.0,0.0,0.0,2.1537,2.2071,2.2439,0.0,0.0,2.4419,2.5115,2.581,2.64,2.7242,2.7924,2.823,2.8644,2.9022,2.9152,2.9579,3.006,3.0541,3.0715,0.0,0.0,0.0,0.0,0.0,3.0608,3.0568,3.0434,3.0421,3.0421,3.0421,3.0261,3.01,2.9927,3.0087,3.0181,3.0181,3.0341,3.0488,3.0667,3.0782,3.0996,3.1236,3.141,3.1557,3.1711,3.1711,3.1711,3.1711,3.1711,3.1711,3.1711,3.1711,3.1711,3.1711,3.1711,3.2086,3.2594,0.0,0.0,2.0254,2.0332,2.0798,2.117,2.1208,2.1559,2.1769,0.0,2.1669,2.1888,2.241,2.2738,0.0,0.0,2.3172,2.2842,2.2059,2.1995,2.1879,2.1624,2.1346,2.1244,2.1357,2.0943,2.0737,2.0766,2.0273,2.0025,2.006,1.9776,1.9724,1.9855,2.0079,2.0415,2.0795,2.1437,2.1686,2.173,2.1759,2.2132,0.0,0.0,2.254,2.2909,2.264,2.2565,2.2552,2.2485,2.2098,0.0,0.0,0.0,0.0,0.0,2.0846,0.0,0.0,0.0,0.0,0.0,2.2659,0.0,2.3647,2.4356,2.5024,2.5304,2.6279,2.7108,2.7108,2.759,2.7991,2.7991,2.8272,2.8858,3.0052,3.0421,0.0,0.0,0.0,0.0,3.0279,3.0253,3.01,2.9833,2.982,2.9833,2.986,2.9873,2.9887,2.9913,2.9913,2.9913,2.9913,2.9913,3.0047,3.036,3.0386,3.0635,3.1129,3.1149,3.137,3.1671,3.1698,3.1711,3.1711,3.1711,3.1711,3.1711,3.1711,3.1711,3.1711,3.1711,3.2086,3.2594,0.0,1.9784,2.0095,2.0476,2.0771,2.1023,2.1164,2.1277,2.1541,2.2163,2.2644,2.2907,2.282,2.2683,2.2539,0.0,2.2328,2.2262,2.2079,2.1919,2.1825,2.1754,2.1302,2.105,2.1069,2.0876,2.0685,2.0475,2.0214,1.9973,1.9776,1.9506,1.9632,2.0122,2.0181,2.0532,2.1145,2.1525,2.1685,2.1752,2.2225,2.2668,2.3014,2.309,2.3221,2.3338,2.348,2.3549,2.3469,2.2974,2.2539,2.2191,0.0,0.0,0.0,0.0,0.0,0.0,0.0,0.0,0.0,0.0,0.0,0.0,2.334,2.3728,2.4151,2.4396,2.5211,2.5852,2.5852,2.6333,2.6734,2.6734,2.7175,2.7856,2.8818,2.9205,0.0,0.0,0.0,0.0,2.9255,2.9255,2.9228,2.9175,2.9161,2.9268,2.9553,2.9566,2.9673,2.9913,2.9913,2.9913,2.9913,2.9913,2.994,3.0007,3.0293,3.0467,3.0587,3.1009,3.1263,3.133,3.157,3.1711,3.1711,3.1711,3.1711,3.1711,3.1711,3.1711,3.1711,3.1711,3.2086,3.2594,1.9586,1.9934,2.032,2.0568,2.1009,2.1467,2.1738,2.1984,2.2277,2.2787,2.3241,2.3475,2.3406,2.3455,2.3438,0.0,0.0,0.0,0.0,2.2093,2.1811,2.1519,2.1251,2.1138,2.1156,2.0952,2.0721,2.0452,2.0087,1.9918,1.9953,1.9678,1.9769,2.021,2.0371,2.0638,2.0989,2.1481,2.1778,2.1947,2.2415,0.0,2.3032,2.3303,2.3583,2.3828,2.3946,2.3981,2.3915,2.3509,2.3255,0.0,0.0,2.2552,2.2425,0.0,2.2098,2.1991,0.0,0.0,0.0,2.2385,0.0,0.0,0.0,2.3327,2.3594,2.3741,2.4342,2.4863,2.4863,2.5224,2.5558,2.5718,2.6106,2.66,2.7201,2.8043,2.8591,0.0,0.0,0.0,2.8591,2.8738,2.8841,2.8988,2.9001,2.9068,2.9259,2.9259,2.9392,2.9686,2.97,2.9766,2.9913,2.9913,2.9913,2.9913,3.0074,3.0266,3.0426,3.0808,3.1089,3.1236,3.1543,3.1711,3.1711,3.1711,3.1711,3.1711,3.1711,3.1711,3.1711,3.1711,3.2086,3.2594,1.9658,2.0119,2.0562,2.0673,2.1332,2.1973,2.2343,2.2745,2.3131,2.3465,2.377,2.397,2.4043,2.4333,2.45,0.0,0.0,0.0,0.0,0.0,2.2012,2.1544,2.1452,2.1431,2.1425,2.1141,2.0856,2.0534,2.0076,1.9975,2.019,1.9991,2.0018,2.0312,2.0593,2.0743,2.083,2.1501,2.1871,2.2038,2.2561,2.2851,2.3011,2.3358,2.3814,2.4302,2.4409,2.4422,2.4329,2.4035,2.3937,2.3808,2.35,2.3247,0.0,0.0,0.0,0.0,0.0,0.0,0.0,0.0,0.0,2.2893,0.0,0.0,0.0,2.3233,2.3661,2.4035,2.4035,2.4275,0.0,0.0,0.0,0.0,0.0,2.6734,0.0,0.0,0.0,0.0,0.0,2.8163,2.8444,2.8641,2.8655,2.8708,2.8858,2.8871,2.9032,2.9392,2.9392,2.9539,2.9833,2.9833,2.986,2.9913,2.9913,3.0047,3.0333,3.0581,3.0862,3.1156,3.145,3.1623,3.1711,3.1711,3.1711,3.1711,3.1711,3.1711,3.1711,3.1711,3.2059,3.2514,1.9861,2.0081,2.0404,2.0958,2.1605,2.2117,2.2281,2.274,2.3363,2.417,2.4606,2.4799,2.4628,2.4641,0.0,0.0,0.0,0.0,2.3232,0.0,0.0,2.264,2.2401,2.2135,2.1857,2.1563,2.1133,2.0608,2.0527,2.0407,2.0206,2.0179,2.0327,2.0649,2.0672,2.0873,2.1172,2.1796,2.1891,2.1728,2.2857,2.3317,0.0,2.3636,2.4084,2.4613,2.517,2.5197,2.493,0.0,2.4369,2.4102,0.0,2.3736,2.3696,0.0,0.0,0.0,0.0,0.0,0.0,0.0,2.3046,0.0,0.0,0.0,2.2947,2.2947,0.0,0.0,0.0,0.0,0.0,0.0,0.0,0.0,2.4396,2.477,2.5424,0.0,0.0,0.0,0.0,2.7241,2.7469,2.751,2.751,2.7737,2.8259,2.8286,2.8553,2.9028,2.9041,2.9232,2.9526,2.9539,2.9659,2.9913,2.9913,2.994,2.998,3.0319,3.0568,3.0862,3.1156,3.1423,3.1711,3.1711,3.1711,3.1711,3.1711,3.1711,3.1711,3.1711,3.1877,3.2185,1.9889,2.0343,2.0786,2.0901,2.1525,2.2117,2.2475,2.3495,2.4288,2.4545,2.5096,2.5389,2.5189,0.0,0.0,0.0,0.0,2.4129,0.0,0.0,0.0,2.2057,2.1947,2.1729,2.1445,2.1148,2.0849,2.0604,2.0441,2.0408,2.0488,2.0488,2.0681,2.0975,2.1003,2.1067,2.1155,2.1631,2.1915,2.2121,2.2842,2.3496,0.0,2.4218,2.4636,2.517,2.5424,2.5438,2.5304,0.0,2.5064,0.0,0.0,0.0,0.0,0.0,0.0,0.0,0.0,0.0,0.0,0.0,0.0,0.0,2.3126,0.0,2.2893,0.0,0.0,0.0,0.0,0.0,0.0,0.0,2.3621,0.0,0.0,0.0,2.4502,0.0,0.0,0.0,0.0,0.0,0.0,0.0,0.0,2.7188,2.7657,2.7831,2.8083,2.8511,2.8698,2.9005,2.9486,2.9486,2.9633,2.9913,2.9913,2.9913,2.9927,3.0266,3.056,3.0808,3.1102,3.1396,3.1711,3.1711,3.1711,3.1711,3.1711,3.1711,3.1711,3.1711,3.1851,3.2144,2.0171,2.0582,2.092,2.1023,2.1549,2.2233,2.3007,2.4202,2.5065,2.5059,2.57,2.6111,2.5978,2.6153,0.0,0.0,2.5544,2.49,0.0,0.0,2.2995,0.0,0.0,0.0,0.0,2.1178,2.0979,2.0911,2.06,2.0534,2.0711,2.0711,2.083,2.1041,2.1051,2.1118,2.1269,2.157,2.2032,2.2579,2.2987,2.3821,2.4853,2.497,2.5264,2.5651,2.5718,2.5705,2.5638,2.5638,2.5585,0.0,2.5264,0.0,0.0,0.0,0.0,0.0,2.4285,0.0,0.0,0.0,0.0,0.0,0.0,0.0,0.0,0.0,0.0,0.0,0.0,0.0,0.0,0.0,0.0,2.3126,0.0,0.0,0.0,0.0,0.0,0.0,0.0,0.0,0.0,0.0,0.0,0.0,2.7041,2.7228,2.7549,2.8045,2.8243,2.8644,2.9245,2.9325,2.9513,2.9793,2.9873,2.9913,2.9927,3.014,3.0448,3.0808,3.1022,3.1316,3.1711,3.1711,3.1711,3.1711,3.1711,3.1711,3.1711,3.1711,3.1797,3.2038,2.0886,2.0678,2.066,2.144,2.1907,2.2635,2.3951,2.4746,2.5391,2.5885,0.0,0.0,0.0,0.0,0.0,0.0,0.0,2.5347,2.4997,0.0,2.419,0.0,0.0,2.3233,0.0,0.0,2.1934,2.1642,2.1335,2.1002,2.0702,2.0702,2.07,2.0717,2.0711,2.1026,2.1596,2.1873,2.2331,2.2934,2.3536,2.4436,2.5518,0.0,2.5971,2.6011,2.6305,0.0,0.0,2.5984,2.5784,0.0,0.0,0.0,0.0,0.0,0.0,0.0,0.0,0.0,0.0,2.4572,0.0,0.0,0.0,0.0,2.3278,0.0,0.0,0.0,0.0,0.0,0.0,0.0,0.0,0.0,0.0,0.0,0.0,0.0,0.0,0.0,0.0,0.0,0.0,0.0,0.0,0.0,2.6386,2.6426,2.6827,2.7682,2.7722,2.8016,2.8631,2.8868,2.9161,2.9499,2.978,2.9913,2.9913,2.9927,3.0247,3.0795,3.0808,3.1142,3.1711,3.1711,3.1711,3.1711,3.1711,3.1711,3.1711,3.1711,3.1724,3.1818,2.1011,2.106,2.1193,2.143,2.1966,2.2834,2.4128,2.5115,0.0,0.0,2.7003,0.0,0.0,2.7644,2.774,0.0,0.0,2.6595,2.6106,2.5693,0.0,0.0,0.0,2.3503,0.0,0.0,0.0,0.0,2.1467,2.1133,2.1031,2.0798,2.0703,2.0725,2.1112,2.1407,2.1649,2.2298,2.284,2.3273,2.4449,2.5277,2.585,0.0,0.0,2.6292,2.636,2.6333,0.0,2.6239,2.6172,2.6066,2.5904,2.5837,2.581,2.5571,2.5518,0.0,0.0,0.0,2.5211,2.5211,0.0,0.0,0.0,0.0,0.0,0.0,0.0,0.0,0.0,0.0,0.0,0.0,0.0,0.0,0.0,0.0,0.0,0.0,0.0,0.0,0.0,0.0,0.0,0.0,2.4733,0.0,0.0,2.6079,2.652,2.6827,2.7402,2.7896,2.8339,2.8791,2.9192,2.9486,2.978,2.9913,2.9913,2.9913,3.0234,3.0795,3.0795,3.1129,3.1711,3.1711,3.1711,3.1711,3.1711,3.1711,3.1711,3.1711,3.1711,3.1805,2.1269,2.1528,2.1712,2.1541,2.2342,2.3315,2.4297,0.0,0.0,0.0,2.7385,0.0,2.813,0.0,2.8587,0.0,2.8243,2.7744,2.7095,2.6837,0.0,2.4818,2.4774,0.0,0.0,0.0,0.0,0.0,2.1779,2.1356,2.1005,2.0797,2.0695,2.072,2.1208,2.1546,2.1796,2.2572,2.31,2.3607,2.497,2.5692,0.0,0.0,2.6265,2.6386,0.0,2.6386,2.6386,2.6386,2.6386,2.636,2.6212,2.6145,2.6105,2.5879,2.5825,2.5825,2.5825,2.5745,0.0,0.0,2.5304,0.0,2.4906,0.0,0.0,0.0,0.0,0.0,0.0,0.0,0.0,0.0,0.0,0.0,0.0,2.167,0.0,0.0,0.0,0.0,0.0,0.0,2.3407,2.3701,2.4008,2.4359,0.0,0.0,2.5959,2.6373,2.7041,2.7575,2.8018,2.8591,2.8988,2.9325,2.9619,2.982,2.9913,2.9913,3.0234,3.0795,3.0795,3.1129,3.1711,3.1711,3.1711,3.1711,3.1711,3.1711,3.1711,3.1711,3.1845,3.2086,2.1742,2.2034,2.2172,2.1861,2.2971,2.4053,2.4485,0.0,2.6188,0.0,2.7829,2.8773,2.9138,2.9378,2.955,2.955,2.9223,2.871,2.8043,2.8014,0.0,0.0,2.607,2.5617,2.4657,0.0,0.0,0.0,0.0,2.1608,2.0739,2.0709,2.0706,2.0726,2.1002,2.1456,2.2031,2.2679,2.3308,2.3991,2.5064,2.5705,2.6051,2.6279,0.0,2.6386,2.6386,2.6386,2.6386,2.6386,2.6386,2.6386,2.6386,2.6386,2.6386,2.6386,2.64,2.6413,2.6413,2.6265,2.6065,2.6065,0.0,0.0,0.0,0.0,2.5024,0.0,0.0,0.0,0.0,0.0,0.0,0.0,0.0,0.0,0.0,0.0,0.0,0.0,0.0,0.0,0.0,2.2231,2.2512,2.2861,2.3126,2.3639,0.0,0.0,2.5119,2.6293,2.6653,2.7094,2.7669,2.8297,2.8751,2.9001,2.9339,2.9633,2.9913,2.9913,3.0234,3.0795,3.0795,3.1129,3.1711,3.1711,3.1711,3.1711,3.1711,3.1711,3.1711,3.1711,3.2086,3.2594,2.257,2.2895,2.3226,2.3444,2.3777,2.4185,0.0,0.0,0.0,0.0,2.8739,2.9436,2.9981,3.0303,3.0457,3.0457,3.0375,0.0,0.0,0.0,0.0,2.7473,2.7118,2.6408,2.5215,2.461,0.0,2.2887,0.0,2.1496,2.1084,2.0808,2.0694,2.0739,2.143,2.1844,2.2058,2.3134,2.4165,2.509,2.5398,2.5825,0.0,0.0,2.6386,2.6386,2.6386,2.6386,2.6386,2.6386,2.6386,2.6386,2.6386,2.6386,2.6386,2.6386,2.6547,2.6707,2.6707,2.6814,2.6974,2.6974,2.6547,2.6159,0.0,0.0,0.0,0.0,0.0,0.0,0.0,0.0,0.0,0.0,0.0,0.0,0.0,0.0,0.0,2.1457,0.0,0.0,2.2064,2.2088,2.2224,2.257,2.2855,2.3108,0.0,0.0,0.0,2.5436,2.6333,2.7001,2.7416,2.819,2.8751,2.9001,2.9339,2.9633,2.9913,2.9913,3.0234,3.0795,3.0795,3.1129,3.1711,3.1711,3.1711,3.1711,3.1711,3.1711,3.1711,3.1711,3.2086,3.2594,2.296,2.3601,2.4162,2.4261,2.4751,0.0,2.5453,2.6341,0.0,2.8597,2.9398,0.0,3.0709,3.1192,3.1318,3.0961,3.1091,0.0,2.9961,0.0,0.0,2.8218,2.7799,2.7017,2.5773,2.5269,0.0,2.3167,0.0,2.192,2.1371,2.1016,2.0869,2.0895,2.1657,2.1991,2.2071,2.3295,2.4449,2.5518,2.5518,2.5865,0.0,2.6386,2.6386,2.6386,2.6386,2.6386,2.6386,2.6386,2.6386,2.6386,2.6386,2.6386,2.6386,2.6386,2.66,2.6787,2.6787,2.7041,2.7309,2.7309,2.7055,2.6774,2.6774,2.6413,2.6052,0.0,0.0,0.0,0.0,0.0,0.0,0.0,0.0,0.0,0.0,0.0,0.0,0.0,2.174,0.0,0.0,2.2139,2.2175,2.2526,2.2561,2.2727,0.0,0.0,0.0,2.5101,2.5972,2.6707,2.7309,2.7896,2.8484,2.9001,2.9205,2.9513,2.9913,2.9913,3.0234,3.0795,3.0795,3.1129,3.1711,3.1711,3.1711,3.1711,3.1711,3.1711,3.1711,3.1711,3.2086,3.2594,2.3247,2.4263,2.5088,2.4746,2.5814,0.0,0.0,2.7122,0.0,2.8954,0.0,3.0832,3.1347,3.2004,3.2106,3.1295,0.0,3.1205,3.0152,3.0068,2.9649,2.8727,2.8311,2.7548,2.6405,2.5973,0.0,0.0,0.0,2.2496,2.1582,2.1283,2.1149,2.1136,2.1724,2.2104,2.2285,2.3362,2.4449,2.5518,2.5518,2.5865,2.6386,2.6386,2.6386,2.6386,2.6386,2.6386,2.6386,2.6386,2.6386,2.6386,2.6386,2.6386,2.64,2.644,2.6653,2.6894,2.6934,2.7148,2.7416,2.7416,2.7389,2.7362,2.7362,2.7094,2.68,2.6507,2.6252,0.0,0.0,0.0,0.0,0.0,0.0,0.0,0.0,0.0,0.0,0.0,0.0,0.0,0.0,0.0,2.2248,2.256,2.2327,0.0,0.0,0.0,0.0,2.5058,2.5702,0.0,2.7296,0.0,2.819,2.9001,2.9041,2.9335,2.9913,2.9953,3.0274,3.0795,3.0835,3.1156,3.1711,3.1711,3.1711,3.1711,3.1711,3.1711,3.1724,3.1764,3.2126,3.2594,2.419,2.5323,2.6131,2.582,2.6785,2.7811,2.8303,2.8523,2.9008,2.9994,3.1225,3.196,3.19,3.2459,3.2651,3.205,3.2047,0.0,0.0,0.0,0.0,2.9677,2.9007,2.8222,2.7301,2.6144,2.4932,0.0,0.0,0.0,2.1582,2.1529,2.1349,2.1136,2.1724,2.2539,2.3509,2.3723,0.0,2.5518,2.5518,2.5865,2.6386,2.6386,2.6386,2.6386,2.6386,2.6386,2.6386,2.6386,2.6386,2.6386,2.6386,2.6386,2.644,2.668,2.6961,2.7282,2.7482,2.7804,2.8031,2.8031,2.7844,2.7629,2.7629,2.7402,2.7108,2.6814,2.652,2.6132,2.5545,0.0,0.0,0.0,0.0,0.0,0.0,0.0,0.0,0.0,0.0,0.0,0.0,0.0,0.0,0.0,0.0,0.0,0.0,0.0,0.0,0.0,0.0,0.0,0.0,0.0,0.0,2.9001,2.9285,2.9593,2.9927,3.0167,3.0474,3.0808,3.1049,3.1343,3.1711,3.1711,3.1711,3.1711,3.1711,3.1711,3.1751,3.1944,3.2251,3.2594,2.5259,2.6331,2.7158,2.7013,2.8081,0.0,0.0,2.9809,0.0,3.0905,3.1657,3.2144,3.2093,3.2545,3.2573,3.1914,3.1992,3.1803,3.109,3.0913,3.0557,2.9926,2.9141,0.0,2.7405,2.6465,2.5398,2.4222,0.0,0.0,2.2265,2.1957,2.1729,2.159,2.2211,2.2974,2.3817,0.0,0.0,2.5518,2.5518,2.5865,2.6386,2.6386,2.6386,2.6386,2.6386,2.6386,2.6386,2.6386,2.6386,2.6386,2.6386,2.6386,2.6453,2.6734,2.7028,2.7376,2.7615,2.7951,2.8179,2.8179,2.8072,2.7965,2.7965,2.7696,2.7402,2.7108,2.6814,2.6386,2.5651,2.481,0.0,0.0,0.0,0.0,0.0,0.0,0.0,0.0,0.0,0.0,0.0,0.0,0.0,0.0,0.0,0.0,0.0,0.0,0.0,0.0,0.0,0.0,0.0,0.0,0.0,2.9001,2.9339,2.9633,2.9927,3.0266,3.056,3.0808,3.1102,3.1396,3.1711,3.1711,3.1711,3.1711,3.1711,3.1711,3.1751,3.1998,3.2291,3.2621,2.6392,2.7371,2.8195,2.8191,2.9152,2.9931,2.9855,3.078,3.1463,3.1463,3.1847,3.2135,3.2125,3.2445,3.2329,3.1585,3.1789,3.1663,3.0948,3.0675,3.0381,3.002,2.9285,2.847,2.7617,2.6907,2.5999,0.0,0.0,0.0,0.0,2.2425,2.2138,2.2098,0.0,0.0,0.0,0.0,2.477,2.5518,2.5585,2.5919,2.6386,2.6386,2.6386,2.6386,2.6386,2.6386,2.6386,2.6386,2.6386,2.6386,2.6386,2.6426,2.6533,2.6827,2.7121,2.7456,2.7709,2.8005,2.8179,2.8179,2.8179,2.8179,2.8179,2.8005,2.7709,2.7456,2.7028,2.6493,2.5745,2.5039,0.0,0.0,0.0,0.0,0.0,0.0,0.0,0.0,0.0,0.0,0.0,0.0,0.0,0.0,0.0,0.0,0.0,0.0,0.0,0.0,0.0,2.6361,2.6907,0.0,2.8217,0.0,2.9406,2.9726,3.002,3.0314,3.0608,3.0902,3.1196,3.145,3.1711,3.1711,3.1711,3.1711,3.1711,3.1711,3.1764,3.2064,3.2393,3.2648,2.7736,2.8564,2.922,0.0,0.0,0.0,3.0631,3.1035,3.1332,3.1301,3.2103,3.2464,3.1962,3.2236,3.2225,3.1725,3.1705,3.155,3.1209,3.1156,3.0902,3.0386,2.998,2.9379,2.8497,2.767,2.6613,0.0,0.0,0.0,0.0,0.0,0.0,0.0,0.0,0.0,0.0,2.4369,2.4919,2.5531,2.5837,2.6145,2.6386,2.6386,2.6386,2.6386,2.6386,2.6386,2.6386,2.6386,2.6386,2.6386,2.6386,2.6573,2.6841,2.7175,2.7428,2.7722,2.8058,2.8165,2.8179,2.8179,2.8179,2.8179,2.8179,2.8165,2.8058,2.7722,2.7001,2.6319,2.6011,2.5211,2.4586,0.0,0.0,0.0,0.0,0.0,0.0,0.0,0.0,0.0,0.0,0.0,0.0,0.0,0.0,0.0,0.0,0.0,0.0,2.5583,0.0,2.6456,2.7255,2.7844,0.0,2.9001,2.9606,3.0034,3.0373,3.0621,3.0915,3.1196,3.1503,3.1684,3.1711,3.1711,3.1711,3.1711,3.1711,3.1711,3.1791,3.234,3.2567,3.2674,0.0,0.0,0.0,0.0,0.0,0.0,0.0,3.15,3.1881,3.1571,3.2104,3.2461,3.2306,3.2454,3.2358,3.1992,3.1931,3.181,3.1517,3.133,3.1049,3.0635,3.0167,2.9499,2.8631,2.8112,2.7255,0.0,0.0,0.0,0.0,0.0,0.0,0.0,0.0,2.3901,2.4315,2.473,2.5237,2.5824,2.5944,2.6172,2.6386,2.6386,2.6493,2.6653,2.6653,2.676,2.6961,2.6961,2.668,2.6413,2.66,2.6734,2.6907,2.7388,2.7602,2.7762,2.8098,2.8179,2.8179,2.8179,2.8179,2.8179,2.8179,2.8179,2.8098,2.7762,2.7134,2.656,2.6266,2.5785,2.5251,0.0,0.0,0.0,0.0,0.0,0.0,0.0,0.0,0.0,0.0,0.0,0.0,0.0,0.0,0.0,0.0,0.0,0.0,2.5433,0.0,2.6799,2.6987,2.7949,2.8631,2.9001,2.9588,3.0074,3.0413,3.0662,3.1049,3.1503,3.1623,3.1711,3.1711,3.1711,3.1711,3.1711,3.1711,3.1711,3.1791,3.238,3.2594,3.2674,2.8909,0.0,3.0206,0.0,3.0868,3.1187,3.1212,3.1777,3.2185,3.2072,3.2387,3.2557,3.2603,3.2594,3.2514,3.2251,3.2158,3.2011,3.181,3.1517,3.1223,3.0929,3.0434,0.0,2.9005,2.8567,2.7831,2.6774,2.6346,0.0,0.0,0.0,0.0,0.0,2.4329,2.4569,2.4759,2.517,2.561,2.6011,2.6185,2.6333,2.6533,2.6613,2.6774,2.6947,2.6947,2.7094,2.7309,2.7309,2.7028,2.668,2.6881,2.7014,2.7161,2.7575,2.7762,2.7924,2.8125,2.8179,2.8179,2.8179,2.8179,2.8179,2.8179,2.8179,2.8098,2.7762,2.7375,2.6961,2.6587,2.6279,2.5825,0.0,0.0,0.0,0.0,0.0,0.0,0.0,2.3336,2.3405,2.3267,0.0,0.0,0.0,0.0,0.0,0.0,0.0,0.0,0.0,0.0,0.0,0.0,2.8056,2.8751,2.9001,2.9726,3.0194,3.0547,3.0875,3.1276,3.1711,3.1711,3.1711,3.1711,3.1711,3.1711,3.1711,3.1711,3.1711,3.1791,3.238,3.2594,3.2674,2.9872,3.0361,3.0745,3.0606,3.0817,3.1185,3.1611,3.1711,3.2032,3.2853,3.3009,3.2902,3.2621,3.2594,3.2594,3.2594,3.2278,3.2104,3.2104,3.1824,3.153,0.0,0.0,3.0501,2.9913,2.9045,2.8297,2.7682,0.0,0.0,2.5491,0.0,2.4586,2.4599,2.493,2.5077,2.5117,2.573,2.5984,2.6051,2.6587,2.6774,2.6854,2.7148,2.7296,2.7309,2.7309,2.7309,2.7309,2.7309,2.7309,2.7296,2.7296,2.7496,2.7682,2.7696,2.7951,2.8179,2.8179,2.8179,2.8179,2.8179,2.8179,2.8179,2.8179,2.8179,2.8098,2.7762,2.7696,2.7509,2.6921,2.6587,2.6186,2.5598,0.0,0.0,0.0,0.0,0.0,0.0,2.327,2.3238,2.3557,0.0,0.0,0.0,0.0,0.0,0.0,0.0,0.0,2.5676,2.661,0.0,2.7296,2.8163,2.8751,2.9001,2.994,3.0501,3.0808,3.1443,3.1711,3.1711,3.1711,3.1711,3.1711,3.1711,3.1711,3.1711,3.1711,3.1711,3.1791,3.238,3.2594,3.2674,3.0212,3.0565,3.0826,3.0985,3.1281,3.1598,3.1938,3.2305,3.2714,3.2946,3.3146,3.324,3.3146,3.3133,3.3053,0.0,3.2621,3.2318,0.0,3.1837,3.153,3.1189,3.1129,3.0715,2.994,2.9646,2.9112,2.831,0.0,0.0,0.0,2.5718,2.5424,2.5237,2.5331,2.5598,2.5985,2.6172,2.6519,2.6907,2.7095,2.7121,2.7134,2.7269,2.7429,2.7562,2.7562,2.7737,2.7911,2.7911,2.7911,2.7911,2.7911,2.7831,2.7736,2.7978,2.8112,2.8179,2.8179,2.8179,2.8179,2.8179,2.8179,2.8179,2.8179,2.8179,2.8165,2.8058,2.7843,2.7589,2.7188,2.6881,2.6426,2.5638,0.0,0.0,0.0,0.0,0.0,0.0,0.0,2.3767,0.0,2.3925,0.0,0.0,0.0,0.0,0.0,0.0,0.0,0.0,2.7125,0.0,2.7549,2.8457,2.9045,2.9352,3.0079,3.0667,3.1102,3.149,3.1711,3.1711,3.1711,3.1711,3.1711,3.1711,3.1711,3.1711,3.1711,3.1711,3.1791,3.238,3.2594,3.2674,3.0533,3.0755,3.1049,3.1343,3.1637,3.1971,3.2372,3.2746,3.3013,3.3133,3.3293,3.3414,3.3414,3.3414,0.0,3.316,3.2822,3.2514,3.2278,3.1938,3.1583,3.1396,3.1289,3.0969,3.0421,0.0,0.0,2.9098,2.85,2.775,2.6867,2.6626,2.6386,2.6172,2.6172,2.6373,2.676,2.676,2.6974,2.7322,2.7429,2.7469,2.7483,2.759,2.7776,2.8043,2.8043,2.823,2.8484,2.8484,2.8484,2.8484,2.8484,2.835,2.819,2.8192,2.8179,2.8179,2.8179,2.8272,2.8366,2.8366,2.8446,2.8484,2.8484,2.8433,2.8366,2.8366,2.8112,2.7817,2.7482,2.7188,2.6707,2.5825,0.0,2.5144,0.0,0.0,0.0,0.0,0.0,0.0,0.0,2.4528,0.0,0.0,0.0,0.0,0.0,0.0,0.0,2.6354,2.7418,0.0,2.7898,2.8644,2.9202,2.9659,3.0354,3.0929,3.1396,3.1583,3.1711,3.1711,3.1711,3.1711,3.1711,3.1711,3.1711,3.1711,3.1711,3.1711,3.1778,3.226,3.25,3.2661,3.0849,3.1089,0.0,0.0,3.1957,0.0,3.2893,3.3,3.3106,3.3374,3.3414,3.3414,3.3414,3.3414,3.3414,3.3414,0.0,0.0,0.0,3.2045,3.1711,3.1711,3.1396,3.1203,3.1176,3.0421,2.998,2.9913,2.8834,2.8112,2.7762,2.7523,2.7389,2.7362,2.7362,2.7376,2.7403,2.7403,2.7416,2.7456,2.7682,2.7789,2.7816,2.8138,2.8433,2.8631,2.8631,2.8804,2.9001,2.9001,2.9001,2.9001,2.9001,2.9001,2.8881,2.8406,2.8245,2.8245,2.8245,2.846,2.8631,2.8631,2.8801,2.9001,2.9001,2.8831,2.8631,2.8631,2.839,2.8125,2.7789,2.7523,2.7028,2.6172,2.5718,2.5211,2.4356,0.0,0.0,0.0,0.0,0.0,0.0,2.5317,2.5588,0.0,0.0,0.0,0.0,0.0,2.6986,2.6665,2.7599,2.8139,2.8205,2.8791,2.9362,3.002,3.0789,3.1383,3.1711,3.1711,3.1711,3.1711,3.1711,3.1711,3.1711,3.1711,3.1711,3.1711,3.1711,3.1711,3.1751,3.1998,3.2291,3.2634,0.0,0.0,3.1917,3.1984,3.2425,3.2812,3.2959,3.316,3.3334,3.34,3.3414,3.3414,3.3414,3.3414,3.3414,3.3414,3.2929,3.2594,3.2594,3.2045,3.1711,3.1711,3.1597,3.1463,3.1236,3.1022,3.0595,2.9913,2.9419,2.8898,2.839,2.8323,2.8163,2.7978,2.7978,2.8112,2.8283,2.8283,2.8417,2.8588,2.8655,2.8681,2.8681,2.8761,2.8828,2.8895,2.8895,2.8935,2.9001,2.9001,2.9001,2.9001,2.9001,2.9001,2.8961,2.8871,2.8831,2.8831,2.8831,2.8841,2.8895,2.8895,2.8948,2.9001,2.9001,2.8948,2.8895,2.8895,2.8698,2.8404,2.8138,2.7657,2.7095,2.64,2.5852,2.5277,2.4586,0.0,0.0,0.0,2.4573,2.5003,2.5598,2.6018,2.6486,0.0,0.0,0.0,0.0,0.0,2.812,2.7371,2.8517,2.8924,2.8497,2.9299,3.0069,3.0869,3.1082,3.1383,3.1711,3.1711,3.1711,3.1711,3.1711,3.1711,3.1711,3.1711,3.1711,3.1711,3.1711,3.1711,3.1751,3.1998,3.2291,3.2634,3.181,3.1998,3.2185,3.2452,3.2772,3.3026,3.316,3.3307,3.3414,3.3414,3.3414,3.3414,3.3414,3.3414,3.3414,3.3414,3.3,3.2741,3.2607,3.2166,3.181,3.1724,3.1711,3.1597,3.1436,3.1289,3.0929,3.0314,2.9887,2.9513,2.9205,2.8925,2.8711,2.8551,2.8551,2.8644,2.8761,2.8761,2.8855,2.9001,2.9001,2.9001,2.9001,2.9001,2.9081,2.9245,2.9245,2.9325,2.9402,2.9402,2.9402,2.9402,2.9402,2.9402,2.9402,2.9402,2.9202,2.9001,2.9001,2.9095,2.9272,2.9362,2.9402,2.9402,2.9402,2.9339,2.9245,2.9245,2.8898,2.8564,2.8433,2.7804,2.7162,2.6667,2.5985,2.5358,2.4903,2.4703,0.0,2.4916,2.5413,2.5932,2.652,2.7069,2.7539,2.7891,0.0,0.0,2.8842,2.9442,2.9304,2.8291,2.9061,2.9352,2.9005,2.9873,3.0621,3.1176,3.1356,3.1517,3.1711,3.1711,3.1711,3.1711,3.1711,3.1711,3.1711,3.1711,3.1711,3.1711,3.1711,3.1711,3.1738,3.1851,3.2316,3.2949,3.2104,3.2211,3.2385,3.2893,3.3013,3.3133,3.3374,3.3414,3.3414,3.3414,3.3414,3.3414,3.3414,3.3414,3.3414,3.3414,3.3187,3.2955,3.2621,3.2265,3.1971,3.1724,3.1711,3.1711,3.1711,3.1383,3.1102,3.0862,3.0314,3.0047,3.0034,2.9495,2.9242,2.9188,2.9188,2.9175,2.9121,2.9121,2.9121,2.9121,2.9121,2.9121,2.9121,2.9121,2.9325,2.9553,2.9553,2.9713,2.9913,2.9913,2.9913,2.9913,2.9913,2.9913,2.9913,2.9913,2.9522,2.9121,2.9121,2.9352,2.9606,2.986,2.9913,2.9913,2.9913,2.9726,2.9553,2.9553,2.9112,2.8724,2.8684,2.7976,2.7322,2.7028,2.6264,2.5659,2.544,0.0,2.5496,2.59,2.6474,2.705,2.7545,2.8187,2.8554,2.8613,2.9193,0.0,0.0,3.0422,3.0401,2.9411,2.9607,2.9724,2.9717,3.0461,3.1009,3.1289,3.1543,3.1711,3.1711,3.1711,3.1711,3.1711,3.1711,3.1711,3.1711,3.1711,3.1711,3.1711,3.1711,3.1758,3.1806,3.1806,3.2469,3.3408,3.2474,3.2728,3.2866,3.2959,3.3187,3.336,3.34,3.3414,3.3414,3.3414,3.3414,3.3414,3.3414,3.3414,3.3414,3.3414,3.3374,3.312,3.2634,3.2265,3.1971,3.1724,3.1711,3.1711,3.1711,3.1383,3.1162,3.1156,3.0822,3.0662,3.0648,3.0568,3.0394,3.0199,3.0199,3.002,2.978,2.978,2.978,2.978,2.978,2.978,2.978,2.978,2.9806,2.9847,2.9847,2.9873,2.9913,2.9913,2.9913,2.9913,2.9913,2.9913,2.9913,2.9913,2.9847,2.978,2.978,2.982,2.986,2.99,2.9913,2.9913,2.9913,2.9887,2.9847,2.9847,2.9579,2.9272,2.8975,2.8444,2.7996,2.7785,2.7186,2.6785,0.0,0.0,2.6676,2.7018,2.7395,2.7868,2.8529,2.8971,2.9339,2.9657,3.0024,3.0361,3.0583,3.1007,3.1206,3.1195,3.0847,3.0663,3.0581,3.0969,3.1303,3.1597,3.1698,3.1711,3.1711,3.1711,3.1711,3.1711,3.1711,3.1711,3.1711,3.1711,3.1711,3.1711,3.1711,3.1948,3.228,3.228,3.2982,3.399,3.2741,3.2942,3.3026,3.3187,3.332,3.3414,3.3414,3.3414,3.3414,3.3414,3.3414,3.3414,3.3414,3.3414,3.3414,3.3414,3.3414,3.3227,3.2848,3.2554,3.2211,3.1917,3.1805,3.1711,3.1711,3.153,3.1463,3.1463,3.1169,3.1022,3.1022,3.0862,3.0715,3.0641,3.0641,3.0515,3.0381,3.0381,3.0381,3.0381,3.0381,3.0381,3.0381,3.0381,3.0381,3.0381,3.0381,3.0381,3.0381,3.0381,3.0381,3.0381,3.0381,3.0381,3.0381,3.0381,3.0167,2.9953,3.0114,3.0154,3.0194,3.0354,3.0381,3.0381,3.0381,3.0381,3.0341,3.0194,2.9927,2.9633,2.9325,2.8872,2.8476,2.8413,2.7973,0.0,0.0,2.7642,2.7678,2.8068,2.8396,2.8827,2.9584,2.9975,3.029,3.0612,3.0949,3.1198,3.1344,3.1666,3.183,3.1825,3.1554,3.1541,3.1797,3.1948,3.2167,3.2516,3.2516,3.2516,3.2516,3.2516,3.2516,3.2516,3.2516,3.2516,3.2516,3.2516,3.2516,3.2516,3.2516,3.2658,3.2833,3.2833,3.3555,3.4522,3.2973,3.308,3.3146,3.3374,3.3414,3.3414,3.3414,3.3414,3.3414,3.3414,3.3414,3.3414,3.3414,3.3414,3.3414,3.3414,3.3414,3.332,3.3093,3.2862,3.2541,3.2118,3.1824,3.1711,3.1711,3.1711,3.1711,3.1711,3.1436,3.133,3.133,3.1102,3.0955,3.0889,3.0889,3.0862,3.0795,3.0795,3.0795,3.0795,3.0795,3.0795,3.0795,3.0795,3.0795,3.0795,3.0795,3.0795,3.0795,3.0795,3.0795,3.0795,3.0795,3.0795,3.0795,3.0795,3.0474,3.0167,3.0394,3.0507,3.056,3.0742,3.0795,3.0795,3.0795,3.0795,3.0728,3.056,3.0311,3.0106,2.981,2.9485,2.9239,2.9159,0.0,0.0,0.0,2.8679,2.883,2.9238,2.9526,2.9965,3.0656,3.0905,3.1154,3.1402,3.1798,3.2017,3.2017,3.2398,3.2586,3.2504,3.2192,3.2225,3.2701,3.2785,3.2939,3.3224,3.3224,3.3224,3.3224,3.3224,3.3224,3.3224,3.3224,3.3224,3.3224,3.3224,3.3224,3.3224,3.3224,3.3257,3.3351,3.3351,3.4079,3.5116,3.332,3.3374,3.3387,3.3414,3.3414,3.3414,3.3414,3.3414,3.3414,3.3414,3.3414,3.3414,3.3414,3.3414,3.3414,3.3414,3.3414,3.34,3.3387,3.3106,3.2692,3.2131,3.1824,3.1711,3.1711,3.1711,3.1711,3.1711,3.1698,3.1684,3.1684,3.1657,3.1463,3.1196,3.1196,3.1049,3.0795,3.0795,3.0795,3.0795,3.0795,3.0795,3.0795,3.0795,3.0795,3.0795,3.0795,3.0795,3.0795,3.0795,3.0795,3.0795,3.0795,3.0795,3.0795,3.0795,3.0768,3.0728,3.0755,3.0755,3.0768,3.0795,3.0795,3.0795,3.0795,3.0795,3.0782,3.0768,3.0894,3.0899,3.0598,3.0654,3.0619,3.0196,0.0,0.0,2.9789,3.0045,3.0352,3.0603,3.0924,3.1287,3.1666,3.171,3.1739,3.1754,3.2339,3.2749,3.2749,3.329,3.3727,3.4003,3.3094,3.2659,3.2701,3.2995,3.3196,3.3224,3.3224,3.3224,3.3224,3.3224,3.3224,3.3224,3.3224,3.3224,3.3224,3.3224,3.3224,3.3224,3.3224,3.3445,3.3869,3.3869,3.4601,3.5646,3.336,3.3414,3.3414,3.3414,3.3414,3.3414,3.3414,3.3414,3.3414,3.3414,3.3414,3.3414,3.3414,3.3414,3.3414,3.3414,3.3414,3.3414,3.3414,3.3146,3.2719,3.2131,3.1824,3.1711,3.1711,3.1711,3.1711,3.1711,3.1711,3.1711,3.1711,3.1711,3.161,3.1503,3.1503,3.1436,3.1343,3.1343,3.1343,3.1343,3.1343,3.1343,3.1343,3.1343,3.1343,3.1343,3.1343,3.1343,3.1343,3.1343,3.1343,3.1343,3.1343,3.1343,3.1343,3.1343,3.1343,3.1423,3.1705,3.143,3.1102,3.1289,3.1343,3.1343,3.1343,3.1564,3.1744,3.1568,3.1849,3.1992,3.1732,3.1631,3.1534,3.1352,0.0,3.1175,3.1095,3.1168,3.13,3.1417,3.1534,3.1956,3.279,3.2834,3.3129,3.3886,3.4141,3.4292,3.4292,3.4683,3.4983,3.5119,3.4944,3.4583,3.3945,3.4075,3.4132,3.4132,3.4132,3.4132,3.4132,3.4132,3.4132,3.4132,3.4132,3.4132,3.4132,3.4132,3.4132,3.4132,3.4132,3.4226,3.4414,3.4414,3.5137,3.6127,3.3374,3.3414,3.3414,3.3414,3.3414,3.3414,3.3414,3.3414,3.3414,3.3414,3.3414,3.3414,3.3414,3.3414,3.3414,3.3414,3.3414,3.3414,3.3414,3.3146,3.2759,3.2265,3.1957,3.181,3.181,3.1764,3.1711,3.1711,3.1711,3.1711,3.1711,3.1711,3.1711,3.1711,3.1711,3.1711,3.1711,3.1711,3.1711,3.1711,3.1711,3.1711,3.1711,3.1711,3.1711,3.1711,3.1711,3.1806,3.1901,3.1901,3.2043,3.2185,3.2185,3.2185,3.2185,3.2185,3.2185,3.2232,3.255,3.2271,3.188,3.2131,3.2185,3.2185,3.2185,3.2421,3.2589,3.2382,3.2692,3.2891,3.2725,3.2622,3.2505,3.239,3.2237,3.2076,3.1959,3.2161,3.2321,3.2321,3.2672,3.3188,3.3946,3.4035,3.4365,3.512,3.5303,3.541,3.5517,3.5746,3.5868,3.5868,3.6097,3.5847,3.5163,3.5023,3.4835,3.471,3.471,3.4803,3.4929,3.4929,3.5023,3.5163,3.4976,3.4929,3.4929,3.4756,3.471,3.471,3.471,3.4789,3.4929,3.4929,3.5658,3.6654,3.3414,3.3414,3.3414,3.3414,3.3414,3.3414,3.3414,3.3414,3.3414,3.3414,3.3414,3.3414,3.3414,3.3414,3.3414,3.3414,3.3414,3.3414,3.3414,3.3146,3.2902,3.2607,3.2265,3.2104,3.2104,3.1824,3.1724,3.1724,3.1724,3.1724,3.1711,3.1711,3.1711,3.1711,3.1711,3.1711,3.1711,3.1711,3.1724,3.1724,3.1724,3.1724,3.1724,3.1724,3.1724,3.1724,3.1724,3.1995,3.2421,3.2421,3.2752,3.3224,3.3224,3.3224,3.3224,3.3224,3.3224,3.3224,3.3224,3.3224,3.3224,3.3224,3.3224,3.3224,3.3224,3.3224,3.3224,3.3224,3.336,3.3486,3.3486,3.3642,3.3581,3.326,3.2983,3.2705,3.2383,3.3012,3.3529,3.3529,3.4486,3.5196,3.5211,3.5211,3.5211,3.5211,3.5517,3.5853,3.6204,3.622,3.622,3.622,3.622,3.622,3.622,3.5693,3.5195,3.471,3.471,3.4976,3.5413,3.5413,3.5693,3.6173,3.5646,3.5413,3.5366,3.4882,3.471,3.471,3.471,3.5023,3.5413,3.5413,3.6177,3.718,3.3414,3.3414,3.3414,3.3414,3.3414,3.3414,3.3414,3.3414,3.3414,3.3414,3.3414,3.3414,3.3414,3.3414,3.3414,3.3414,3.3414,3.3414,3.3414,3.3334,3.324,3.316,3.2679,3.246,3.246,3.238,3.2233,3.1971,3.1971,3.1864,3.1711,3.1711,3.1711,3.1711,3.1711,3.1711,3.1711,3.2043,3.2185,3.2232,3.2611,3.2752,3.2752,3.2752,3.2752,3.2752,3.2752,3.2847,3.2974,3.2974,3.3083,3.3224,3.3224,3.3224,3.3224,3.3224,3.3224,3.3257,3.3587,3.3681,3.3587,3.3257,3.3224,3.3224,3.3224,3.3445,3.3681,3.3681,3.4046,3.433,3.433,3.4193,3.4128,3.4422,3.42,3.4083,3.4276,3.4531,3.4681,3.4681,3.4999,3.5423,3.5987,3.6064,3.643,3.7383,3.7845,3.8124,3.8237,3.8237,3.8237,3.8237,3.7931,3.7578,3.7255,3.6405,3.5894,3.5754,3.5754,3.5847,3.5987,3.5987,3.6034,3.6173,3.6034,3.5987,3.5941,3.5801,3.5754,3.5754,3.5754,3.5847,3.5987,3.5987,3.6741,3.7768,3.3414,3.3414,3.3414,3.3414,3.3414,3.3414,3.3414,3.3414,3.3414,3.3414,3.3414,3.3414,3.3414,3.3414,3.3414,3.3414,3.3414,3.3414,3.3414,3.3414,3.3414,3.3414,3.308,3.2888,3.2768,3.2648,3.25,3.2278,3.2278,3.2185,3.2059,3.2129,3.2171,3.2171,3.2239,3.228,3.2327,3.2611,3.2691,3.2738,3.3083,3.3224,3.3224,3.3224,3.3224,3.3224,3.3224,3.3304,3.3493,3.3493,3.3601,3.3789,3.3789,3.3789,3.3789,3.3789,3.3789,3.3836,3.4118,3.4298,3.4385,3.4352,3.4163,3.3974,3.3974,3.4311,3.4667,3.4857,3.5155,3.5409,3.5479,3.5333,3.5247,3.5421,3.5181,3.5061,3.5364,3.5546,3.5773,3.5954,3.626,3.6735,3.7397,3.7474,3.7783,3.8621,3.8942,3.9125,3.9125,3.9125,3.9125,3.9125,3.8804,3.8545,3.8254,3.7655,3.6962,3.622,3.622,3.6312,3.6498,3.6498,3.6591,3.6776,3.6591,3.6498,3.6452,3.6266,3.622,3.622,3.622,3.6312,3.6498,3.6498,3.7258,3.8387,3.3414,3.3414,3.3414,3.3414,3.3414,3.3414,3.3414,3.3414,3.3414,3.3414,3.3414,3.3414,3.3414,3.3414,3.3414,3.3414,3.3414,3.3414,3.3414,3.3414,3.3414,3.3414,3.3414,3.3293,3.3125,3.2808,3.2661,3.2732,3.2732,3.2718,3.274,3.2941,3.2983,3.3003,3.3155,3.3238,3.3224,3.3257,3.3257,3.3257,3.3318,3.3318,3.3318,3.3318,3.3318,3.3365,3.3365,3.3681,3.4056,3.4103,3.4446,3.485,3.485,3.485,3.485,3.485,3.485,3.485,3.4879,3.5085,3.5448,3.5966,3.5744,3.5441,3.5379,3.5585,3.5983,3.6367,3.6463,3.6501,3.6736,3.6692,3.6617,3.6358,3.6067,3.5899,3.5945,3.6357,3.6813,3.7331,3.803,3.8637,3.9079,3.9125,3.9171,3.9171,3.9217,3.9217,3.9217,3.9217,3.9217,3.9217,3.9217,3.9171,3.9171,3.9125,3.8191,3.6452,3.6452,3.6684,3.71,3.71,3.7332,3.7717,3.7239,3.7008,3.6962,3.6498,3.6312,3.6359,3.6359,3.6637,3.7054,3.71,3.7877,3.9021,3.3414,3.3414,3.3414,3.3414,3.3414,3.3414,3.3414,3.3414,3.3414,3.3414,3.3414,3.3414,3.3414,3.3414,3.3414,3.3414,3.3414,3.3414,3.3414,3.3414,3.3414,3.3414,3.3414,3.3574,3.3919,3.3453,3.3305,3.3519,3.3519,3.3592,3.3796,3.3823,3.3719,3.3543,3.3569,3.3448,3.321,3.3587,3.3728,3.3775,3.4226,3.4367,3.4367,3.4367,3.4367,3.4414,3.4806,3.4993,3.5133,3.5553,3.5801,3.5847,3.5847,3.5847,3.5847,3.5847,3.5847,3.5908,3.6227,3.6348,3.6454,3.687,3.7032,3.7073,3.68,3.68,3.6894,3.6989,3.7037,3.7022,3.7089,3.686,3.6803,3.7102,3.7226,3.7406,3.7743,3.8232,3.8536,3.869,3.8847,3.8988,3.9079,3.9508,3.9736,3.9736,4.0084,4.0266,4.0266,4.0266,4.0266,4.0266,3.9918,3.9736,3.9736,3.9308,3.888,3.8467,3.8467,3.8513,3.8621,3.8621,3.8483,3.8224,3.8132,3.7855,3.7532,3.744,3.7394,3.7394,3.7763,3.7993,3.8132,3.8483,3.8988,3.9629,3.3414,3.3414,3.3414,3.3414,3.3414,3.3414,3.3414,3.3414,3.3414,3.3414,3.3414,3.3414,3.3414,3.3414,3.3414,3.3414,3.3414,3.3414,3.3414,3.3414,3.3514,3.3764,3.3764,3.4014,3.4563,3.4313,3.4231,3.4377,3.4377,3.4442,3.4521,3.4625,3.4616,3.4446,3.4436,3.4302,3.4178,3.449,3.4619,3.4666,3.5195,3.5443,3.5443,3.5443,3.5443,3.5443,3.5708,3.5786,3.5832,3.6127,3.622,3.622,3.622,3.622,3.622,3.622,3.6327,3.6495,3.6631,3.6921,3.7307,3.7715,3.8249,3.8419,3.7597,3.7547,3.7766,3.8007,3.8249,3.8428,3.8511,3.8609,3.8608,3.8524,3.8594,3.8648,3.8745,3.8942,3.9217,3.9445,3.9508,3.9582,3.981,4.0084,4.0237,4.0237,4.0447,4.0583,4.0583,4.0583,4.0583,4.0583,4.0373,4.0237,4.0237,3.9947,3.981,3.981,3.9354,3.9125,3.9125,3.9125,3.8988,3.8729,3.8729,3.8575,3.8345,3.8345,3.8345,3.8391,3.8621,3.8729,3.8759,3.9034,3.9494,4.0124,3.3494,3.3534,3.3561,3.3561,3.3561,3.3561,3.3561,3.3561,3.3547,3.3494,3.3494,3.3494,3.3494,3.3534,3.3547,3.3494,3.3494,3.3517,3.3514,3.3564,3.3764,3.4313,3.4363,3.4612,3.511,3.516,3.516,3.516,3.516,3.516,3.5295,3.5533,3.5635,3.5597,3.5606,3.5581,3.5554,3.559,3.5643,3.5643,3.6049,3.6266,3.6312,3.6312,3.6359,3.6452,3.6529,3.6637,3.6684,3.6684,3.6684,3.6684,3.6684,3.6684,3.6684,3.6792,3.6978,3.7225,3.7381,3.783,3.8328,3.8858,3.9481,3.9673,3.8565,3.8526,3.8889,3.9313,3.9703,4.0013,4.0205,4.0522,4.0609,3.9967,3.9862,3.971,3.9349,3.9341,3.9537,3.9964,4.0009,4.0192,4.0538,4.0583,4.0583,4.0583,4.0674,4.072,4.072,4.081,4.0856,4.0856,4.0765,4.072,4.072,4.0629,4.0583,4.0583,3.9765,3.9354,3.9354,3.9354,3.9308,3.9262,3.9262,3.9171,3.9125,3.9125,3.9125,3.9125,3.9217,3.9262,3.9262,3.9354,3.9812,4.0545,3.3828,3.4028,3.4202,3.4202,3.4202,3.4202,3.4202,3.4202,3.4108,3.3855,3.3828,3.3828,3.3828,3.4042,3.4095,3.3841,3.3828,3.391,3.4077,3.4114,3.4313,3.4862,3.4911,3.516,3.5706,3.5706,3.5706,3.5706,3.5706,3.5954,3.64,3.6913,3.6981,3.6699,3.7157,3.7202,3.6898,3.6659,3.6506,3.6491,3.6295,3.6452,3.6823,3.6823,3.7039,3.7485,3.7961,3.8375,3.8713,3.8713,3.8713,3.8713,3.8713,3.8713,3.8762,3.9135,3.9266,3.9446,4.0067,4.0296,4.0459,4.0818,4.0981,4.1063,4.0868,4.0836,4.0917,4.0966,4.1014,4.1094,4.111,4.0926,4.0774,4.0675,4.0457,4.0302,4.0234,4.0332,4.0402,4.0493,4.0493,4.0538,4.0583,4.0583,4.0583,4.0583,4.1009,4.119,4.119,4.1579,4.1804,4.1804,4.1416,4.119,4.119,4.081,4.0583,4.0583,4.0447,4.0402,4.0402,4.0402,4.0175,3.9781,3.9781,3.9553,3.9125,3.9125,3.9125,3.9171,3.9599,3.9781,3.9827,4.0266,4.0481,4.0629,3.4122,3.4229,3.4322,3.4322,3.4322,3.4322,3.4322,3.4322,3.4269,3.4148,3.4122,3.4122,3.4122,3.4242,3.4371,3.4531,3.4568,3.4768,3.5189,3.5226,3.5428,3.5983,3.5813,3.5977,3.6527,3.665,3.6696,3.6696,3.6696,3.6809,3.7056,3.7598,3.7768,3.7617,3.7679,3.7801,3.792,3.785,3.7993,3.8245,3.8177,3.8282,3.8435,3.8226,3.8421,3.8909,3.9429,3.9748,3.9901,3.9611,3.9474,3.9474,3.9154,3.9257,3.9472,3.9637,3.9967,4.041,4.0724,4.0956,4.1106,4.1271,4.1546,4.1739,4.1739,4.1931,4.1979,4.1417,4.1546,4.1739,4.1739,4.1845,4.1868,4.1649,4.1348,4.114,4.1212,4.1097,4.1082,4.1353,4.1127,4.0991,4.0991,4.0765,4.072,4.0946,4.119,4.1416,4.1669,4.1894,4.1984,4.1984,4.1804,4.1669,4.1669,4.1218,4.0991,4.0991,4.072,4.0583,4.0583,4.0583,4.0493,4.0282,4.0282,4.0175,3.9947,3.9947,3.9947,3.9947,4.0175,4.0282,4.0328,4.0538,4.0583,4.0635]},{"header":{"parameterUnit":"m.s-1","parameterCategory":1,"la1":30.6,"la2":28.766,"lo1":-90.7593,"lo2":-88.6598,"dy":0.0162,"dx":0.0183,"nx":116,"ny":114,"refTime":"2023-04-08T12:00:00:Z","depth":0,"parameterNumber":3,"parameterNumberName":"V-component_of_WINDS"},"data":[0.0,0.0,0.0,0.0,0.0,0.0,0.0,0.0,0.0,0.0,0.0,0.0,0.0,0.0,0.0,0.0,0.0,0.0,0.0,0.0,0.0,0.0,0.0,0.0,0.0,0.0,0.0,0.0,0.0,0.0,0.0,0.0,0.0,0.0,0.0,0.0,0.0,0.0,0.0,0.0,0.0,0.0,0.0,0.0,0.0,0.0,0.0,0.0,0.0,0.0,0.0,0.0,0.0,0.0,0.0,0.0,0.0,0.0,0.0,0.0,0.0,0.0,0.0,0.0,0.0,0.0,0.0,0.0,0.0,0.0,0.0,0.0,0.0,0.0,0.0,0.0,0.0,0.0,0.0,0.0,0.0,0.0,0.0,0.0,0.0,0.0,0.0,0.0,0.0,0.0,0.0,0.0,0.0,0.0,0.0,0.0,0.0,0.0,0.0,0.0,0.0,0.0,0.0,0.0,0.0,0.0,0.0,0.0,0.0,0.0,0.0,0.0,0.0,0.0,0.0,0.0,0.0,0.0,0.0,0.0,0.0,0.0,0.0,0.0,0.0,0.0,0.0,0.0,0.0,0.0,0.0,0.0,0.0,0.0,0.0,0.0,0.0,0.0,0.0,0.0,0.0,0.0,0.0,0.0,0.0,0.0,0.0,0.0,0.0,0.0,0.0,0.0,0.0,0.0,0.0,0.0,0.0,0.0,0.0,0.0,0.0,0.0,0.0,0.0,0.0,0.0,0.0,0.0,0.0,0.0,0.0,0.0,0.0,0.0,0.0,0.0,0.0,0.0,0.0,0.0,0.0,0.0,0.0,0.0,0.0,0.0,0.0,0.0,0.0,0.0,0.0,0.0,0.0,0.0,0.0,0.0,0.0,0.0,0.0,0.0,0.0,0.0,0.0,0.0,0.0,0.0,0.0,0.0,0.0,0.0,0.0,0.0,0.0,0.0,0.0,0.0,0.0,0.0,0.0,0.0,0.0,0.0,0.0,0.0,0.0,0.0,0.0,0.0,0.0,0.0,0.0,0.0,0.0,0.0,0.0,0.0,0.0,0.0,0.0,0.0,0.0,0.0,0.0,0.0,0.0,0.0,0.0,0.0,0.0,0.0,0.0,0.0,0.0,0.0,0.0,0.0,0.0,0.0,0.0,0.0,0.0,0.0,0.0,0.0,0.0,0.0,0.0,0.0,0.0,0.0,0.0,0.0,0.0,0.0,0.0,0.0,0.0,0.0,0.0,0.0,0.0,0.0,0.0,0.0,0.0,0.0,0.0,0.0,0.0,0.0,0.0,0.0,0.0,0.0,0.0,0.0,0.0,0.0,0.0,0.0,0.0,0.0,0.0,0.0,0.0,0.0,0.0,0.0,0.0,0.0,0.0,0.0,0.0,0.0,0.0,0.0,0.0,0.0,0.0,0.0,0.0,0.0,0.0,0.0,0.0,0.0,0.0,0.0,0.0,0.0,0.0,0.0,0.0,0.0,0.0,0.0,0.0,0.0,0.0,0.0,0.0,0.0,0.0,0.0,0.0,0.0,0.0,0.0,0.0,0.0,0.0,0.0,0.0,0.0,0.0,0.0,0.0,0.0,0.0,0.0,0.0,0.0,0.0,0.0,0.0,0.0,0.0,0.0,0.0,0.0,0.0,0.0,0.0,0.0,0.0,0.0,0.0,0.0,0.0,0.0,0.0,0.0,0.0,0.0,0.0,0.0,0.0,0.0,0.0,0.0,0.0,0.0,0.0,0.0,0.0,0.0,0.0,0.0,0.0,0.0,0.0,0.0,0.0,0.0,0.0,0.0,0.0,0.0,0.0,0.0,0.0,0.0,0.0,0.0,0.0,0.0,0.0,0.0,0.0,0.0,0.0,0.0,0.0,0.0,0.0,0.0,0.0,0.0,0.0,0.0,0.0,0.0,0.0,0.0,0.0,0.0,0.0,0.0,0.0,0.0,0.0,0.0,0.0,0.0,0.0,0.0,0.0,0.0,0.0,0.0,0.0,0.0,0.0,0.0,0.0,0.0,0.0,0.0,0.0,0.0,0.0,0.0,0.0,0.0,0.0,0.0,0.0,0.0,0.0,0.0,0.0,0.0,0.0,0.0,0.0,0.0,0.0,0.0,0.0,0.0,0.0,0.0,0.0,0.0,0.0,0.0,0.0,0.0,0.0,0.0,0.0,0.0,0.0,0.0,0.0,0.0,0.0,0.0,0.0,0.0,0.0,0.0,0.0,0.0,0.0,0.0,0.0,0.0,0.0,0.0,0.0,0.0,0.0,0.0,0.0,0.0,0.0,0.0,0.0,0.0,0.0,0.0,0.0,0.0,0.0,0.0,0.0,0.0,0.0,0.0,0.0,0.0,0.0,0.0,0.0,0.0,0.0,0.0,0.0,0.0,0.0,0.0,0.0,0.0,0.0,0.0,0.0,0.0,0.0,0.0,0.0,0.0,0.0,0.0,0.0,0.0,0.0,0.0,0.0,0.0,0.0,0.0,0.0,0.0,0.0,0.0,0.0,0.0,0.0,0.0,0.0,0.0,0.0,0.0,0.0,0.0,0.0,0.0,0.0,0.0,0.0,0.0,0.0,0.0,0.0,0.0,0.0,0.0,0.0,0.0,0.0,0.0,0.0,0.0,0.0,0.0,0.0,0.0,0.0,0.0,0.0,0.0,0.0,0.0,0.0,0.0,0.0,0.0,0.0,0.0,0.0,0.0,0.0,0.0,0.0,0.0,0.0,0.0,0.0,0.0,0.0,0.0,0.0,0.0,0.0,0.0,0.0,0.0,0.0,0.0,0.0,0.0,0.0,0.0,0.0,0.0,0.0,0.0,0.0,0.0,0.0,0.0,0.0,0.0,0.0,0.0,0.0,0.0,0.0,0.0,0.0,0.0,0.0,0.0,0.0,0.0,0.0,0.0,0.0,0.0,0.0,0.0,0.0,0.0,0.0,0.0,0.0,0.0,0.0,0.0,0.0,0.0,0.0,0.0,0.0,0.0,0.0,0.0,0.0,0.0,0.0,0.0,0.0,0.0,0.0,0.0,0.0,0.0,0.0,0.0,0.0,0.0,0.0,0.0,0.0,0.0,0.0,0.0,0.0,0.0,0.0,0.0,0.0,0.0,0.0,0.0,0.0,0.0,0.0,0.0,0.0,0.0,0.0,0.0,0.0,0.0,0.0,0.0,0.0,0.0,0.0,0.0,0.0,0.0,0.0,0.0,0.0,0.0,0.0,0.0,0.0,0.0,0.0,0.0,0.0,0.0,0.0,0.0,0.0,0.0,0.0,0.0,0.0,0.0,0.0,0.0,0.0,0.0,0.0,0.0,0.0,0.0,0.0,0.0,0.0,0.0,0.0,0.0,0.0,0.0,0.0,0.0,0.0,0.0,0.0,0.0,0.0,0.0,0.0,0.0,0.0,0.0,0.0,0.0,0.0,0.0,0.0,0.0,0.0,0.0,0.0,0.0,0.0,0.0,0.0,0.0,0.0,0.0,0.0,0.0,0.0,0.0,0.0,0.0,0.0,0.0,0.0,0.0,0.0,0.0,0.0,0.0,0.0,0.0,0.0,0.0,0.0,0.0,0.0,0.0,0.0,0.0,0.0,0.0,0.0,0.0,0.0,0.0,0.0,0.0,0.0,0.0,0.0,0.0,0.0,0.0,0.0,0.0,0.0,0.0,0.0,0.0,0.0,0.0,0.0,0.0,0.0,0.0,0.0,0.0,0.0,0.0,0.0,0.0,0.0,0.0,0.0,0.0,0.0,0.0,0.0,0.0,0.0,0.0,0.0,0.0,0.0,0.0,0.0,0.0,0.0,0.0,0.0,0.0,0.0,0.0,0.0,0.0,0.0,0.0,0.0,0.0,0.0,0.0,0.0,0.0,0.0,0.0,0.0,0.0,0.0,0.0,0.0,0.0,0.0,0.0,0.0,0.0,0.0,0.0,0.0,0.0,0.0,0.0,0.0,0.0,0.0,0.0,0.0,0.0,0.0,0.0,0.0,0.0,0.0,0.0,0.0,0.0,0.0,0.0,0.0,0.0,0.0,0.0,0.0,0.0,0.0,0.0,0.0,0.0,0.0,0.0,0.0,0.0,0.0,0.0,0.0,0.0,0.0,0.0,0.0,0.0,0.0,0.0,0.0,0.0,0.0,0.0,0.0,0.0,0.0,0.0,0.0,0.0,0.0,0.0,0.0,0.0,0.0,0.0,0.0,0.0,0.0,0.0,0.0,0.0,0.0,0.0,0.0,0.0,0.0,0.0,0.0,0.0,0.0,0.0,0.0,0.0,0.0,0.0,0.0,0.0,0.0,0.0,0.0,0.0,0.0,0.0,0.0,0.0,0.0,0.0,0.0,0.0,0.0,0.0,0.0,0.0,0.0,0.0,0.0,0.0,0.0,0.0,0.0,0.0,0.0,0.0,0.0,0.0,0.0,0.0,0.0,0.0,0.0,0.0,0.0,0.0,0.0,0.0,0.0,0.0,0.0,0.0,0.0,0.0,0.0,0.0,0.0,0.0,0.0,0.0,0.0,0.0,0.0,0.0,0.0,0.0,0.0,0.0,0.0,0.0,0.0,0.0,0.0,0.0,0.0,0.0,0.0,0.0,0.0,0.0,0.0,0.0,0.0,0.0,0.0,0.0,0.0,0.0,0.0,0.0,0.0,0.0,0.0,0.0,0.0,0.0,0.0,0.0,0.0,0.0,0.0,0.0,0.0,0.0,0.0,0.0,0.0,0.0,0.0,0.0,0.0,0.0,0.0,0.0,0.0,0.0,0.0,0.0,0.0,0.0,0.0,0.0,0.0,0.0,0.0,0.0,0.0,0.0,0.0,0.0,0.0,0.0,0.0,0.0,0.0,0.0,0.0,0.0,0.0,0.0,0.0,0.0,0.0,0.0,0.0,0.0,0.0,0.0,0.0,0.0,0.0,0.0,0.0,0.0,0.0,0.0,0.0,0.0,0.0,0.0,0.0,0.0,0.0,0.0,0.0,0.0,0.0,0.0,0.0,0.0,0.0,0.0,0.0,0.0,0.0,0.0,0.0,0.0,0.0,0.0,0.0,0.0,0.0,0.0,0.0,0.0,0.0,0.0,0.0,0.0,0.0,0.0,0.0,0.0,0.0,0.0,0.0,0.0,0.0,0.0,0.0,0.0,0.0,0.0,0.0,0.0,0.0,0.0,0.0,0.0,0.0,0.0,0.0,0.0,0.0,0.0,0.0,0.0,0.0,0.0,0.0,0.0,0.0,0.0,0.0,0.0,0.0,0.0,0.0,0.0,0.0,0.0,0.0,0.0,0.0,0.0,0.0,0.0,0.0,0.0,0.0,0.0,0.0,0.0,0.0,0.0,0.0,0.0,0.0,0.0,0.0,0.0,0.0,0.0,0.0,0.0,0.0,0.0,0.0,0.0,0.0,0.0,0.0,0.0,0.0,0.0,0.0,0.0,0.0,0.0,0.0,0.0,0.0,0.0,0.0,0.0,0.0,0.0,0.0,0.0,0.0,0.0,0.0,0.0,0.0,0.0,0.0,0.0,0.0,0.0,0.0,0.0,0.0,0.0,0.0,0.0,0.0,0.0,0.0,0.0,0.0,0.0,0.0,0.0,0.0,0.0,0.0,0.0,0.0,0.0,0.0,0.0,0.0,0.0,0.0,0.0,0.0,0.0,0.0,0.0,0.0,0.0,0.0,0.0,0.0,0.0,0.0,0.0,0.0,0.0,0.0,0.0,0.0,0.0,0.0,0.0,0.0,0.0,0.0,0.0,0.0,0.0,0.0,0.0,0.0,0.0,0.0,0.0,0.0,0.0,0.0,0.0,0.0,0.0,0.0,0.0,0.0,0.0,0.0,0.0,0.0,0.0,0.0,0.0,0.0,0.0,0.0,0.0,0.0,0.0,0.0,0.0,0.0,0.0,0.0,0.0,0.0,0.0,0.0,0.0,0.0,0.0,0.0,0.0,0.0,0.0,0.0,0.0,0.0,0.0,0.0,0.0,0.0,0.0,0.0,0.0,0.0,0.0,0.0,0.0,0.0,0.0,0.0,0.0,0.0,0.0,0.0,0.0,0.0,0.0,0.0,0.0,0.0,0.0,0.0,0.0,0.0,0.0,4.393,0.0,0.0,0.0,0.0,0.0,0.0,0.0,0.0,0.0,0.0,0.0,0.0,0.0,0.0,0.0,0.0,0.0,0.0,0.0,0.0,0.0,0.0,0.0,0.0,0.0,0.0,0.0,0.0,0.0,0.0,0.0,0.0,0.0,0.0,0.0,0.0,0.0,0.0,3.5072,3.5808,3.6716,3.7781,3.7605,3.7246,3.6843,0.0,0.0,0.0,0.0,0.0,0.0,0.0,0.0,0.0,0.0,0.0,0.0,0.0,0.0,0.0,0.0,0.0,0.0,0.0,0.0,0.0,0.0,0.0,0.0,0.0,0.0,0.0,0.0,0.0,0.0,0.0,0.0,0.0,0.0,0.0,0.0,0.0,0.0,0.0,0.0,0.0,0.0,0.0,0.0,0.0,0.0,0.0,0.0,0.0,0.0,0.0,0.0,0.0,0.0,0.0,0.0,0.0,0.0,0.0,0.0,0.0,0.0,0.0,0.0,0.0,0.0,0.0,0.0,0.0,0.0,0.0,4.5692,0.0,0.0,0.0,0.0,0.0,0.0,0.0,0.0,0.0,0.0,0.0,0.0,0.0,0.0,0.0,0.0,0.0,0.0,0.0,0.0,0.0,0.0,0.0,3.2084,3.2095,3.2185,3.2216,3.219,0.0,0.0,0.0,0.0,0.0,0.0,3.5038,3.5898,3.6734,3.7559,3.787,3.9118,4.125,4.188,4.1523,4.0327,4.0174,0.0,0.0,0.0,0.0,0.0,0.0,0.0,0.0,0.0,0.0,0.0,0.0,0.0,0.0,0.0,0.0,0.0,0.0,0.0,0.0,0.0,0.0,0.0,0.0,0.0,0.0,0.0,0.0,0.0,0.0,0.0,0.0,0.0,0.0,0.0,0.0,0.0,0.0,0.0,0.0,0.0,0.0,0.0,0.0,0.0,0.0,0.0,0.0,0.0,0.0,0.0,0.0,0.0,0.0,0.0,0.0,0.0,0.0,0.0,0.0,0.0,0.0,0.0,5.3356,5.3778,5.3813,5.3947,5.4032,5.3947,5.2275,5.0282,4.828,0.0,0.0,0.0,0.0,0.0,0.0,0.0,0.0,0.0,0.0,0.0,0.0,0.0,0.0,0.0,0.0,0.0,0.0,0.0,0.0,0.0,0.0,3.4786,3.5044,3.5739,3.5813,3.5806,3.5799,0.0,0.0,0.0,0.0,3.6036,3.609,3.7453,3.8577,3.9435,4.1417,4.326,4.4973,4.4987,4.5523,4.6406,4.3486,4.1783,4.1075,0.0,0.0,0.0,0.0,0.0,0.0,0.0,0.0,0.0,0.0,0.0,0.0,0.0,0.0,0.0,0.0,0.0,0.0,0.0,0.0,0.0,0.0,0.0,0.0,0.0,0.0,0.0,0.0,0.0,0.0,0.0,0.0,0.0,0.0,0.0,0.0,0.0,0.0,0.0,0.0,0.0,4.2218,4.3055,0.0,0.0,0.0,0.0,0.0,0.0,0.0,0.0,0.0,0.0,0.0,0.0,0.0,5.27,5.4122,5.5077,5.5877,5.6523,5.7355,5.7754,5.777,5.8593,5.8937,5.8953,5.8854,0.0,5.2025,5.1329,0.0,0.0,0.0,0.0,0.0,0.0,0.0,0.0,0.0,0.0,0.0,0.0,0.0,0.0,0.0,0.0,0.0,0.0,0.0,0.0,0.0,3.581,3.639,3.7165,3.6832,3.6737,3.7147,3.6733,0.0,0.0,3.7305,3.7808,3.7771,3.9768,4.1642,4.3337,4.569,4.7414,4.846,4.8859,4.9607,5.0573,4.9044,4.6768,4.4043,4.4001,0.0,0.0,0.0,0.0,0.0,0.0,0.0,0.0,0.0,0.0,0.0,0.0,0.0,0.0,0.0,0.0,0.0,0.0,0.0,0.0,0.0,0.0,0.0,0.0,0.0,0.0,0.0,0.0,0.0,0.0,0.0,0.0,0.0,0.0,0.0,0.0,0.0,0.0,0.0,4.2905,4.4085,4.4601,4.5022,4.5408,0.0,0.0,0.0,0.0,0.0,0.0,0.0,0.0,0.0,5.4408,5.6039,5.7246,5.7946,5.9689,6.093,6.1703,6.2594,6.3241,6.3664,6.4099,6.4274,6.4239,6.3898,6.2538,6.0372,5.7103,5.5249,5.4443,0.0,0.0,0.0,0.0,0.0,5.3577,0.0,0.0,0.0,0.0,0.0,0.0,0.0,0.0,0.0,0.0,0.0,0.0,3.6434,3.703,3.7792,3.8748,3.8265,3.8164,3.8709,3.819,3.7856,3.7856,3.8991,3.9762,3.9985,4.2762,4.5241,4.7398,4.9805,5.1349,5.1987,5.2795,5.3575,5.4261,5.4228,5.1624,4.7251,4.7219,4.6131,4.4422,0.0,0.0,0.0,0.0,0.0,0.0,0.0,0.0,0.0,0.0,0.0,0.0,0.0,0.0,0.0,0.0,0.0,0.0,0.0,0.0,0.0,0.0,0.0,0.0,0.0,0.0,0.0,0.0,0.0,0.0,0.0,0.0,0.0,0.0,0.0,0.0,0.0,4.5141,4.6377,4.6956,4.7689,4.8444,0.0,0.0,0.0,0.0,0.0,0.0,5.51,5.6314,5.7549,5.8864,6.0591,6.1774,6.2373,6.4251,6.5538,6.6367,6.7265,6.8024,6.8643,6.8907,6.9066,6.9046,6.8298,6.8026,6.7717,6.2521,5.9732,5.8699,5.8295,5.775,5.7235,5.7175,5.7198,5.727,0.0,0.0,0.0,0.0,0.0,0.0,0.0,0.0,0.0,0.0,0.0,3.6602,3.8962,3.9223,3.9902,4.1472,4.1546,4.1546,4.1577,4.1577,4.1539,4.1539,4.1614,4.2025,4.2884,4.6623,4.9313,5.085,5.3336,5.4952,5.5734,5.6557,5.7305,5.7921,5.7808,5.4905,5.0089,4.996,4.85,4.6251,4.6074,0.0,0.0,0.0,0.0,0.0,0.0,0.0,0.0,0.0,0.0,0.0,0.0,0.0,0.0,0.0,0.0,0.0,0.0,0.0,0.0,0.0,0.0,0.0,0.0,0.0,0.0,0.0,0.0,0.0,0.0,0.0,0.0,0.0,0.0,0.0,0.0,0.0,0.0,5.1022,5.2004,0.0,0.0,0.0,0.0,5.6107,5.688,5.8246,6.0386,6.0599,6.1945,6.4784,6.4961,6.613,6.8344,6.8486,6.8964,6.9743,7.0505,7.1002,7.125,7.2192,7.2724,7.2879,7.2207,7.1914,7.1538,6.6303,6.4195,6.4153,6.2602,6.1995,6.1888,6.1102,6.094,6.1106,0.0,0.0,0.0,0.0,0.0,0.0,0.0,0.0,3.3781,3.5494,3.6615,3.7773,3.9236,4.0806,4.2233,4.331,4.3399,4.3399,4.3422,4.2906,4.2644,4.2644,4.313,4.4804,4.7711,5.0715,5.304,5.4624,5.765,5.9179,5.9382,6.0681,6.1396,6.1498,6.1414,5.9796,5.6886,5.4464,5.1759,4.9013,4.8982,4.7607,0.0,0.0,0.0,0.0,0.0,0.0,0.0,0.0,0.0,0.0,0.0,0.0,0.0,0.0,0.0,0.0,0.0,0.0,0.0,0.0,0.0,0.0,0.0,0.0,0.0,0.0,0.0,0.0,0.0,0.0,0.0,0.0,0.0,0.0,0.0,0.0,0.0,5.4789,5.5702,0.0,5.8758,5.9175,5.9893,6.1236,6.2478,6.3526,6.4311,6.5868,6.7414,6.8962,6.9983,7.1148,7.2543,7.3044,7.3689,7.4512,7.4762,7.5156,7.5729,7.6069,7.6285,7.632,7.5599,7.5326,7.5232,7.2981,7.0453,6.7972,6.7397,6.6859,6.6392,6.6105,6.5802,6.5535,0.0,0.0,0.0,0.0,0.0,0.0,0.0,0.0,3.4254,3.5932,3.7585,3.9158,4.0543,4.2415,4.4017,4.5103,4.5214,4.5243,4.5229,4.4749,4.4449,4.4449,4.5731,4.8127,5.1639,5.4406,5.6613,5.8266,6.1284,6.2817,6.2976,6.4342,6.5022,6.5122,6.4778,6.3854,6.2341,5.957,5.6024,5.2227,5.2141,5.0382,4.7845,0.0,0.0,0.0,0.0,0.0,0.0,0.0,0.0,0.0,0.0,0.0,0.0,0.0,0.0,0.0,0.0,0.0,0.0,0.0,0.0,0.0,0.0,0.0,0.0,0.0,0.0,0.0,0.0,0.0,0.0,0.0,0.0,0.0,0.0,5.4686,5.7068,5.8768,6.0142,6.172,6.3596,6.3993,6.4714,6.6049,6.7348,6.8255,6.8769,7.057,7.2066,7.3044,7.4358,7.5384,7.6175,7.6966,7.7649,7.8153,7.8459,7.8873,7.9449,7.9774,7.9973,7.9973,7.9286,7.8886,7.861,7.7967,7.5868,7.2955,7.2159,7.1363,7.064,7.0351,6.9834,6.9252,0.0,0.0,0.0,0.0,0.0,0.0,3.1954,3.3504,3.5195,3.6891,3.8544,4.0535,4.3045,4.4083,4.5247,4.6899,4.7136,4.7186,4.7149,4.7186,4.7186,4.7262,4.9551,5.1981,5.4429,5.766,6.0084,6.1678,6.4123,6.573,6.6526,6.7423,6.8177,6.8758,6.7809,6.691,6.5962,6.5064,6.1267,5.5923,5.5603,5.3554,5.066,0.0,0.0,0.0,0.0,0.0,0.0,0.0,0.0,0.0,0.0,0.0,0.0,0.0,0.0,0.0,0.0,0.0,0.0,0.0,0.0,0.0,0.0,0.0,0.0,0.0,0.0,0.0,0.0,0.0,0.0,0.0,0.0,0.0,5.6027,5.8677,6.137,6.3018,6.5424,6.7308,6.8141,6.8917,6.975,7.0548,7.1293,7.2336,7.3816,7.463,7.5716,7.7127,7.7955,7.8711,7.9448,8.0204,8.06,8.06,8.1391,8.19,8.2086,8.3065,8.3611,8.3755,8.3204,8.2452,8.1632,8.092,8.0117,7.9115,7.6724,7.5317,7.4535,7.3784,7.2982,7.2273,0.0,0.0,0.0,0.0,0.0,0.0,3.2095,3.3117,3.4629,3.6933,3.8661,4.0658,4.3158,4.5269,4.6883,4.7923,4.8593,4.872,4.8072,4.8645,4.952,5.0741,5.317,5.5593,5.801,6.0717,6.315,6.5339,6.7203,6.8499,6.9256,7.0068,7.0485,7.0555,7.0333,6.9749,6.8919,6.8443,6.633,6.2972,6.0342,5.7228,5.4198,0.0,0.0,0.0,0.0,0.0,0.0,0.0,0.0,0.0,0.0,0.0,0.0,0.0,0.0,0.0,0.0,0.0,0.0,0.0,0.0,0.0,0.0,0.0,0.0,0.0,0.0,0.0,0.0,0.0,0.0,0.0,5.8704,6.0575,6.016,6.2571,6.519,6.7389,6.9441,7.1205,7.2573,7.3427,7.4228,7.5066,7.5851,7.6708,7.7731,7.8515,7.9662,8.1228,8.1502,8.1974,8.2756,8.301,8.312,8.312,8.3338,8.3482,8.3518,8.379,8.3952,8.4006,8.384,8.3619,8.34,8.3302,8.3098,8.2569,7.9457,7.8094,7.7875,7.7656,7.7137,7.6533,0.0,0.0,0.0,0.0,0.0,0.0,3.2137,3.3006,3.4451,3.7008,3.9044,4.1123,4.329,4.5785,4.76,4.8418,4.9322,4.9766,4.9607,5.0721,5.2084,5.3677,5.6123,5.8777,6.159,6.4068,6.6385,6.846,7.0105,7.1282,7.2046,7.2823,7.3293,7.3464,7.3089,7.2642,7.2096,7.1279,6.989,6.8019,6.5573,6.1869,5.7748,5.7729,5.589,5.3291,5.2754,5.1589,5.0107,4.9019,0.0,0.0,0.0,0.0,0.0,0.0,0.0,0.0,0.0,0.0,0.0,0.0,0.0,0.0,0.0,0.0,0.0,0.0,0.0,0.0,0.0,0.0,0.0,0.0,6.2717,6.5117,6.6446,6.7666,6.9223,7.1299,7.365,7.5463,7.6396,7.7527,7.8402,7.8877,7.9643,8.0299,8.0791,8.1576,8.2452,8.3364,8.3692,8.4076,8.455,8.4915,8.5061,8.5061,8.5061,8.5061,8.5061,8.515,8.5185,0.0,8.5292,8.5107,8.4832,8.4899,8.4713,0.0,0.0,0.0,0.0,0.0,7.9247,7.8867,0.0,0.0,0.0,0.0,0.0,0.0,3.2026,3.2972,3.4382,3.6932,3.9358,4.1552,4.3416,4.5729,4.7549,4.8559,4.9383,5.0341,5.1525,5.3103,5.4754,5.646,5.8816,6.164,6.4992,6.7399,6.9456,7.122,7.2794,7.3948,7.4715,7.543,7.6019,7.6505,7.5718,7.5307,7.5097,7.3639,7.2483,7.159,7.0683,6.6746,6.1357,6.123,5.9181,5.6327,5.6069,5.4415,5.2343,5.2105,0.0,0.0,0.0,0.0,0.0,0.0,0.0,0.0,0.0,0.0,0.0,0.0,0.0,0.0,0.0,0.0,0.0,0.0,0.0,0.0,0.0,0.0,0.0,0.0,6.7163,6.9952,7.3252,7.3377,7.3596,7.4895,7.7758,7.9672,7.9746,8.1153,8.2029,8.2029,8.2686,8.3141,8.3214,0.0,0.0,0.0,0.0,8.5662,8.5662,8.6374,8.6739,8.6739,8.6629,8.6593,8.6593,8.6699,8.6714,8.675,8.6908,8.6591,8.593,8.593,8.5453,8.4646,8.3858,8.3104,8.2296,8.0771,8.022,0.0,0.0,0.0,0.0,0.0,0.0,0.0,3.1352,3.2235,3.3688,3.6202,3.8099,4.038,4.3433,4.4829,4.642,4.8637,4.8992,5.0336,5.3196,5.4933,5.7201,6.022,6.204,6.4506,6.776,6.9577,7.1567,7.3776,7.4805,7.5738,7.6497,7.6648,7.6719,7.6719,7.6569,7.6423,7.6253,7.5906,7.5246,7.436,7.3428,6.9767,6.4914,6.489,6.2726,5.9663,5.9617,5.7992,5.5702,5.4931,5.3617,5.2096,5.1154,4.9846,0.0,0.0,0.0,0.0,0.0,0.0,0.0,0.0,0.0,0.0,0.0,0.0,0.0,0.0,0.0,0.0,0.0,0.0,0.0,6.7292,7.0413,7.3388,7.5979,7.8065,7.907,7.8576,8.0373,8.1884,8.2528,8.3481,8.4031,8.4031,8.4178,8.4544,8.5221,8.6011,8.6744,8.7367,8.8174,8.8596,8.8596,8.8743,8.8816,8.8816,0.0,0.0,8.7844,8.7219,8.6925,8.6943,8.696,8.6904,8.6775,8.6775,8.6297,8.549,8.4682,8.4278,8.4022,8.3067,8.2684,8.2627,0.0,0.0,0.0,0.0,0.0,0.0,3.1142,3.2073,3.3428,3.5522,3.7631,3.9733,4.1867,4.3963,4.5758,4.7057,4.9093,5.1361,5.3855,5.6366,5.9045,6.1903,6.4443,6.7093,6.9927,7.2054,7.3865,7.5435,7.6672,7.749,7.7792,7.819,7.8289,7.8163,7.8093,7.7996,7.7924,7.739,7.6892,7.6343,7.5034,7.262,6.9656,6.7887,6.5308,6.2578,6.2077,6.0006,5.7415,5.6955,5.5687,5.4082,5.2718,5.1735,5.0858,0.0,0.0,0.0,0.0,0.0,0.0,0.0,0.0,0.0,0.0,0.0,0.0,0.0,0.0,6.0682,6.3665,0.0,6.8728,7.1721,7.4296,7.6789,7.9286,8.111,8.199,8.1522,8.2944,8.4168,8.4572,8.5673,8.6407,8.6407,8.6757,8.7161,8.7582,8.7968,8.8372,8.8776,8.9179,8.94,8.94,8.94,8.94,8.94,8.8996,8.8776,8.8776,8.8372,8.7968,8.7619,8.7619,8.7362,8.6978,8.6978,8.6775,8.6371,8.5967,8.5306,8.4535,8.4168,8.4005,8.3895,0.0,0.0,0.0,0.0,0.0,0.0,0.0,3.1808,3.3103,3.4844,3.6999,3.8877,4.0253,4.2822,4.4772,4.5577,4.9378,5.2482,5.4262,5.7524,6.0526,6.3116,6.6276,6.9107,7.162,7.4124,7.5828,7.6665,7.8288,7.8984,7.8868,7.9491,7.9672,7.9535,7.9406,7.9335,7.9261,7.8464,7.8078,7.7829,7.6143,7.4909,7.369,7.0361,6.7489,6.5084,6.4077,6.1546,5.8702,5.8702,5.7446,5.5644,5.4224,5.3547,5.2965,5.1417,5.0827,0.0,0.0,0.0,0.0,0.0,0.0,0.0,0.0,5.8093,6.0064,6.0854,6.2947,6.5332,6.7623,7.0142,7.2853,7.5931,7.7903,7.9877,8.2317,8.3361,8.3931,8.4078,8.5123,8.593,8.6241,8.7435,8.828,8.8426,8.9033,8.94,8.94,8.9546,8.962,8.962,8.9767,8.9877,8.9877,8.9877,8.9877,8.984,8.9693,8.962,8.962,8.9473,8.9033,8.8426,8.828,8.7729,8.6978,8.6978,8.6978,8.6978,8.6978,8.6224,8.5049,8.4903,8.4829,8.4719,0.0,0.0,0.0,0.0,0.0,0.0,0.0,0.0,3.2349,3.4012,3.5082,3.6918,4.0062,4.0713,4.2477,4.6239,4.9766,5.2789,5.5193,5.8496,6.1785,6.506,6.7528,7.004,7.2585,7.5028,7.6703,7.7541,7.9234,7.9972,7.9858,7.9923,7.9881,7.966,7.9535,7.9418,7.9299,7.9053,7.8954,7.8791,7.7139,7.5892,7.4771,7.2152,6.9437,6.6896,6.5949,6.3412,6.0524,6.0524,5.8895,5.6794,5.6599,5.5493,5.4047,5.3146,5.2312,5.1627,5.1627,5.3171,5.4773,5.4846,5.7254,5.9577,0.0,6.1414,6.3398,6.4187,6.629,6.8522,7.0346,7.3214,7.5968,7.7992,8.0262,8.2353,8.4095,8.5013,8.5783,8.65,8.6114,8.6371,8.7802,8.8096,8.85,8.9216,8.9363,8.94,8.94,9.006,9.0464,9.0464,9.1179,9.1546,9.1546,9.1546,9.1546,9.151,9.0812,9.0464,9.0427,8.973,8.9363,8.9216,8.85,8.7729,8.6978,8.6978,8.6978,8.6978,8.6978,8.6867,8.6664,8.593,8.5673,8.5527,0.0,0.0,0.0,0.0,0.0,0.0,0.0,0.0,0.0,3.323,3.4574,3.6146,3.8024,3.9569,4.1955,4.572,4.8251,5.0919,5.392,5.7224,6.0538,6.391,6.6835,6.9568,7.2117,7.4602,7.6262,7.714,7.8761,7.9474,7.9363,7.9796,7.9946,7.9821,7.9592,7.9477,7.9406,7.9202,7.8816,7.829,7.7076,7.5814,7.4329,7.1785,6.9162,6.6762,6.5749,6.3448,0.0,5.9786,5.8378,5.6966,5.6459,5.5815,5.5147,5.4715,5.4341,5.4125,5.4591,5.6463,5.8382,5.8858,6.1043,6.324,6.3716,6.5707,6.7538,6.7868,6.9845,7.2058,7.3692,7.5489,7.7594,8.0262,8.1929,8.3471,8.5049,8.6004,8.6628,8.6941,8.6701,8.6958,8.8096,8.861,8.9216,9.0024,9.0537,9.0812,9.0812,9.1106,9.1289,9.1289,9.162,9.1803,9.1803,9.1803,9.1803,9.1803,9.1473,9.1289,9.1289,9.0959,9.028,8.9363,8.8573,8.7729,8.6978,8.6978,8.6978,8.6978,8.6978,8.6978,8.6941,8.6628,8.6518,8.6371,0.0,0.0,0.0,0.0,0.0,0.0,0.0,0.0,0.0,0.0,3.3849,3.535,3.6888,3.9127,4.1785,4.4975,4.6971,4.9519,5.2883,5.6193,5.9383,6.2494,6.5795,6.8669,7.0962,7.3522,7.5204,7.5997,7.7644,7.8351,7.8216,7.9011,7.9315,7.9205,7.8935,7.8821,7.8809,7.855,7.7952,7.7138,7.63,7.4824,7.2909,7.0579,6.7974,6.5486,6.4646,6.2661,6.022,5.8725,5.763,5.6705,5.6044,5.5796,5.5753,5.5655,5.6062,5.6785,5.7593,5.971,6.1961,6.2732,6.4787,6.6843,6.765,6.9522,7.1101,7.1101,7.2826,7.4771,7.6166,7.7289,7.8977,8.2039,8.3214,8.4278,8.5894,8.6628,8.6978,8.6978,8.6978,8.7381,8.8426,8.9069,8.984,9.0849,9.1473,9.1803,9.1803,9.2024,9.217,9.217,9.2354,9.2391,9.217,9.217,9.2024,9.1803,9.1803,9.1803,9.1803,9.1803,9.0922,8.9363,8.8793,8.7949,8.6978,8.6978,8.6978,8.6978,8.6978,8.6978,8.6978,8.6978,8.6978,8.6904,0.0,0.0,0.0,0.0,0.0,0.0,0.0,0.0,0.0,0.0,0.0,0.0,0.0,3.9473,4.155,4.4128,4.6624,4.9519,5.2883,5.6193,5.9115,6.1621,6.4954,6.7515,6.9234,7.1756,7.3476,7.4269,7.595,7.6653,7.6493,7.7379,7.765,7.7461,7.7197,7.7096,7.7074,7.6858,7.6262,7.5411,7.461,7.2808,7.0442,6.8715,6.5949,6.2987,6.2826,6.1144,5.8842,5.7948,5.6952,5.6091,5.5939,5.586,5.5753,5.5655,5.7262,5.9269,6.0077,6.2646,6.5325,6.6145,6.8164,7.0183,7.0977,7.2422,7.3611,7.3611,7.4882,7.6276,7.7105,7.8626,8.0514,8.2977,8.4058,8.5123,8.6721,8.6978,8.6978,8.6978,8.6978,8.7601,8.9216,8.94,9.006,9.1657,9.1803,9.1803,9.1803,9.2611,9.3051,9.3051,9.3822,9.3859,9.3088,9.3051,9.2648,9.1803,9.1803,9.1803,9.1803,9.1803,9.0922,8.94,8.9363,8.8445,8.6978,8.6978,8.6978,8.6978,8.6978,8.6978,8.6978,8.6978,8.6978,8.6978,0.0,0.0,0.0,0.0,0.0,0.0,0.0,0.0,0.0,0.0,0.0,0.0,0.0,0.0,0.0,0.0,4.4036,4.6709,4.9534,5.2805,5.5752,5.8259,6.1552,6.4114,6.5841,6.8325,7.0037,7.0877,7.2508,7.3251,7.3106,7.4496,7.5005,7.4819,7.5189,7.5305,7.5265,7.5093,7.4235,7.2921,7.2646,7.0743,6.7862,6.6172,6.3438,6.0285,0.0,5.7678,5.7101,5.6292,5.5376,5.4756,5.572,5.5976,5.6255,5.8201,6.0529,6.2732,6.409,6.6439,6.8935,7.0807,7.2275,7.3619,7.4977,7.5711,7.6078,7.6078,7.6518,7.7142,7.8002,7.9066,8.0571,8.3014,8.4078,8.5159,8.6757,8.6978,8.6978,8.6978,8.7472,8.8243,8.929,8.94,0.0,9.1693,9.1803,9.206,9.2648,9.2941,9.3345,9.3859,9.4153,9.4153,9.3896,9.3382,9.2941,9.2648,9.206,9.1803,9.1803,9.1803,9.0922,8.94,8.94,8.8482,8.6978,8.6978,8.6978,8.6978,8.6978,8.6978,8.6978,8.6978,8.6978,8.6978,0.0,0.0,0.0,0.0,0.0,0.0,0.0,0.0,0.0,0.0,0.0,0.0,0.0,0.0,0.0,0.0,0.0,4.4513,4.733,5.0314,5.3004,5.5211,5.8486,6.0943,6.2357,6.4535,6.62,6.7361,6.8687,6.9434,6.9599,7.0913,7.1427,7.1249,7.1656,7.1815,7.1707,7.1587,7.0743,6.9455,6.9166,6.7438,6.4782,6.282,6.0379,0.0,5.5454,5.448,5.4252,5.4364,5.3944,5.3617,5.5178,5.634,5.7766,6.081,6.3466,6.5791,6.7687,7.0,7.2349,7.4478,7.5616,7.657,7.7876,7.7949,7.7766,7.7766,7.7509,7.7582,7.8442,7.9265,8.0514,8.2627,8.3911,8.5159,8.6757,8.7252,8.7528,8.7822,8.8299,8.8923,8.973,8.984,9.0391,9.1693,9.1803,9.217,9.3051,9.3382,9.3896,9.4722,9.4997,9.5034,9.474,9.3932,9.3235,9.2648,9.206,9.1803,9.1803,9.151,9.0665,8.9363,8.9106,8.8225,8.6978,8.6978,8.6978,8.6978,8.6978,8.6978,8.6978,8.6978,8.6978,8.6978,0.0,0.0,0.0,0.0,0.0,0.0,0.0,0.0,0.0,0.0,0.0,0.0,0.0,0.0,0.0,0.0,0.0,0.0,4.6192,4.8788,5.0903,5.2461,5.5817,5.7987,5.8751,6.0432,6.2077,6.3604,6.4489,6.524,6.5939,6.6745,6.7027,6.6872,6.6861,6.6763,6.6626,6.6562,6.6059,6.5185,6.4359,6.3055,6.128,5.883,5.6869,5.5163,5.3472,5.1777,5.0608,5.2318,5.2864,5.3097,5.465,5.7211,6.0266,6.3369,6.6012,6.8471,7.094,7.3325,7.5527,7.7142,7.817,7.8956,7.9706,7.9229,7.8589,7.8552,7.7803,7.7436,7.8259,7.9103,8.022,8.1819,8.3471,8.5123,8.6757,8.7692,8.85,8.929,8.9436,8.9767,9.0537,9.0702,9.1033,9.1803,0.0,9.2244,9.3125,9.3932,9.4703,9.553,9.6282,9.6318,9.5565,9.4703,9.3455,9.1803,9.1803,9.1803,9.1767,9.0959,9.017,8.9363,8.8573,8.7729,8.6978,8.6978,8.6978,8.6978,8.6978,8.6978,8.6978,8.6978,8.6978,8.6978,0.0,0.0,0.0,0.0,0.0,0.0,0.0,0.0,0.0,0.0,0.0,0.0,0.0,0.0,0.0,0.0,0.0,0.0,4.3465,4.6025,4.785,4.8867,5.2133,5.4038,5.426,5.6522,5.7925,5.8323,5.9102,5.9924,6.0735,6.1418,6.201,6.2529,6.3069,6.3238,6.3094,6.3065,6.2595,6.1768,6.0905,5.9591,5.7938,5.5999,5.4239,5.2611,5.1469,5.0367,4.9769,5.2006,5.425,5.6354,5.793,6.0529,6.3481,6.6051,6.8912,7.1945,7.494,7.7121,7.8919,8.0534,8.1122,8.1158,8.0791,7.9617,7.8405,7.7766,7.6481,7.5564,7.5784,7.6995,7.8463,8.0147,8.226,8.4482,8.6684,8.7692,8.85,8.929,8.9913,9.0354,9.0592,9.173,9.2537,0.0,9.2758,9.3125,9.3932,9.4777,9.5584,9.6355,9.6575,9.6612,9.6392,9.4997,9.3455,9.1803,9.1803,9.1803,9.1767,9.0959,9.017,8.9363,8.8573,8.7729,8.6978,8.6978,8.6978,8.6978,8.6978,8.6978,8.6978,8.6978,8.6978,8.6978,0.0,0.0,0.0,0.0,0.0,0.0,0.0,0.0,0.0,0.0,0.0,0.0,0.0,0.0,0.0,0.0,0.0,0.0,0.0,4.352,4.5272,4.6446,4.8997,5.0596,5.0977,5.2735,5.3825,5.4172,5.4551,5.5328,5.6497,5.6827,5.7393,5.813,5.853,5.8639,5.8539,5.8539,5.8276,0.0,0.0,5.5999,5.4986,5.3251,5.2019,5.1066,5.0143,4.9938,5.0484,5.2856,5.5508,5.8153,6.0066,6.3038,6.6338,6.9013,7.2092,7.5234,7.8133,8.0131,8.1672,8.292,8.2994,8.2517,8.1709,8.0021,7.8259,7.7032,7.5491,7.4368,7.4368,7.5689,7.7326,7.8993,8.1599,8.4225,8.6647,8.8005,8.9143,9.0335,9.1179,9.1693,9.1693,9.2868,9.3639,9.3639,9.3639,9.3969,9.4777,9.5235,9.5878,9.6685,9.6685,9.6355,9.5658,9.474,9.3455,9.1803,9.1803,9.1803,9.1767,9.0959,9.017,8.9363,0.0,8.7729,8.6978,8.6978,8.6978,8.6978,8.6978,8.6978,8.6978,8.6978,8.6978,8.6978,0.0,0.0,0.0,0.0,0.0,0.0,0.0,0.0,0.0,0.0,3.016,0.0,0.0,0.0,0.0,0.0,0.0,0.0,0.0,0.0,4.2933,4.4492,4.6247,4.7584,4.8345,4.9258,5.0056,5.075,5.0689,5.1422,5.2825,5.2757,5.3124,5.3828,5.3857,5.38,5.3716,5.3716,5.3783,5.3803,5.2864,5.2493,5.2335,0.0,5.004,4.9957,4.9288,5.004,5.1695,5.3973,5.645,5.9072,6.1645,6.5077,6.879,7.19,7.5087,7.817,8.0629,8.2463,8.3858,8.4462,8.4005,8.3087,8.1966,7.9837,7.7635,7.5983,7.4331,7.323,7.323,7.4551,7.6166,7.7855,8.0828,8.3785,8.6317,8.8152,8.9877,9.162,9.2574,9.3125,9.3235,9.3969,9.4446,9.4446,9.4556,9.4887,9.5474,9.5602,9.5988,9.6685,9.6685,9.5988,9.4483,9.4336,9.3529,9.195,9.184,9.1803,9.1767,9.0959,9.0207,8.951,0.0,0.0,8.7124,8.7014,8.6978,8.6978,8.6978,8.6978,8.6978,8.6978,8.6978,8.6978,0.0,0.0,0.0,0.0,0.0,0.0,0.0,0.0,0.0,0.0,2.9637,3.1447,0.0,0.0,0.0,0.0,0.0,0.0,0.0,0.0,0.0,4.169,4.397,4.5262,4.5413,4.6919,4.7782,4.7913,4.7906,4.8383,4.9358,4.9226,4.9634,5.0448,5.0371,5.0292,5.0175,5.0175,5.0546,5.1004,5.021,4.9865,4.9745,4.8675,0.0,0.0,4.8716,4.9852,5.1424,5.3151,5.6235,5.9959,6.364,6.7085,7.0358,7.356,7.679,7.991,8.2317,8.4168,8.527,8.4719,8.4005,8.2647,7.9874,7.7304,7.5102,7.345,7.1835,7.0734,7.0734,7.2055,7.367,7.527,7.8295,8.1489,8.4572,8.6958,8.9271,9.1601,9.2611,9.3345,9.4042,9.4813,9.529,0.0,9.5914,9.6061,9.553,9.6135,9.6575,9.6685,9.6685,9.6245,9.5308,9.463,9.3822,9.2868,9.2134,9.1803,9.1767,9.0959,9.0519,9.0317,0.0,0.0,8.7949,8.7288,8.6978,8.6978,8.6978,8.6978,8.6978,8.6978,8.6978,8.6978,0.0,0.0,0.0,0.0,0.0,0.0,0.0,2.6207,2.7253,2.7253,2.9064,3.0701,3.1577,3.2407,3.3387,0.0,0.0,0.0,0.0,0.0,0.0,4.0939,4.2146,4.2982,4.3397,4.419,4.4838,4.5253,0.0,4.5858,4.7022,4.6935,4.7335,4.8093,4.8047,4.8,4.7961,4.7961,4.8162,4.8458,4.8036,4.7871,4.778,4.7223,0.0,0.0,4.7974,4.939,5.1403,5.3363,5.6439,6.0151,6.4144,6.8125,7.1982,7.5197,7.8479,8.1489,8.3471,8.5196,8.6224,8.5416,8.4315,8.2647,7.9837,7.6974,7.4206,7.1762,6.9963,6.8839,6.8839,7.0146,7.2055,7.45,7.7671,8.0918,8.4168,8.6664,8.894,9.0959,9.2684,9.3859,9.4263,9.5401,9.6135,9.6135,9.6502,9.6539,9.6135,9.6502,9.6685,9.6685,9.6685,9.6318,9.5492,9.4703,9.3896,9.3088,9.2207,9.1803,9.1803,9.14,9.0996,9.0555,8.9784,0.0,8.8169,8.7766,8.7399,8.6978,8.6978,8.6978,8.6978,8.6978,8.6978,8.6978,0.0,0.0,0.0,0.0,0.0,0.0,0.0,2.6155,2.7186,2.7186,2.8641,2.9945,3.0701,3.1502,3.2406,0.0,0.0,0.0,0.0,0.0,0.0,0.0,0.0,0.0,4.1839,0.0,0.0,4.3132,4.3074,0.0,0.0,0.0,0.0,0.0,4.612,4.6179,4.6164,4.6164,4.6253,0.0,0.0,4.628,4.6248,0.0,0.0,0.0,0.0,4.8827,5.1113,5.3261,5.6136,5.952,6.3358,6.7988,7.2642,7.6041,7.925,8.2113,8.4058,8.5527,8.6334,8.571,8.4058,8.2003,7.9559,7.635,7.3083,7.0183,6.8325,6.7187,6.7187,6.8508,7.0513,7.3399,7.6607,7.9874,8.3104,8.5783,8.8169,9.0097,9.2537,9.4189,9.452,9.5878,9.6685,9.6685,9.6685,0.0,9.6685,9.6685,9.6685,9.6685,9.6685,9.6392,9.5749,9.4777,9.3969,9.3345,9.2281,9.1803,9.1803,9.1803,9.1473,9.0849,9.0665,0.0,0.0,8.8353,8.7839,8.7234,8.7051,8.6978,8.6978,8.6978,8.6978,8.6978,0.0,0.0,0.0,0.0,0.0,0.0,0.0,2.6134,2.7186,2.7186,2.8605,2.9631,2.9715,3.0504,3.1659,0.0,0.0,0.0,0.0,0.0,0.0,0.0,0.0,0.0,0.0,0.0,0.0,4.1975,4.1931,0.0,0.0,0.0,0.0,0.0,0.0,4.4498,4.443,4.443,0.0,0.0,0.0,0.0,0.0,0.0,0.0,0.0,0.0,4.8356,4.9997,5.1677,5.4373,5.7604,6.092,6.5791,7.1101,7.5065,7.8002,8.0697,8.3765,8.4719,8.4792,8.4719,8.2406,7.9486,7.7011,7.3377,7.0036,6.8288,6.6623,6.5508,6.5508,6.6843,6.8508,7.0257,7.3266,7.6497,7.9779,8.2957,8.6077,8.9143,9.1675,9.3786,9.5235,9.6171,9.6685,9.6685,9.6685,0.0,9.6685,9.6685,9.6685,9.6685,9.6685,9.6649,9.6575,9.507,9.4263,9.4153,9.2574,9.1803,9.1803,9.1803,9.1767,9.1657,0.0,0.0,0.0,8.8793,8.8169,8.8023,8.7271,8.6978,8.6978,8.6978,8.6978,8.6978,0.0,0.0,0.0,0.0,0.0,0.0,2.4633,2.5606,2.6542,2.7062,2.8133,2.8984,2.9503,2.9859,3.051,3.1665,0.0,0.0,0.0,0.0,0.0,0.0,0.0,0.0,0.0,0.0,4.0561,4.1012,4.1012,0.0,0.0,0.0,0.0,0.0,0.0,4.3271,4.3277,4.3743,0.0,0.0,0.0,0.0,0.0,0.0,0.0,0.0,0.0,0.0,4.915,5.1289,5.3482,5.5904,5.9123,6.2719,6.688,7.2899,7.6387,7.9029,8.226,8.3508,8.3765,8.3287,8.1468,7.9008,7.6056,7.2642,6.9486,6.7393,6.5705,6.4567,6.4567,6.5888,6.765,6.9743,7.2789,7.6056,7.9339,8.2553,8.56,8.8353,9.1289,9.3529,9.4666,9.5951,9.6685,9.6685,9.6685,0.0,9.6685,9.6685,9.6685,9.6685,9.6685,9.6685,9.6685,9.5107,9.4299,9.4263,9.2611,9.1803,9.1803,9.1803,9.1803,9.1767,0.0,0.0,0.0,8.94,8.8647,8.8133,8.7325,8.6978,8.6978,8.6978,8.6978,8.6978,0.0,0.0,0.0,0.0,0.0,2.4327,2.4547,2.529,2.6032,2.663,2.7634,2.8488,2.9043,2.9312,2.9665,3.0224,3.1592,0.0,0.0,0.0,0.0,0.0,0.0,0.0,0.0,0.0,3.9493,4.0039,4.0039,4.028,0.0,0.0,4.1073,4.1049,0.0,0.0,0.0,0.0,0.0,0.0,0.0,0.0,0.0,0.0,0.0,0.0,0.0,0.0,0.0,0.0,0.0,5.4179,5.6921,5.96,6.3123,7.022,7.4001,7.6592,7.9874,8.1142,8.1509,8.1195,7.9543,7.7283,7.4463,7.1358,6.8421,6.6219,6.4677,6.3723,6.3723,6.5044,6.6843,6.9045,7.2092,7.5322,7.8589,8.1856,8.4866,8.7545,9.0519,9.2868,9.4153,9.5951,9.7052,9.7052,0.0,0.0,9.7052,9.7052,9.6942,9.6722,9.6685,9.6685,9.6685,9.5107,9.4299,9.4263,9.2611,9.1803,9.1803,9.1803,9.1803,9.1803,0.0,0.0,0.0,8.984,8.9069,8.8463,8.7435,8.6978,8.6978,8.6978,8.6978,8.6978,0.0,0.0,0.0,0.0,0.0,0.0,2.4476,2.529,2.5808,2.5808,2.7224,2.8202,2.8202,2.8851,2.9307,2.9307,3.0108,0.0,0.0,0.0,0.0,0.0,0.0,0.0,0.0,0.0,3.8892,3.8929,3.8929,3.8929,3.8929,3.9741,4.0111,4.0148,0.0,0.0,0.0,0.0,0.0,0.0,0.0,0.0,0.0,0.0,0.0,0.0,0.0,0.0,0.0,0.0,0.0,0.0,0.0,5.6627,6.0517,6.705,7.0646,7.3266,7.6481,7.7362,7.7582,7.8405,7.6166,7.334,7.1711,6.8862,6.6072,6.447,6.3429,6.2793,6.2793,6.4187,6.5852,6.748,7.044,7.3656,7.6885,8.0167,8.3434,8.6611,8.9143,9.1583,9.4042,9.6465,9.7897,9.7897,0.0,0.0,9.7953,9.7897,9.753,9.6722,9.6685,9.6685,9.6685,9.5107,9.4299,9.4263,9.2611,9.1803,9.1803,9.1803,9.1803,0.0,0.0,0.0,0.0,9.006,8.94,8.9216,8.7638,8.6978,8.6978,8.6978,8.6978,8.6978,0.0,0.0,0.0,0.0,0.0,0.0,0.0,2.4696,2.5017,2.5542,2.6047,2.6783,2.7936,2.8276,2.8624,2.9179,2.9978,0.0,0.0,0.0,0.0,0.0,0.0,0.0,0.0,0.0,3.8273,3.8765,3.8667,3.8585,3.8567,3.8831,3.8941,3.8978,3.982,4.0297,0.0,0.0,0.0,0.0,0.0,0.0,0.0,0.0,0.0,0.0,0.0,0.0,0.0,0.0,0.0,0.0,0.0,0.0,0.0,6.1031,6.5558,6.9926,7.3156,7.4441,7.4918,7.5175,7.3634,7.1637,7.0022,6.76,6.5215,6.3527,6.2976,6.2646,6.2071,6.3796,6.5852,6.7444,7.0403,7.3619,7.6848,8.0131,8.3398,8.6611,9.0629,9.3859,9.5768,9.7126,9.7916,9.7916,0.0,0.0,9.7933,9.7916,9.753,9.6722,9.6685,9.6685,9.6685,9.5107,9.4299,9.4263,9.2611,9.1803,9.1803,9.1803,0.0,0.0,0.0,0.0,0.0,9.006,8.94,8.9253,8.7638,8.6978,8.6978,8.6978,8.6978,8.6978,0.0,0.0,0.0,0.0,0.0,0.0,0.0,2.4159,2.451,2.5,2.5295,2.5886,2.693,2.7596,2.8127,2.8649,2.9378,0.0,0.0,0.0,0.0,0.0,0.0,0.0,0.0,3.7301,3.7807,3.8596,3.8512,3.842,3.8417,3.8417,3.8417,3.8417,3.8919,3.9321,0.0,0.0,0.0,0.0,0.0,0.0,4.3205,0.0,0.0,0.0,0.0,0.0,0.0,0.0,0.0,0.0,0.0,0.0,0.0,0.0,6.075,6.5264,6.8825,7.0587,7.1445,7.1445,7.044,6.9142,6.782,6.5875,6.3967,6.2622,6.2365,6.2181,6.1704,6.3649,6.5852,6.7444,7.0403,7.3619,7.6848,8.0131,8.3728,8.7858,9.1877,9.4923,9.6539,9.7713,9.8484,9.8778,0.0,0.0,9.8411,9.8337,9.7823,9.6722,9.6685,9.6685,9.6685,9.5107,9.4299,9.4263,9.2611,9.1803,9.1803,9.1803,0.0,0.0,0.0,0.0,0.0,9.006,8.94,8.9253,8.7638,8.6978,8.6978,8.6978,8.6978,8.6978,0.0,0.0,0.0,0.0,0.0,0.0,0.0,2.3781,2.4284,2.4284,2.4949,2.5429,2.5465,2.6812,2.7708,2.7781,0.0,0.0,0.0,0.0,0.0,0.0,0.0,0.0,0.0,3.67,3.7502,3.8385,3.8377,3.8377,3.8377,3.8377,3.8377,3.8377,3.8377,3.8806,0.0,0.0,0.0,0.0,0.0,0.0,0.0,0.0,0.0,0.0,0.0,0.0,0.0,0.0,0.0,0.0,0.0,0.0,0.0,0.0,0.0,0.0,0.0,6.6035,6.737,6.7444,6.6769,6.5962,6.5288,6.382,0.0,6.1667,6.1557,6.163,6.1667,6.3686,6.5852,6.7517,7.044,7.3619,7.6848,8.0351,8.4572,9.0041,9.2831,9.496,9.6612,9.819,9.9438,0.0,0.0,0.0,9.9181,9.9108,9.8374,9.6759,9.6685,9.6685,9.6612,9.507,9.4263,9.4189,9.2574,9.1803,9.1803,9.1803,0.0,0.0,0.0,0.0,0.0,9.0024,8.9363,8.9143,8.7601,8.6978,8.6978,8.6978,8.6978,8.6978,0.0,0.0,0.0,0.0,0.0,0.0,0.0,0.0,0.0,0.0,2.4341,2.4647,2.5281,2.6166,2.6964,0.0,0.0,0.0,0.0,0.0,0.0,0.0,0.0,0.0,3.5887,3.5944,3.6684,3.8076,3.8036,3.8029,3.8029,3.8029,3.8029,3.8029,3.8029,3.8462,0.0,0.0,0.0,0.0,0.0,0.0,0.0,0.0,0.0,0.0,4.3156,4.4155,0.0,0.0,0.0,0.0,0.0,0.0,0.0,0.0,5.4876,5.6932,5.9134,0.0,6.4127,6.48,6.3846,6.2842,0.0,6.2132,6.0921,6.0713,6.1153,6.1777,6.2389,6.404,6.6022,6.8274,7.0807,7.3619,7.6848,8.2243,8.7288,9.1069,9.3161,9.518,9.7383,9.8521,9.9438,0.0,0.0,10.0796,9.9181,9.9108,9.8374,9.6759,9.6685,9.6392,9.5785,9.4813,9.3969,9.3382,9.2317,9.1803,9.1803,9.1803,0.0,0.0,0.0,0.0,9.0812,8.9803,8.9033,8.839,8.7381,8.6978,8.6978,8.6978,8.6978,8.6978,0.0,0.0,0.0,0.0,0.0,0.0,0.0,0.0,0.0,0.0,0.0,2.4228,2.4672,2.5652,0.0,0.0,0.0,0.0,0.0,0.0,0.0,0.0,0.0,3.4057,3.5684,3.5624,3.6348,3.7941,3.7925,3.789,3.789,3.789,3.789,3.789,3.789,3.8151,0.0,0.0,0.0,0.0,4.2132,0.0,0.0,0.0,0.0,0.0,4.2833,4.3894,0.0,4.5378,4.6561,4.8085,0.0,0.0,0.0,0.0,5.3261,5.484,5.6466,5.8988,6.1361,6.2181,6.1704,6.1263,6.2071,6.13,6.0493,6.086,6.1594,6.2291,6.2719,6.4787,6.7063,6.9119,7.1798,7.5234,7.9968,8.4959,8.9179,9.206,9.3859,9.5804,0.0,9.8851,9.9585,0.0,0.0,10.0393,9.9181,9.8741,9.797,9.6722,9.6355,9.5932,9.5492,9.4703,9.3896,9.3088,9.2207,9.1803,9.1803,9.1803,0.0,0.0,0.0,0.0,9.0519,8.9344,8.861,8.8133,8.7325,8.6978,8.6978,8.6978,8.6978,8.6978,0.0,0.0,0.0,0.0,0.0,0.0,0.0,0.0,0.0,0.0,0.0,0.0,0.0,0.0,0.0,0.0,0.0,0.0,0.0,0.0,0.0,0.0,0.0,3.3832,3.544,3.5424,3.6205,3.7811,3.7909,3.7981,3.7981,3.7981,3.7918,3.7828,3.7828,3.7837,0.0,0.0,0.0,0.0,4.1903,0.0,0.0,0.0,0.0,0.0,0.0,0.0,0.0,4.5273,4.6438,4.7846,4.7965,0.0,0.0,0.0,0.0,0.0,5.4997,5.7005,5.8902,5.993,6.0224,6.0419,6.1227,6.0896,6.0676,6.1594,6.2328,6.2939,6.3453,6.5925,6.8508,7.033,7.367,7.806,8.3948,8.7528,9.0464,9.2831,9.463,9.6556,9.8868,9.9218,0.0,0.0,0.0,9.9952,9.9145,9.8337,9.753,9.6722,9.5914,9.5418,9.5327,9.452,9.3712,9.2905,9.2134,9.1803,9.1803,9.1803,9.173,0.0,0.0,0.0,9.0152,8.8757,8.8133,8.7949,8.7288,8.6978,8.6978,8.6978,8.6978,8.6978,0.0,0.0,0.0,0.0,0.0,0.0,0.0,0.0,0.0,0.0,0.0,0.0,0.0,0.0,0.0,0.0,0.0,0.0,0.0,0.0,0.0,3.0389,3.2069,3.3713,3.522,3.5187,3.5883,3.7399,3.8064,3.8419,3.8419,3.8419,3.8067,3.7476,3.7476,3.754,3.7738,0.0,0.0,0.0,0.0,0.0,0.0,0.0,0.0,0.0,0.0,0.0,0.0,4.5062,4.6065,4.7107,4.7773,0.0,0.0,0.0,0.0,0.0,5.4142,5.5354,5.6675,5.8829,5.938,5.96,6.0419,6.0493,6.0811,6.2316,6.2719,6.3637,6.6452,6.7907,6.9706,7.2642,7.7598,8.215,8.5213,8.839,9.1088,9.2905,9.5107,9.7199,9.8905,9.9732,0.0,0.0,0.0,9.9952,9.9145,9.8337,9.753,9.6722,9.5914,9.518,9.4483,9.3675,9.2868,9.1987,9.184,9.1803,9.1803,9.1803,9.1436,0.0,0.0,8.9821,8.8536,8.8316,8.7802,8.7161,8.7051,8.6978,8.6978,8.6978,8.6978,8.6978,0.0,0.0,0.0,0.0,0.0,0.0,0.0,0.0,0.0,0.0,0.0,0.0,0.0,0.0,0.0,0.0,0.0,0.0,0.0,0.0,0.0,3.095,3.2535,3.3963,3.5074,3.5448,3.6386,3.7897,3.8241,3.8675,3.9065,3.864,3.827,3.7964,3.7548,3.7612,3.8112,3.9248,0.0,0.0,0.0,0.0,0.0,0.0,0.0,0.0,0.0,0.0,0.0,0.0,4.5956,4.6924,4.7736,0.0,0.0,0.0,0.0,0.0,5.3849,5.4987,5.6099,5.807,5.8866,5.9636,6.1325,6.1692,6.2279,6.4371,6.5154,6.6182,6.8582,7.0367,7.2826,7.6974,8.0938,8.4499,8.7362,9.0188,9.2574,9.4189,0.0,9.7823,9.8978,0.0,0.0,0.0,0.0,0.0,9.8484,0.0,9.6869,9.6098,9.529,9.4483,9.3675,9.2831,9.2207,9.1803,9.1803,9.1803,9.1803,9.1363,9.0959,9.0555,0.0,8.8867,8.8169,8.7729,8.7325,8.6978,8.6978,8.6978,8.6978,8.6978,8.6978,8.7051,0.0,0.0,0.0,0.0,0.0,0.0,0.0,0.0,0.0,0.0,0.0,0.0,0.0,0.0,0.0,0.0,0.0,0.0,0.0,0.0,3.0627,3.1409,3.3104,3.4314,3.4951,3.5676,3.6824,3.8349,3.8525,3.902,3.9817,3.9161,3.8828,3.8716,3.809,3.8135,3.8736,3.9535,4.0253,0.0,0.0,0.0,0.0,0.0,0.0,0.0,0.0,0.0,0.0,0.0,0.0,0.0,0.0,0.0,0.0,5.0325,5.0802,5.1316,5.3739,5.4987,5.6025,5.7813,5.9024,6.0297,6.2352,6.3233,6.4297,6.6586,6.7687,6.8875,7.0844,7.3523,7.6827,8.1158,8.4022,8.6738,8.9546,9.2097,9.4189,9.5602,9.7199,9.8484,9.9292,0.0,0.0,0.0,0.0,0.0,9.7953,0.0,9.6135,9.5528,9.4556,9.3712,9.3125,9.2244,9.1803,9.1803,9.1803,9.1693,9.151,9.0886,9.0408,8.9968,8.8757,8.8096,8.7876,8.7252,8.6978,8.6978,8.6978,8.6978,8.6978,8.6978,8.7124,8.7362,0.0,0.0,0.0,0.0,0.0,0.0,0.0,0.0,0.0,0.0,0.0,0.0,0.0,0.0,0.0,0.0,0.0,0.0,0.0,0.0,3.0509,3.1202,3.3415,3.4691,3.4808,3.561,3.669,3.8103,3.8876,3.9659,4.0418,4.0383,4.0014,3.9448,3.9378,3.9418,3.957,4.0359,4.0759,4.0865,0.0,0.0,0.0,0.0,0.0,0.0,0.0,0.0,0.0,0.0,0.0,0.0,0.0,0.0,4.8627,5.0325,5.0802,5.1316,5.3739,5.4987,5.6172,5.8535,6.026,6.1667,6.2572,6.4591,6.6696,6.8371,6.9376,7.0881,7.3986,7.7818,8.1342,8.3911,8.6978,8.9657,9.1363,9.3786,9.5658,9.6502,9.8043,9.9328,0.0,0.0,0.0,0.0,0.0,0.0,9.7916,0.0,0.0,9.5492,9.4006,9.3161,9.3088,9.2244,9.1803,9.1803,9.1803,9.14,9.0702,9.0629,8.9784,8.8353,8.8243,8.7766,8.7088,8.7014,8.6978,8.6978,8.6978,8.6978,8.6978,8.6978,8.7472,8.8133,0.0,0.0,0.0,0.0,0.0,0.0,0.0,0.0,0.0,0.0,0.0,0.0,0.0,0.0,0.0,0.0,0.0,0.0,0.0,3.0302,3.1075,3.1725,3.3533,3.4529,3.4567,3.5917,3.7361,3.8855,4.0119,4.0902,4.1183,4.0702,4.0348,4.0109,3.9606,3.9662,4.0197,4.0479,4.0866,4.1324,4.1817,0.0,0.0,0.0,0.0,0.0,0.0,0.0,0.0,0.0,4.5411,4.5877,4.7491,4.8141,4.8627,5.0325,5.0802,5.1316,5.3739,5.4987,5.6319,5.9208,6.1557,6.3515,6.4787,6.6586,6.8752,7.1358,7.2532,7.4221,7.8002,8.0775,8.3271,8.5693,8.8372,9.0721,9.2391,9.4703,9.6539,9.7346,9.8851,9.9769,0.0,0.0,0.0,0.0,0.0,0.0,0.0,0.0,0.0,9.4777,9.3675,9.2831,9.2281,9.195,9.1803,9.1803,9.1803,9.1363,9.0592,9.006,8.9271,8.8169,8.7655,8.7288,8.6978,8.6978,8.6978,8.6978,8.6978,8.6978,8.6978,8.6978,8.7509,8.828,0.0,0.0,0.0,0.0,0.0,0.0,0.0,0.0,0.0,0.0,0.0,0.0,0.0,0.0,0.0,0.0,0.0,0.0,2.9822,3.0617,3.1455,3.2412,3.37,3.4501,3.4735,3.6182,3.7662,3.9224,4.081,4.1604,4.1604,4.1089,4.0843,4.0808,4.027,4.034,4.0843,4.0843,4.1159,4.1615,4.1858,4.1955,0.0,0.0,0.0,0.0,0.0,0.0,0.0,0.0,4.5593,4.6205,4.7564,4.8141,4.8627,5.0325,5.0802,5.1389,5.4032,5.5354,5.6748,5.9979,6.2658,6.5044,6.7136,6.9082,7.1174,7.3891,7.5909,7.8222,8.1525,8.3454,8.5326,8.7748,8.9968,9.1987,9.3639,9.5511,9.7016,9.7787,9.8851,0.0,0.0,0.0,0.0,0.0,0.0,0.0,0.0,0.0,0.0,0.0,9.3125,9.2391,9.1803,9.1803,9.1657,9.1436,9.1436,9.0996,9.017,8.94,8.8556,8.7802,8.7234,8.6978,8.6978,8.6978,8.6978,8.6978,8.6978,8.6978,8.7014,8.7271,8.7912,8.8683,0.0,0.0,0.0,0.0,0.0,0.0,0.0,0.0,0.0,0.0,0.0,0.0,0.0,0.0,0.0,0.0,0.0,0.0,2.9758,3.0507,3.1576,3.3132,3.396,3.4735,3.5491,3.6301,3.7502,3.9118,4.0777,4.1593,4.1604,4.1604,4.1604,4.1604,4.1604,4.1604,4.1604,4.1604,4.1604,4.1615,4.1747,4.1891,0.0,0.0,0.0,0.0,0.0,0.0,0.0,0.0,4.5956,4.6924,4.7746,4.8141,4.8627,5.0325,5.0802,5.1499,5.474,5.6198,5.7593,6.0823,6.3466,6.6169,6.9412,7.1982,7.4184,7.5836,7.9396,8.27,8.4315,8.593,8.7785,9.0225,9.2024,9.3675,9.5272,9.6208,9.7016,9.7787,9.7916,0.0,0.0,0.0,0.0,0.0,0.0,0.0,0.0,0.0,0.0,0.0,9.2244,9.1803,9.1803,9.1803,9.1363,9.0592,9.0592,9.017,8.9363,8.8573,8.7766,8.6978,8.6978,8.6978,8.6978,8.6978,8.6978,8.6978,8.6978,8.6978,8.7088,8.7912,8.872,8.951,0.0,0.0,0.0,0.0,0.0,0.0,0.0,0.0,0.0,0.0,0.0,0.0,0.0,0.0,0.0,0.0,0.0,0.0,3.0447,3.1176,3.2015,3.2954,3.3759,3.452,3.5281,3.6727,3.8,3.9118,4.0262,4.1089,4.1604,4.1604,4.1604,4.1604,4.1604,4.1604,4.1604,4.1604,4.1648,4.1747,4.1891,4.1998,4.2079,0.0,0.0,0.0,0.0,0.0,0.0,0.0,0.0,0.0,4.7862,4.82,4.8627,5.0325,5.0802,5.1499,5.474,5.6198,5.7691,6.1508,6.4714,6.7994,7.1762,7.3634,7.5652,7.958,8.27,8.5049,8.6114,8.7601,8.929,9.1216,9.2868,9.4299,9.5345,9.6685,9.764,9.7879,9.8411,0.0,0.0,0.0,0.0,0.0,0.0,0.0,0.0,0.0,0.0,0.0,9.2244,9.1546,9.0959,9.0959,9.0555,8.9767,8.9197,8.8793,8.8536,8.8316,8.7766,8.6978,8.6978,8.6978,8.6978,8.6978,8.6978,8.6978,8.6978,8.6978,8.7088,8.7912,8.872,8.951,0.0,0.0,0.0,0.0,0.0,0.0,0.0,0.0,0.0,0.0,2.605,2.6668,0.0,0.0,0.0,0.0,0.0,0.0,0.0,3.171,3.2624,3.3362,3.4121,3.488,3.5628,3.6755,3.792,3.9065,4.0041,4.0878,4.1604,4.1604,4.1604,4.1604,4.1604,4.1604,4.1604,4.1659,4.1725,4.1812,4.1998,4.2058,4.2132,0.0,0.0,0.0,0.0,0.0,0.0,0.0,0.0,0.0,4.8011,4.8256,4.8627,5.0325,5.0802,5.1499,5.474,5.6638,5.8646,6.2401,6.5999,6.9977,7.497,7.6974,7.8993,8.3251,8.527,8.6738,8.8152,8.9473,9.0922,9.2574,9.3932,9.507,9.5859,9.6795,9.7419,9.7419,0.0,0.0,0.0,0.0,0.0,0.0,0.0,0.0,0.0,0.0,0.0,0.0,9.1767,9.1106,9.0592,9.028,8.973,8.8923,8.8426,8.8023,8.7729,8.7729,8.7472,8.6978,8.6978,8.6978,8.6978,8.6978,8.6978,8.6978,8.6978,8.6978,8.7124,8.828,8.8959,8.9546,0.0,0.0,0.0,0.0,0.0,0.0,0.0,0.0,0.0,0.0,2.6469,2.6695,0.0,0.0,0.0,0.0,0.0,0.0,0.0,0.0,3.3264,3.4145,3.4904,3.5594,3.6284,3.6641,3.753,3.9014,3.9939,4.0808,4.1604,4.1604,4.1639,4.171,4.1628,4.1639,4.1732,4.1782,4.1801,4.1845,4.2037,4.2121,4.2163,4.2405,0.0,0.0,0.0,0.0,0.0,0.0,0.0,0.0,4.8168,4.8265,4.8627,5.0325,5.0839,5.161,5.4851,5.7483,6.0114,6.3392,6.743,7.2275,7.8605,8.1285,8.3287,8.6371,8.7124,8.7895,9.0188,9.1253,9.2354,9.4006,9.4923,9.5694,9.6575,9.6685,9.6685,9.6685,0.0,0.0,0.0,0.0,0.0,0.0,0.0,0.0,0.0,0.0,0.0,9.173,9.0922,9.0482,9.0372,8.9657,8.8886,0.0,8.8096,8.7729,8.6978,8.6978,8.6978,8.6978,8.6978,8.6978,8.6978,8.6978,8.6978,8.6978,8.6978,8.6978,8.7198,8.8812,8.94,8.962,0.0,0.0,0.0,0.0,0.0,0.0,0.0,0.0,0.0,0.0,0.0,0.0,0.0,0.0,0.0,0.0,0.0,0.0,0.0,0.0,3.3308,3.4737,3.5621,3.6146,3.6284,3.7148,3.8028,3.9014,3.9357,4.0259,4.1604,4.1604,4.1944,4.2506,4.1885,4.1965,4.2581,4.2027,4.1888,4.2048,4.21,4.2173,4.2277,4.2435,0.0,0.0,0.0,0.0,0.0,0.0,0.0,0.0,4.8209,4.8287,4.8627,5.0325,5.1242,5.2428,5.5684,5.8279,6.0921,6.4237,6.9963,7.6019,8.0608,8.292,8.4646,8.6611,8.8005,8.9253,9.0391,9.1253,9.2354,9.4006,9.4446,9.507,9.6502,9.6685,9.6685,0.0,0.0,0.0,0.0,0.0,0.0,0.0,0.0,0.0,0.0,0.0,0.0,9.0849,9.006,8.9363,8.872,8.8536,8.8059,0.0,8.7234,8.7161,8.6978,8.6978,8.6978,8.6978,8.6978,8.6978,8.6978,8.6978,8.6978,8.6978,8.6978,8.6978,8.7198,8.8812,8.94,8.962,0.0,0.0,0.0,0.0,0.0,0.0,0.0,0.0,0.0,0.0,0.0,0.0,0.0,0.0,0.0,0.0,0.0,0.0,0.0,0.0,3.425,3.5541,3.6059,3.6284,3.6284,3.7286,3.8202,3.9014,3.9952,4.0996,4.2155,4.2155,4.261,4.3416,4.2994,4.3062,4.3527,4.2815,4.2594,4.2665,4.2326,4.2267,4.245,4.2946,0.0,0.0,0.0,0.0,0.0,0.0,0.0,0.0,0.0,0.0,4.8627,5.0325,5.1353,5.2721,5.5941,5.8841,6.2218,6.7467,7.2738,7.7635,8.1342,8.3434,8.527,8.7675,8.8812,8.9767,9.0959,9.1877,9.2721,9.3565,9.4373,9.5034,9.5474,9.5878,9.5988,0.0,0.0,0.0,0.0,0.0,0.0,0.0,0.0,9.1693,0.0,9.0482,9.0024,9.0024,8.9253,8.861,8.8206,8.7839,8.7435,8.6978,8.6978,8.6978,8.6978,8.6978,8.6978,8.6978,8.6978,8.6978,8.6978,8.6978,8.6978,8.6978,8.6978,8.6978,8.7198,8.8812,8.94,8.962,0.0,0.0,0.0,0.0,0.0,0.0,0.0,0.0,0.0,0.0,0.0,0.0,0.0,0.0,0.0,0.0,0.0,0.0,0.0,0.0,0.0,3.6137,3.6255,3.6353,3.649,3.7495,3.8411,3.9188,4.0933,4.2201,4.3031,4.3031,4.3487,4.4295,4.4176,4.4291,4.4487,4.3806,4.354,4.3512,4.2965,4.2818,4.3028,4.375,4.4201,4.459,4.5992,4.6602,4.6825,4.7703,0.0,0.0,0.0,0.0,4.8627,5.0325,5.1463,5.2894,5.5967,5.9575,6.4053,7.0807,7.4903,7.817,8.1452,8.3434,8.549,8.8556,8.929,8.9877,9.151,9.2391,9.2941,9.3088,9.4226,9.4923,9.4373,9.4887,0.0,0.0,0.0,0.0,0.0,0.0,0.0,0.0,0.0,9.0391,9.0391,8.962,8.9179,8.9179,8.8426,8.7986,8.7986,8.7325,8.6978,8.6978,8.6978,8.6978,8.6978,8.6978,8.6978,8.6978,8.6978,8.6978,8.6978,8.6978,8.6978,8.6978,8.6978,8.6978,8.7198,8.8812,8.94,8.962,0.0,0.0,0.0,0.0,0.0,0.0,0.0,0.0,0.0,0.0,2.8673,2.9331,0.0,0.0,0.0,0.0,0.0,0.0,0.0,0.0,0.0,3.6019,3.6212,3.6639,3.7329,3.8339,3.9212,3.9932,4.1773,4.3101,4.3919,4.3919,4.4342,4.5106,4.4515,4.4699,4.5369,4.4656,4.4456,4.4582,4.4496,4.4534,4.4684,4.4906,4.5426,4.6024,4.639,4.6964,4.7586,4.7885,4.8002,0.0,0.0,0.0,4.8627,5.0325,5.1856,5.3581,5.6113,6.1227,6.6916,7.1394,7.4903,7.817,8.1452,8.3434,8.5306,8.7839,8.8923,8.9877,9.151,9.1913,9.2207,9.2978,9.3272,9.3639,9.4226,9.4373,0.0,0.0,0.0,0.0,0.0,0.0,0.0,0.0,9.006,8.9546,8.9546,8.8793,8.8353,8.8353,8.7582,8.7178,8.7178,8.7051,8.6978,8.6978,8.6978,8.6978,8.6978,8.6978,8.6978,8.6978,8.6978,8.6978,8.6978,8.6978,8.6978,8.6978,8.6978,8.6978,8.7198,8.8812,8.94,8.962,0.0,0.0,0.0,0.0,0.0,0.0,0.0,0.0,0.0,0.0,0.0,2.9994,0.0,0.0,0.0,0.0,0.0,0.0,0.0,0.0,0.0,3.5997,3.6625,3.7189,3.7599,3.8916,4.0046,4.088,4.2658,4.3955,4.4788,4.5811,4.6472,4.6791,4.6495,4.6635,4.6964,4.582,4.5372,4.5423,4.5057,4.4972,4.5158,4.5632,4.6045,4.6468,4.698,0.0,4.784,4.7941,4.8042,4.8111,4.8258,0.0,0.0,0.0,5.193,5.4021,5.7802,6.2242,6.6806,7.083,7.3913,7.6922,8.0681,8.2774,8.4609,8.7031,8.8169,8.9234,9.0849,9.151,9.1913,9.2317,9.2794,9.3051,9.2905,9.3308,0.0,0.0,0.0,0.0,0.0,0.0,0.0,0.0,8.9179,8.872,8.872,8.7986,8.7545,8.7545,8.7161,8.6978,8.6978,8.6978,8.6978,8.6978,8.6978,8.6978,8.6978,8.6978,8.6978,8.6978,8.6978,8.6978,8.6978,8.6978,8.6978,8.6978,8.6978,8.6978,8.7124,8.8299,8.8996,8.9583,0.0,0.0,0.0,0.0,0.0,0.0,0.0,0.0,0.0,0.0,0.0,0.0,0.0,0.0,0.0,0.0,0.0,0.0,0.0,0.0,0.0,3.626,3.7072,3.7728,3.8252,3.946,4.0661,4.1774,4.3335,4.4635,4.5682,4.7453,4.8449,4.8687,4.8473,4.8425,4.8459,4.7178,4.6671,4.6632,4.5928,4.5853,4.6199,4.6741,4.7155,4.7482,4.8098,0.0,0.0,0.0,4.8693,4.8829,4.8891,4.937,0.0,0.0,0.0,5.4766,5.9208,6.2658,6.5949,6.9986,7.2958,7.5931,7.98,8.1929,8.3785,8.6187,8.7325,8.8316,8.9748,9.0665,9.1179,9.1179,9.173,9.195,9.1289,9.1767,0.0,0.0,0.0,0.0,0.0,0.0,0.0,0.0,8.8353,8.7912,8.7912,8.7325,8.6978,8.6978,8.6978,8.6978,8.6978,8.6978,8.6978,8.6978,8.6978,8.6978,8.6978,8.6978,8.6978,8.6978,8.6978,8.6978,8.6978,8.6978,8.6978,8.6978,8.6978,8.6978,8.7088,8.7912,8.872,8.951,0.0,0.0,0.0,0.0,0.0,0.0,0.0,0.0,0.0,0.0,0.0,0.0,0.0,0.0,3.3626,3.4347,0.0,0.0,0.0,0.0,0.0,3.7023,3.7336,0.0,3.9766,4.0005,4.0905,4.2521,4.3581,4.4917,4.6566,4.8329,4.9661,5.0546,4.9746,4.9423,4.9375,4.8665,4.8454,4.8482,4.7688,4.7908,4.8692,4.8764,4.9246,0.0,0.0,0.0,0.0,0.0,0.0,5.0513,5.0615,5.0692,5.0912,0.0,0.0,0.0,5.9501,6.2254,6.5131,6.9155,7.2569,7.5763,7.9119,8.1101,8.2957,8.5343,8.6518,8.7308,8.8169,8.8959,8.951,8.951,8.9546,8.9583,8.9546,8.9546,0.0,0.0,0.0,0.0,0.0,0.0,0.0,0.0,8.7509,8.7051,8.7051,8.7014,8.6978,8.6978,8.6978,8.6978,8.6978,8.6978,8.6978,8.6978,8.6978,8.6978,8.6978,8.6978,8.6978,8.6978,8.6978,8.6978,8.6978,8.6978,8.6978,8.6978,8.6978,8.6978,8.7088,8.7912,8.872,8.951,0.0,0.0,0.0,0.0,0.0,0.0,0.0,0.0,0.0,0.0,0.0,0.0,0.0,3.366,3.4201,3.4483,3.4934,0.0,0.0,0.0,0.0,3.7911,3.855,3.9248,3.9993,4.0525,4.1706,4.3569,4.4023,4.509,4.6766,4.8568,4.9567,4.9949,5.0163,5.0318,5.0353,4.9665,4.942,4.9464,4.9242,4.9369,4.9655,4.9655,0.0,0.0,0.0,0.0,0.0,0.0,0.0,0.0,5.0782,5.1169,5.172,5.2527,5.4106,5.6099,5.8253,6.0639,6.3478,6.7554,7.0183,7.2789,7.657,7.8699,8.0571,8.2994,8.4132,8.5069,8.6407,8.8169,8.94,8.94,8.94,8.94,8.94,8.94,0.0,0.0,0.0,0.0,0.0,0.0,0.0,0.0,0.0,0.0,8.6978,8.6518,8.6224,8.6224,8.5747,8.571,8.6224,8.6738,8.6978,8.6978,8.6978,8.6978,8.6978,8.6978,8.6978,8.6978,8.6978,8.6978,8.6978,8.6978,8.6978,8.6978,8.6978,8.6978,8.7014,8.7308,8.8262,8.9436,0.0,0.0,0.0,0.0,0.0,0.0,0.0,0.0,0.0,0.0,0.0,0.0,0.0,0.0,3.5385,3.57,3.6164,3.6718,3.7399,3.7513,3.7923,3.878,3.9411,3.9997,4.0443,4.1045,4.2251,4.4083,4.4289,4.5357,4.7286,4.853,4.9446,5.0066,5.0605,5.1047,5.1346,5.0656,5.0351,5.0362,5.0176,5.0427,5.0909,5.0953,0.0,0.0,0.0,0.0,0.0,0.0,0.0,0.0,5.2087,5.2197,5.2564,5.3371,5.4546,5.5952,5.7556,5.9758,6.2377,6.5681,6.8091,7.0624,7.4111,7.6387,7.8442,8.0865,8.226,8.3434,8.4756,8.6518,8.7968,8.8519,8.8592,8.8592,8.8592,8.8592,0.0,0.0,0.0,0.0,0.0,0.0,0.0,0.0,0.0,0.0,8.617,8.5673,8.538,8.538,8.4866,8.4866,8.538,8.593,8.6334,8.6591,8.6591,8.6738,8.6978,8.6978,8.6978,8.6978,8.6978,8.6978,8.6978,8.6978,8.6978,8.6978,8.6978,8.6978,8.6978,8.6978,8.8005,8.94,0.0,0.0,0.0,0.0,0.0,0.0,0.0,0.0,0.0,3.348,0.0,0.0,0.0,0.0,0.0,3.8033,3.8113,3.816,3.8344,3.8403,3.8791,3.9605,0.0,0.0,4.1174,4.1482,4.2444,4.413,4.4414,4.5766,4.8163,4.8279,4.9287,5.1054,5.109,5.1559,5.2257,5.1601,5.1368,5.1296,5.0535,5.1151,5.2575,0.0,0.0,0.0,5.5202,5.5366,0.0,5.5443,0.0,0.0,0.0,5.3922,5.3434,5.4216,5.4997,5.5989,0.0,0.0,0.0,6.3662,6.6439,6.9449,7.1835,7.4258,7.6644,7.9155,8.0954,8.2296,8.3124,8.3948,8.5013,8.6611,8.6904,8.6904,8.6904,8.6904,0.0,0.0,0.0,0.0,0.0,0.0,0.0,0.0,8.4609,8.4609,8.4609,8.4572,8.4535,8.4535,8.4535,8.4572,8.4572,8.4609,8.4976,8.5747,8.5783,8.6224,8.6978,8.6978,8.6978,8.6978,8.6978,8.6978,8.6978,8.6978,8.6978,8.6978,8.6978,8.6978,8.6978,8.6978,8.8005,8.94,0.0,0.0,0.0,0.0,0.0,0.0,3.4121,3.4212,3.4618,0.0,0.0,0.0,3.7058,3.758,3.799,3.823,3.823,3.8527,3.9214,3.9365,3.9779,4.0654,4.0793,4.1,4.1358,4.2098,4.3063,4.4219,4.5058,4.6128,4.7503,4.8243,4.917,5.0259,5.0952,5.1674,5.2434,5.2251,5.248,5.3023,5.277,5.3313,0.0,0.0,0.0,0.0,0.0,5.7186,5.718,0.0,5.6421,5.6345,0.0,0.0,5.4997,5.5218,5.5831,5.6675,5.7703,0.0,0.0,0.0,0.0,0.0,6.9339,7.1307,7.3325,7.5763,7.7546,7.9087,8.0534,8.1452,8.2333,8.3361,8.4499,8.527,8.527,8.527,0.0,0.0,0.0,0.0,0.0,0.0,0.0,0.0,8.4609,8.4609,8.4609,8.4042,8.3471,8.2884,8.3434,8.3711,8.3711,8.4315,8.4719,8.4939,8.5527,8.593,8.6151,8.6738,8.6978,8.6978,8.6978,8.6978,8.6978,8.6978,8.6978,8.6978,8.6978,8.6978,8.6978,8.6978,8.8005,8.94,0.0,0.0,0.0,0.0,0.0,3.5067,3.5407,3.5723,3.6254,0.0,0.0,0.0,3.8978,3.9436,3.9838,4.024,4.024,4.0393,4.0675,4.0757,4.1047,4.1614,4.1743,4.1974,4.2438,4.3077,4.3904,4.4875,4.5573,4.6346,4.7256,4.7911,4.867,4.9531,5.0393,5.126,5.2045,5.2733,5.3277,5.3711,5.3711,5.4617,0.0,5.66,5.7534,0.0,0.0,0.0,5.9428,5.8951,5.8352,0.0,0.0,0.0,0.0,0.0,0.0,0.0,0.0,5.9171,6.0639,6.1545,0.0,0.0,6.6976,6.8885,7.0793,7.2532,7.472,7.6592,7.7561,7.8699,7.9601,8.0094,8.1269,8.259,8.3911,8.4389,0.0,0.0,0.0,0.0,0.0,8.4095,8.3985,8.3618,8.3581,8.3581,8.3581,8.3141,8.27,8.2223,8.2663,8.292,8.292,8.3361,8.3765,8.4115,8.4572,8.5159,8.582,8.6297,8.6701,8.6978,8.6978,8.6978,8.6978,8.6978,8.6978,8.6978,8.6978,8.6978,8.6978,8.6978,8.8005,8.94,0.0,0.0,3.5845,3.5936,3.6435,3.6852,3.6965,3.753,3.804,0.0,3.8545,3.9184,4.0637,4.1392,0.0,0.0,4.3068,4.2846,4.2375,4.2365,4.2425,4.2555,4.2696,4.3138,4.391,4.4281,4.4852,4.5698,4.6005,4.6539,4.7331,4.745,4.8063,4.9065,4.9775,5.0608,5.155,5.3059,5.3759,5.3868,5.4025,5.5474,0.0,0.0,5.9591,6.158,6.1887,6.1998,6.1961,6.1777,6.0713,0.0,0.0,0.0,0.0,0.0,5.7178,0.0,0.0,0.0,0.0,0.0,6.2254,0.0,6.4971,6.6916,6.8752,6.9522,7.2202,7.4353,7.4353,7.5674,7.6775,7.6775,7.7546,7.9286,8.2427,8.3581,0.0,0.0,0.0,0.0,8.3051,8.2977,8.27,8.1966,8.1929,8.1966,8.2039,8.2076,8.2113,8.2186,8.2186,8.2186,8.2186,8.2186,8.2553,8.3271,8.3344,8.4168,8.5527,8.5727,8.6187,8.6867,8.6941,8.6978,8.6978,8.6978,8.6978,8.6978,8.6978,8.6978,8.6978,8.6978,8.8005,8.94,0.0,3.6062,3.6159,3.6751,3.6899,3.7205,3.7888,3.8138,3.8662,3.988,4.1221,4.219,4.2637,4.2886,4.3182,0.0,4.3468,4.3458,4.3332,4.3369,4.3417,4.3453,4.3676,4.3885,4.4048,4.496,4.5521,4.5786,4.6627,4.7198,4.745,4.7604,4.8438,4.9883,5.0028,5.0898,5.2335,5.3277,5.4097,5.4869,5.6152,5.7363,5.8612,6.0844,6.2005,6.2629,6.4075,6.4591,6.4371,6.3013,6.1924,6.097,0.0,0.0,0.0,0.0,0.0,0.0,0.0,0.0,0.0,0.0,0.0,0.0,6.4127,6.5191,6.6242,6.7026,6.9265,7.1027,7.1027,7.2349,7.345,7.345,7.4661,7.6533,7.9176,8.0241,0.0,0.0,0.0,0.0,8.0514,8.0514,8.044,8.0293,8.0257,8.055,8.1195,8.1232,8.1525,8.2186,8.2186,8.2186,8.2186,8.2186,8.226,8.2443,8.3087,8.3564,8.3895,8.5196,8.5894,8.6077,8.6738,8.6978,8.6978,8.6978,8.6978,8.6978,8.6978,8.6978,8.6978,8.6978,8.8005,8.94,3.6215,3.6381,3.6659,3.7058,3.7706,3.8479,3.9267,3.9711,4.0397,4.1588,4.3253,4.45,4.5022,4.548,4.5752,0.0,0.0,0.0,0.0,4.4985,4.4905,4.4613,4.4741,4.501,4.5433,4.6043,4.6404,4.6481,4.7107,4.7645,4.8096,4.8251,4.8931,5.0101,5.0499,5.1402,5.2692,5.3842,5.5111,5.6345,5.7085,0.0,6.0197,6.2016,6.3496,6.4697,6.5569,6.5888,6.5705,6.4481,6.3783,0.0,0.0,6.1961,6.1508,0.0,6.0713,6.0419,0.0,0.0,0.0,6.1606,0.0,0.0,0.0,6.409,6.4824,6.5228,6.688,6.8311,6.8311,6.9302,7.022,7.066,7.1725,7.3083,7.4735,7.7047,7.8552,0.0,0.0,0.0,7.8552,7.8956,7.9376,7.9779,7.9816,8.0,8.0388,8.0388,8.0755,8.1562,8.1599,8.1782,8.2186,8.2186,8.2186,8.2186,8.2627,8.3014,8.3454,8.4646,8.5416,8.582,8.6664,8.6978,8.6978,8.6978,8.6978,8.6978,8.6978,8.6978,8.6978,8.6978,8.8005,8.94,3.6442,3.6814,3.7239,3.7535,3.8733,3.9896,4.0673,4.1567,4.2602,4.3842,4.536,4.6665,4.7636,4.8277,4.8674,0.0,0.0,0.0,0.0,0.0,4.6671,4.62,4.62,4.6554,4.7287,4.7414,4.754,4.7723,4.7875,4.8298,4.897,4.9094,4.9546,5.0354,5.121,5.2075,5.3049,5.4758,5.6333,5.7692,5.8202,5.9723,6.175,6.2788,6.466,6.6769,6.7063,6.71,6.6843,6.6035,6.5655,6.5411,6.4567,6.387,0.0,0.0,0.0,0.0,0.0,0.0,0.0,0.0,0.0,6.2793,0.0,0.0,0.0,6.3833,6.5007,6.6035,6.6035,6.6696,0.0,0.0,0.0,0.0,0.0,7.3325,0.0,0.0,0.0,0.0,0.0,7.7378,7.8148,7.8825,7.8862,7.9008,7.9286,7.9323,7.9764,8.0755,8.0755,8.1158,8.1966,8.1966,8.2039,8.2186,8.2186,8.2553,8.3197,8.4022,8.4792,8.56,8.6407,8.6885,8.6978,8.6978,8.6978,8.6978,8.6978,8.6978,8.6978,8.6978,8.7932,8.9179,3.7353,3.7324,3.7726,3.9158,4.0052,4.0841,4.1684,4.3165,4.5,4.7308,4.8357,4.9267,5.0355,5.0522,0.0,0.0,0.0,0.0,4.968,0.0,0.0,4.862,4.8731,4.8852,4.902,4.915,4.9336,4.96,4.9634,4.9725,4.9934,4.9945,5.039,5.1187,5.2146,5.299,5.3922,5.632,5.7497,5.8018,6.0932,6.2261,0.0,6.4393,6.6059,6.7737,6.9155,6.9229,6.8495,0.0,6.6953,6.6219,0.0,6.5105,6.4995,0.0,0.0,0.0,0.0,0.0,0.0,0.0,6.3319,0.0,0.0,0.0,6.2939,6.2939,0.0,0.0,0.0,0.0,0.0,0.0,0.0,0.0,6.7026,6.8054,6.9853,0.0,0.0,0.0,0.0,7.4845,7.5344,7.5454,7.5454,7.6078,7.7509,7.7582,7.8316,7.989,7.9926,8.0314,8.1122,8.1158,8.1489,8.2186,8.2186,8.226,8.237,8.3161,8.3985,8.4792,8.56,8.6334,8.6978,8.6978,8.6978,8.6978,8.6978,8.6978,8.6978,8.6978,8.7582,8.8426,3.7603,3.8158,3.894,3.9675,4.0803,4.2037,4.3348,4.5679,4.7862,4.9568,5.0821,5.1983,5.3033,0.0,0.0,0.0,0.0,5.2794,0.0,0.0,0.0,5.0127,5.0175,4.9972,4.9542,4.967,4.9796,4.9897,4.9965,5.0274,5.0789,5.0789,5.1511,5.2824,5.3233,5.4173,5.5562,5.7094,5.8615,6.0164,6.2021,6.3903,0.0,6.6426,6.7687,6.9155,6.9853,6.9889,6.9522,0.0,6.8862,0.0,0.0,0.0,0.0,0.0,0.0,0.0,0.0,0.0,0.0,0.0,0.0,0.0,6.3539,0.0,6.2793,0.0,0.0,0.0,0.0,0.0,0.0,0.0,6.4897,0.0,0.0,0.0,6.732,0.0,0.0,0.0,0.0,0.0,0.0,0.0,0.0,7.4698,7.5858,7.6335,7.7157,7.8332,7.8846,7.969,8.1012,8.1012,8.1415,8.2186,8.2186,8.2186,8.2223,8.3014,8.3821,8.4646,8.5453,8.6261,8.6978,8.6978,8.6978,8.6978,8.6978,8.6978,8.6978,8.6978,8.7509,8.8316,3.8646,3.9225,3.9974,4.0493,4.1672,4.3341,4.5708,4.8343,5.0618,5.2099,5.3655,5.4973,5.6028,5.6894,0.0,0.0,5.687,5.6174,0.0,0.0,5.3765,0.0,0.0,0.0,0.0,5.0971,5.0884,5.0954,5.0828,5.1065,5.1667,5.1667,5.2461,5.3931,5.4221,5.5283,5.698,5.8077,5.9822,6.2034,6.305,6.5448,6.8398,6.8605,6.9412,7.0477,7.066,7.0624,7.044,7.044,7.0293,0.0,6.9412,0.0,0.0,0.0,0.0,0.0,6.6609,0.0,0.0,0.0,0.0,0.0,0.0,0.0,0.0,0.0,0.0,0.0,0.0,0.0,0.0,0.0,0.0,6.3539,0.0,0.0,0.0,0.0,0.0,0.0,0.0,0.0,0.0,0.0,0.0,0.0,7.4169,7.4808,7.5689,7.6922,7.7598,7.8699,8.0351,8.0571,8.1085,8.1856,8.2076,8.2186,8.2223,8.281,8.3654,8.4646,8.5233,8.604,8.6978,8.6978,8.6978,8.6978,8.6978,8.6978,8.6978,8.6978,8.7362,8.8023,4.1046,4.0582,4.0548,4.2079,4.2937,4.4846,4.8903,5.0949,5.2936,5.5511,0.0,0.0,0.0,0.0,0.0,0.0,0.0,5.9896,5.9069,0.0,5.7162,0.0,0.0,5.5235,0.0,0.0,5.3448,5.3566,5.2806,5.2477,5.2554,5.2554,5.3058,5.4057,5.4937,5.6237,5.7858,5.9589,6.1251,6.2903,6.4554,6.7136,7.011,0.0,7.1233,7.1344,7.2151,0.0,0.0,7.127,7.072,0.0,0.0,0.0,0.0,0.0,0.0,0.0,0.0,0.0,0.0,6.7627,0.0,0.0,0.0,0.0,6.4066,0.0,0.0,0.0,0.0,0.0,0.0,0.0,0.0,0.0,0.0,0.0,0.0,0.0,0.0,0.0,0.0,0.0,0.0,0.0,0.0,0.0,7.2496,7.2606,7.3707,7.6056,7.6166,7.6974,7.8662,7.9449,8.0257,8.1048,8.1819,8.2186,8.2186,8.2223,8.3104,8.4609,8.4646,8.5563,8.6978,8.6978,8.6978,8.6978,8.6978,8.6978,8.6978,8.6978,8.7014,8.7271,4.3079,4.3359,4.3512,4.3395,4.4481,4.6753,5.0942,5.3327,0.0,0.0,5.9597,0.0,0.0,6.3672,6.4566,0.0,0.0,6.3228,6.2543,6.1742,0.0,0.0,0.0,5.7448,0.0,0.0,0.0,0.0,5.3721,5.3392,5.339,5.3481,5.402,5.4973,5.6372,5.7637,5.888,6.1056,6.2646,6.3943,6.7173,6.9449,7.0903,0.0,0.0,7.2114,7.2422,7.2349,0.0,7.2092,7.1908,7.1615,7.105,7.0866,7.0793,7.0257,7.011,0.0,0.0,0.0,6.9265,6.9265,0.0,0.0,0.0,0.0,0.0,0.0,0.0,0.0,0.0,0.0,0.0,0.0,0.0,0.0,0.0,0.0,0.0,0.0,0.0,0.0,0.0,0.0,0.0,0.0,6.8068,0.0,0.0,7.1651,7.2863,7.3707,7.5285,7.6644,7.7729,7.9103,8.0204,8.1012,8.1819,8.2186,8.2186,8.2186,8.3067,8.4609,8.4609,8.5527,8.6978,8.6978,8.6978,8.6978,8.6978,8.6978,8.6978,8.6978,8.6978,8.7234,4.4905,4.5647,4.5906,4.5035,4.6644,4.9296,5.2932,0.0,0.0,0.0,6.2421,0.0,6.5377,0.0,6.8069,0.0,6.7662,6.6981,6.6024,6.5496,0.0,6.1426,6.1317,0.0,0.0,0.0,0.0,0.0,5.5026,5.4563,5.4364,5.4444,5.4984,5.5976,5.7294,5.8502,5.9783,6.1912,6.3466,6.4861,6.8605,7.0587,0.0,0.0,7.2041,7.2496,0.0,7.2496,7.2496,7.2496,7.2496,7.2422,7.1894,7.1711,7.16,7.1101,7.0954,7.0954,7.0954,7.0734,0.0,0.0,6.9522,0.0,6.8545,0.0,0.0,0.0,0.0,0.0,0.0,0.0,0.0,0.0,0.0,0.0,0.0,5.9538,0.0,0.0,0.0,0.0,0.0,0.0,6.431,6.5118,6.5962,6.704,0.0,0.0,7.1321,7.2459,7.4294,7.5763,7.6848,7.8552,7.9779,8.0571,8.1379,8.1929,8.2186,8.2186,8.3067,8.4609,8.4609,8.5527,8.6978,8.6978,8.6978,8.6978,8.6978,8.6978,8.6978,8.6978,8.7344,8.8005,4.6625,4.7523,4.789,4.7216,4.9543,5.2399,5.5076,0.0,5.996,0.0,6.576,6.799,6.8854,7.049,7.1561,7.1561,7.1653,7.106,6.9518,6.9445,0.0,0.0,6.4627,6.3504,6.1027,0.0,0.0,0.0,0.0,5.6016,5.5468,5.548,5.5939,5.6847,5.7703,5.8951,6.0529,6.2205,6.393,6.5802,6.8862,7.0624,7.1454,7.2202,0.0,7.2496,7.2496,7.2496,7.2496,7.2496,7.2496,7.2496,7.2496,7.2496,7.2496,7.2496,7.2532,7.2569,7.2569,7.2041,7.149,7.149,0.0,0.0,0.0,0.0,6.8752,0.0,0.0,0.0,0.0,0.0,0.0,0.0,0.0,0.0,0.0,0.0,0.0,0.0,0.0,0.0,0.0,6.108,6.1851,6.2597,6.3539,6.5057,0.0,0.0,6.9132,7.2239,7.323,7.4441,7.6019,7.7745,7.8993,7.9816,8.0608,8.1415,8.2186,8.2186,8.3067,8.4609,8.4609,8.5527,8.6978,8.6978,8.6978,8.6978,8.6978,8.6978,8.6978,8.6978,8.8005,8.94,4.9169,5.1123,5.2942,5.3997,5.4278,5.5208,0.0,0.0,0.0,0.0,6.864,7.0847,7.227,7.3954,7.503,7.503,7.5063,0.0,0.0,0.0,0.0,6.8105,6.8079,6.6721,6.3707,6.2979,0.0,5.9332,0.0,5.702,5.6298,5.6401,5.6568,5.6884,5.8877,6.0015,6.0603,6.3453,6.6279,6.8935,6.9779,7.0954,0.0,0.0,7.2496,7.2496,7.2496,7.2496,7.2496,7.2496,7.2496,7.2496,7.2496,7.2496,7.2496,7.2496,7.2936,7.3377,7.3377,7.367,7.3986,7.3986,7.2936,7.1872,0.0,0.0,0.0,0.0,0.0,0.0,0.0,0.0,0.0,0.0,0.0,0.0,0.0,0.0,0.0,5.7869,0.0,0.0,5.931,6.0176,6.075,6.0872,6.2266,6.338,0.0,0.0,0.0,6.9765,7.2349,7.4184,7.5197,7.7451,7.8993,7.9816,8.0608,8.1415,8.2186,8.2186,8.3067,8.4609,8.4609,8.5527,8.6978,8.6978,8.6978,8.6978,8.6978,8.6978,8.6978,8.6978,8.8005,8.94,5.1949,5.444,5.675,5.7768,5.8664,0.0,6.0699,6.2911,0.0,6.8827,7.1412,0.0,7.5181,7.684,7.7758,7.748,7.7807,0.0,7.5818,0.0,0.0,7.1635,7.1254,6.9588,6.6383,6.5615,0.0,6.1149,0.0,5.8822,5.7734,5.7448,5.7336,5.7409,5.9501,6.0419,6.0639,6.3894,6.7173,7.011,7.011,7.1064,0.0,7.2496,7.2496,7.2496,7.2496,7.2496,7.2496,7.2496,7.2496,7.2496,7.2496,7.2496,7.2496,7.2496,7.3083,7.3722,7.3722,7.4294,7.4903,7.4903,7.4206,7.356,7.356,7.2569,7.1578,0.0,0.0,0.0,0.0,0.0,0.0,0.0,0.0,0.0,0.0,0.0,0.0,0.0,5.7763,0.0,0.0,5.8823,5.931,5.9554,6.0542,6.1605,0.0,0.0,0.0,6.8848,7.1358,7.3377,7.4903,7.6644,7.8259,7.9816,8.0241,8.1085,8.2186,8.2186,8.3067,8.4609,8.4609,8.5527,8.6978,8.6978,8.6978,8.6978,8.6978,8.6978,8.6978,8.6978,8.8005,8.94,5.4932,5.7683,5.9921,6.002,6.2707,0.0,0.0,6.5886,0.0,7.1551,0.0,7.6311,7.7831,7.9461,8.022,7.9701,0.0,8.0114,7.8678,7.8585,7.749,7.5082,7.4238,7.2355,6.9237,6.8106,0.0,0.0,0.0,6.0775,5.9196,5.8474,5.8107,5.807,5.9685,6.0627,6.1227,6.4077,6.7173,7.011,7.011,7.1064,7.2496,7.2496,7.2496,7.2496,7.2496,7.2496,7.2496,7.2496,7.2496,7.2496,7.2496,7.2496,7.2532,7.2642,7.323,7.3891,7.4001,7.4588,7.5197,7.5197,7.5124,7.505,7.505,7.4441,7.3634,7.2826,7.2004,0.0,0.0,0.0,0.0,0.0,0.0,0.0,0.0,0.0,0.0,0.0,0.0,0.0,0.0,0.0,5.7862,5.8579,5.8835,0.0,0.0,0.0,0.0,6.8614,7.0375,0.0,7.4867,0.0,7.7451,7.9816,7.9926,8.0734,8.2186,8.2296,8.3177,8.4609,8.4719,8.56,8.6978,8.6978,8.6978,8.6978,8.6978,8.6978,8.7014,8.7124,8.8115,8.94,5.8221,6.1135,6.3379,6.3506,6.6192,6.8727,6.9834,7.0377,7.1571,7.4122,7.7164,7.9479,8.0596,8.2139,8.3155,8.3221,8.3348,0.0,0.0,0.0,0.0,7.7563,7.6815,7.5232,7.2657,7.0629,6.8037,0.0,0.0,0.0,5.9196,5.9049,5.8657,5.807,5.9685,6.1924,6.4481,6.5068,0.0,7.011,7.011,7.1064,7.2496,7.2496,7.2496,7.2496,7.2496,7.2496,7.2496,7.2496,7.2496,7.2496,7.2496,7.2496,7.2642,7.3303,7.4074,7.483,7.5506,7.6261,7.6885,7.6885,7.6371,7.5909,7.5909,7.5285,7.4478,7.367,7.2863,7.1798,7.0183,0.0,0.0,0.0,0.0,0.0,0.0,0.0,0.0,0.0,0.0,0.0,0.0,0.0,0.0,0.0,0.0,0.0,0.0,0.0,0.0,0.0,0.0,0.0,0.0,0.0,0.0,7.9816,8.0461,8.1305,8.2223,8.2884,8.3728,8.4646,8.5306,8.6114,8.6978,8.6978,8.6978,8.6978,8.6978,8.6978,8.7088,8.7766,8.861,8.94,6.1837,6.4563,6.6799,6.6858,6.9502,0.0,0.0,7.4954,0.0,7.7587,7.9474,8.1213,8.266,8.3825,8.4443,8.4235,8.4581,8.436,8.3293,8.2817,8.1866,8.0308,7.8725,0.0,7.4286,7.2342,6.9779,6.6549,0.0,0.0,6.1068,6.0224,5.96,5.9318,6.0921,6.3013,6.5325,0.0,0.0,7.011,7.011,7.1064,7.2496,7.2496,7.2496,7.2496,7.2496,7.2496,7.2496,7.2496,7.2496,7.2496,7.2496,7.2496,7.2679,7.345,7.4258,7.5087,7.5873,7.6665,7.7289,7.7289,7.6995,7.6702,7.6702,7.6093,7.5285,7.4478,7.367,7.2496,7.0477,6.8164,0.0,0.0,0.0,0.0,0.0,0.0,0.0,0.0,0.0,0.0,0.0,0.0,0.0,0.0,0.0,0.0,0.0,0.0,0.0,0.0,0.0,0.0,0.0,0.0,0.0,7.9816,8.0608,8.1415,8.2223,8.3014,8.3821,8.4646,8.5453,8.6261,8.6978,8.6978,8.6978,8.6978,8.6978,8.6978,8.7088,8.7912,8.872,8.9473,6.5424,6.7851,7.0004,7.0216,7.2608,7.4905,7.6279,7.877,8.0516,8.0516,8.1498,8.2769,8.4238,8.5078,8.5331,8.4901,8.545,8.5539,8.4886,8.4278,8.3471,8.248,8.0461,7.8222,7.5747,7.3927,7.1431,0.0,0.0,0.0,0.0,6.1508,6.0823,6.0713,0.0,0.0,0.0,0.0,6.8054,7.011,7.0293,7.1211,7.2496,7.2496,7.2496,7.2496,7.2496,7.2496,7.2496,7.2496,7.2496,7.2496,7.2496,7.2606,7.2899,7.3707,7.4515,7.5307,7.613,7.6812,7.7289,7.7289,7.7289,7.7289,7.7289,7.6812,7.613,7.5307,7.4258,7.2789,7.0734,6.8912,0.0,0.0,0.0,0.0,0.0,0.0,0.0,0.0,0.0,0.0,0.0,0.0,0.0,0.0,0.0,0.0,0.0,0.0,0.0,0.0,0.0,7.1215,7.3927,0.0,7.7524,0.0,8.0791,8.1672,8.248,8.3287,8.4095,8.4903,8.571,8.6407,8.6978,8.6978,8.6978,8.6978,8.6978,8.6978,8.7124,8.8096,8.8849,8.9546,6.8757,7.0698,7.2665,0.0,0.0,0.0,7.9666,8.0849,8.1489,8.1542,8.3494,8.4987,8.5344,8.6076,8.6622,8.6723,8.6813,8.6537,8.5747,8.56,8.4903,8.3344,8.237,8.0718,7.8295,7.5894,7.312,0.0,0.0,0.0,0.0,0.0,0.0,0.0,0.0,0.0,0.0,6.6953,6.8582,7.0146,7.0866,7.1711,7.2496,7.2496,7.2496,7.2496,7.2496,7.2496,7.2496,7.2496,7.2496,7.2496,7.2496,7.301,7.3744,7.4536,7.5359,7.6166,7.6959,7.7252,7.7289,7.7289,7.7289,7.7289,7.7289,7.7252,7.6959,7.6166,7.4184,7.2312,7.1344,6.9265,6.7664,0.0,0.0,0.0,0.0,0.0,0.0,0.0,0.0,0.0,0.0,0.0,0.0,0.0,0.0,0.0,0.0,0.0,0.0,6.7084,0.0,7.1471,7.4757,7.6371,0.0,7.9816,8.1342,8.2517,8.3308,8.4132,8.4939,8.571,8.6554,8.6904,8.6978,8.6978,8.6978,8.6978,8.6978,8.6978,8.7198,8.8702,8.9326,8.962,0.0,0.0,0.0,0.0,0.0,0.0,0.0,8.3556,8.4707,8.4864,8.5583,8.6533,8.7716,8.812,8.8155,8.7748,8.7729,8.7399,8.6591,8.6077,8.5306,8.4168,8.2884,8.1048,7.8662,7.7105,7.4757,0.0,0.0,0.0,0.0,0.0,0.0,0.0,0.0,6.5668,6.6806,6.7944,6.9339,7.083,7.116,7.1784,7.2496,7.2496,7.2789,7.323,7.323,7.3523,7.3949,7.3949,7.3303,7.2569,7.3083,7.345,7.3927,7.5249,7.5836,7.6276,7.7069,7.7289,7.7289,7.7289,7.7289,7.7289,7.7289,7.7289,7.7069,7.6276,7.4551,7.2973,7.2165,7.0844,6.9376,0.0,0.0,0.0,0.0,0.0,0.0,0.0,0.0,0.0,0.0,0.0,0.0,0.0,0.0,0.0,0.0,0.0,0.0,6.6472,0.0,7.1677,7.4147,7.679,7.8662,7.9816,8.1432,8.2627,8.3418,8.4242,8.5306,8.6554,8.6885,8.6978,8.6978,8.6978,8.6978,8.6978,8.6978,8.6978,8.7198,8.8812,8.94,8.962,7.5557,0.0,7.9075,0.0,8.1206,8.2589,8.4039,8.5704,8.7095,8.7968,8.7936,8.8248,8.9272,8.94,8.9179,8.861,8.8353,8.7949,8.7399,8.6591,8.5783,8.4976,8.3618,0.0,7.969,7.8353,7.6335,7.356,7.2261,0.0,0.0,0.0,0.0,0.0,6.6843,6.7504,6.8141,6.9155,7.0243,7.1344,7.1821,7.2349,7.2899,7.312,7.356,7.4037,7.4037,7.4441,7.4903,7.4903,7.4133,7.3303,7.3854,7.4221,7.4625,7.5763,7.6276,7.6592,7.7142,7.7289,7.7289,7.7289,7.7289,7.7289,7.7289,7.7289,7.7069,7.6276,7.5212,7.4074,7.3046,7.2202,7.0954,0.0,0.0,0.0,0.0,0.0,0.0,0.0,5.9241,5.8205,5.7587,0.0,0.0,0.0,0.0,0.0,0.0,0.0,0.0,0.0,0.0,0.0,0.0,7.7084,7.8993,7.9816,8.1672,8.2957,8.3785,8.4829,8.593,8.6978,8.6978,8.6978,8.6978,8.6978,8.6978,8.6978,8.6978,8.6978,8.7198,8.8812,8.94,8.962,7.8074,7.9351,8.0751,8.1722,8.2561,8.3966,8.6557,8.6978,8.7858,9.0262,9.0537,9.0244,8.9473,8.94,8.94,8.94,8.8683,8.8206,8.8206,8.7435,8.6628,0.0,0.0,8.3801,8.2186,7.98,7.7745,7.6056,0.0,0.0,7.0036,0.0,6.7664,6.77,6.8495,6.8898,6.9009,7.0573,7.127,7.1454,7.3046,7.3685,7.378,7.4588,7.4867,7.4903,7.4903,7.4903,7.4903,7.4903,7.4903,7.4867,7.4867,7.5417,7.6056,7.6093,7.6665,7.7289,7.7289,7.7289,7.7289,7.7289,7.7289,7.7289,7.7289,7.7289,7.7069,7.6276,7.6093,7.5579,7.3964,7.3046,7.1945,7.033,0.0,0.0,0.0,0.0,0.0,0.0,5.9645,5.8524,5.8396,0.0,0.0,0.0,0.0,0.0,0.0,0.0,0.0,6.7216,6.9661,0.0,7.4867,7.7378,7.8993,7.9816,8.226,8.3801,8.4646,8.6244,8.6978,8.6978,8.6978,8.6978,8.6978,8.6978,8.6978,8.6978,8.6978,8.6978,8.7198,8.8812,8.94,8.962,8.1619,8.2571,8.3557,8.4415,8.5221,8.6229,8.7601,8.8757,8.973,9.0519,9.1069,9.1326,9.1069,9.1033,9.0812,0.0,8.9473,8.8793,0.0,8.7472,8.6628,8.5837,8.5527,8.4389,8.226,8.1452,7.9984,7.7781,0.0,0.0,0.0,7.066,6.9853,6.9339,6.9596,7.033,7.1394,7.1908,7.2738,7.3802,7.4316,7.4515,7.4551,7.4793,7.5234,7.5726,7.5726,7.6078,7.6555,7.6555,7.6555,7.6555,7.6555,7.6335,7.6203,7.6738,7.7105,7.7289,7.7289,7.7289,7.7289,7.7289,7.7289,7.7289,7.7289,7.7289,7.7252,7.6959,7.6497,7.5799,7.4698,7.3854,7.2606,7.044,0.0,0.0,0.0,0.0,0.0,0.0,0.0,5.9953,0.0,5.9216,0.0,0.0,0.0,0.0,0.0,0.0,0.0,0.0,7.1011,0.0,7.5689,7.8185,7.98,8.0645,8.25,8.4115,8.5453,8.6518,8.6978,8.6978,8.6978,8.6978,8.6978,8.6978,8.6978,8.6978,8.6978,8.6978,8.7198,8.8812,8.94,8.962,8.3748,8.4499,8.5306,8.6114,8.6921,8.7839,8.894,8.9968,9.0702,9.1033,9.1473,9.1803,9.1803,9.1803,0.0,9.1106,9.0024,8.9179,8.8683,8.7601,8.6775,8.6261,8.5967,8.5086,8.3581,0.0,0.0,7.9947,7.817,7.6114,7.3817,7.3032,7.2371,7.1908,7.1908,7.2459,7.3399,7.3399,7.3986,7.494,7.5234,7.5344,7.538,7.5674,7.6313,7.7047,7.7047,7.7561,7.8259,7.8259,7.8259,7.8259,7.8259,7.7892,7.7451,7.7326,7.7289,7.7289,7.7289,7.7546,7.7803,7.7803,7.8023,7.8259,7.8259,7.7986,7.7803,7.7803,7.7105,7.6298,7.5506,7.4698,7.3377,7.0954,0.0,6.9082,0.0,0.0,0.0,0.0,0.0,0.0,0.0,6.0995,0.0,0.0,0.0,0.0,0.0,0.0,0.0,6.888,7.1777,0.0,7.6518,7.8699,8.0367,8.1489,8.3398,8.4976,8.6261,8.6775,8.6978,8.6978,8.6978,8.6978,8.6978,8.6978,8.6978,8.6978,8.6978,8.6978,8.7161,8.8482,8.9143,8.9583,8.4756,8.5416,0.0,0.0,8.7802,0.0,9.0372,9.0665,9.0959,9.1693,9.1803,9.1803,9.1803,9.1803,9.1803,9.1803,0.0,0.0,0.0,8.7895,8.6978,8.6978,8.6261,8.5874,8.58,8.3581,8.237,8.2186,7.9087,7.7105,7.6276,7.5491,7.5124,7.505,7.505,7.5087,7.516,7.516,7.5197,7.5307,7.6056,7.635,7.6423,7.7179,7.7986,7.8662,7.8662,7.914,7.9816,7.9816,7.9816,7.9816,7.9816,7.9816,7.9486,7.7913,7.7472,7.7472,7.7472,7.806,7.8662,7.8662,7.9265,7.9816,7.9816,7.9213,7.8662,7.8662,7.8002,7.7142,7.635,7.5491,7.4133,7.1784,7.066,6.9265,6.6916,0.0,0.0,0.0,0.0,0.0,0.0,6.3456,6.3432,0.0,0.0,0.0,0.0,0.0,6.7963,6.9807,7.2252,7.4763,7.7362,7.9103,8.0807,8.248,8.4736,8.6224,8.6978,8.6978,8.6978,8.6978,8.6978,8.6978,8.6978,8.6978,8.6978,8.6978,8.6978,8.6978,8.7088,8.7912,8.872,8.951,0.0,0.0,8.7692,8.7876,8.9087,9.0152,9.0555,9.1106,9.1583,9.1767,9.1803,9.1803,9.1803,9.1803,9.1803,9.1803,9.0317,8.94,8.94,8.7895,8.6978,8.6978,8.6811,8.6444,8.582,8.5233,8.4058,8.2186,8.0828,7.9396,7.8002,7.7818,7.7378,7.6738,7.6738,7.7105,7.7708,7.7708,7.8075,7.8678,7.8862,7.8935,7.8935,7.9155,7.9339,7.9522,7.9522,7.9633,7.9816,7.9816,7.9816,7.9816,7.9816,7.9816,7.9706,7.9323,7.9213,7.9213,7.9213,7.9376,7.9522,7.9522,7.9669,7.9816,7.9816,7.9669,7.9522,7.9522,7.8846,7.8038,7.7179,7.5858,7.4316,7.2532,7.1027,6.9449,6.7664,0.0,0.0,0.0,6.4752,6.4713,6.5193,6.5111,6.5555,0.0,0.0,0.0,0.0,0.0,7.0707,7.1419,7.441,7.6721,7.8295,8.0498,8.2753,8.4956,8.5543,8.6224,8.6978,8.6978,8.6978,8.6978,8.6978,8.6978,8.6978,8.6978,8.6978,8.6978,8.6978,8.6978,8.7088,8.7912,8.872,8.951,8.7399,8.7912,8.8426,8.916,9.0041,9.0739,9.1106,9.151,9.1803,9.1803,9.1803,9.1803,9.1803,9.1803,9.1803,9.1803,9.0665,8.9803,8.9436,8.8225,8.7399,8.7014,8.6978,8.6811,8.6371,8.5967,8.4976,8.3287,8.2113,8.1085,8.0241,7.947,7.8883,7.8442,7.8442,7.8699,7.9155,7.9155,7.9412,7.9816,7.9816,7.9816,7.9816,7.9816,8.0036,8.0351,8.0351,8.0571,8.0918,8.0918,8.0918,8.0918,8.0918,8.0918,8.0918,8.0918,8.0367,7.9816,7.9816,8.0073,8.0424,8.0807,8.0918,8.0918,8.0918,8.0608,8.0351,8.0351,7.9396,7.8479,7.7986,7.6261,7.45,7.3266,7.1394,6.9669,6.8421,6.7871,0.0,6.6751,6.6856,6.7117,6.7433,6.7636,6.8162,6.9032,0.0,0.0,7.1386,7.2871,7.3684,7.3702,7.5707,7.7728,7.969,8.2076,8.4132,8.58,8.6151,8.6591,8.6978,8.6978,8.6978,8.6978,8.6978,8.6978,8.6978,8.6978,8.6978,8.6978,8.6978,8.6978,8.7051,8.7509,8.8337,8.9311,8.8206,8.85,8.8977,9.0372,9.0702,9.1033,9.1693,9.1803,9.1803,9.1803,9.1803,9.1803,9.1803,9.1803,9.1803,9.1803,9.1179,9.0391,8.9473,8.8647,8.7839,8.7014,8.6978,8.6978,8.6978,8.6224,8.5453,8.4792,8.3287,8.2553,8.2517,8.1175,8.0477,8.033,8.033,8.0293,8.0147,8.0147,8.0147,8.0147,8.0147,8.0147,8.0147,8.0147,8.0571,8.1195,8.1195,8.1636,8.2186,8.2186,8.2186,8.2186,8.2186,8.2186,8.2186,8.2186,8.1248,8.0147,8.0147,8.0645,8.1342,8.2039,8.2186,8.2186,8.2186,8.1672,8.1195,8.1195,7.9984,7.8919,7.8809,7.6864,7.494,7.4008,7.1916,7.0141,6.9306,0.0,6.8994,6.8927,6.942,6.9784,6.9927,7.0428,7.0786,7.0931,7.2255,0.0,0.0,7.5297,7.6442,7.6368,7.7004,7.8715,8.1509,8.3691,8.5196,8.5967,8.6664,8.6978,8.6978,8.6978,8.6978,8.6978,8.6978,8.6978,8.6978,8.6978,8.6978,8.6978,8.6978,8.696,8.6943,8.6943,8.7864,8.9057,8.9069,8.9767,9.0298,9.0555,9.1179,9.1657,9.1767,9.1803,9.1803,9.1803,9.1803,9.1803,9.1803,9.1803,9.1803,9.1803,9.1693,9.0996,8.951,8.8647,8.7839,8.7014,8.6978,8.6978,8.6978,8.6224,8.5764,8.56,8.4682,8.4242,8.4205,8.3985,8.3508,8.283,8.283,8.248,8.1819,8.1819,8.1819,8.1819,8.1819,8.1819,8.1819,8.1819,8.1893,8.2003,8.2003,8.2076,8.2186,8.2186,8.2186,8.2186,8.2186,8.2186,8.2186,8.2186,8.2003,8.1819,8.1819,8.1929,8.2039,8.215,8.2186,8.2186,8.2186,8.2113,8.2003,8.2003,8.1269,8.0424,7.9743,7.8148,7.6399,7.4811,7.3076,7.1641,0.0,0.0,6.9719,7.0383,7.0447,7.0975,7.231,7.2386,7.2617,7.3289,7.4194,7.5027,7.5696,7.6746,7.7971,7.9446,7.9708,8.12,8.4022,8.5086,8.6004,8.6811,8.6941,8.6978,8.6978,8.6978,8.6978,8.6978,8.6978,8.6978,8.6978,8.6978,8.6978,8.6978,8.6978,8.6891,8.6768,8.6768,8.7631,8.8836,8.9803,9.0354,9.0739,9.1179,9.1546,9.1803,9.1803,9.1803,9.1803,9.1803,9.1803,9.1803,9.1803,9.1803,9.1803,9.1803,9.1803,9.1289,9.0097,8.929,8.85,8.7692,8.7234,8.6978,8.6978,8.6628,8.6444,8.6444,8.5637,8.5233,8.5233,8.4792,8.4389,8.4042,8.4042,8.3838,8.3471,8.3471,8.3471,8.3471,8.3471,8.3471,8.3471,8.3471,8.3471,8.3471,8.3471,8.3471,8.3471,8.3471,8.3471,8.3471,8.3471,8.3471,8.3471,8.3471,8.2884,8.2296,8.2737,8.2847,8.2957,8.3398,8.3471,8.3471,8.3471,8.3471,8.3361,8.2957,8.2223,8.1415,8.0571,7.8657,7.693,7.612,7.4199,0.0,0.0,7.1775,7.1636,7.1945,7.232,7.2948,7.4034,7.4425,7.4971,7.5768,7.6601,7.7217,7.7579,7.8376,7.9405,8.0793,8.1403,8.2705,8.4905,8.5307,8.5893,8.668,8.668,8.668,8.668,8.668,8.668,8.668,8.668,8.668,8.668,8.668,8.668,8.668,8.668,8.6626,8.6518,8.6518,8.7414,8.8631,9.0592,9.0886,9.1069,9.1693,9.1803,9.1803,9.1803,9.1803,9.1803,9.1803,9.1803,9.1803,9.1803,9.1803,9.1803,9.1803,9.1803,9.1546,9.0922,9.0134,8.9253,8.8243,8.7435,8.6978,8.6978,8.6978,8.6978,8.6978,8.6371,8.6077,8.6077,8.5453,8.5049,8.4866,8.4866,8.4792,8.4609,8.4609,8.4609,8.4609,8.4609,8.4609,8.4609,8.4609,8.4609,8.4609,8.4609,8.4609,8.4609,8.4609,8.4609,8.4609,8.4609,8.4609,8.4609,8.4609,8.3728,8.2884,8.3508,8.3675,8.3821,8.4462,8.4609,8.4609,8.4609,8.4609,8.4425,8.3821,8.2997,8.2157,8.1351,7.9389,7.7687,7.7091,0.0,0.0,0.0,7.351,7.366,7.3752,7.4478,7.5228,7.5877,7.6492,7.7108,7.7724,7.8702,7.9245,7.9245,8.0187,8.1163,8.2122,8.2915,8.3949,8.5189,8.5408,8.5809,8.6411,8.6411,8.6411,8.6411,8.6411,8.6411,8.6411,8.6411,8.6411,8.6411,8.6411,8.6411,8.6411,8.6411,8.6356,8.632,8.632,8.7211,8.8439,9.1546,9.1693,9.173,9.1803,9.1803,9.1803,9.1803,9.1803,9.1803,9.1803,9.1803,9.1803,9.1803,9.1803,9.1803,9.1803,9.1803,9.1767,9.173,9.0959,8.9821,8.828,8.7435,8.6978,8.6978,8.6978,8.6978,8.6978,8.6941,8.6904,8.6904,8.6831,8.6444,8.571,8.571,8.5306,8.4609,8.4609,8.4609,8.4609,8.4609,8.4609,8.4609,8.4609,8.4609,8.4609,8.4609,8.4609,8.4609,8.4609,8.4609,8.4609,8.4609,8.4609,8.4609,8.4609,8.4535,8.4425,8.4499,8.4499,8.4535,8.4609,8.4609,8.4609,8.4609,8.4609,8.4572,8.4535,8.3741,8.278,8.1975,8.0911,7.9377,7.7027,0.0,0.0,7.4079,7.4481,7.5241,7.5983,7.678,7.756,7.8376,7.8484,7.8557,7.8593,8.0042,8.0929,8.0929,8.2396,8.361,8.4425,8.4827,8.508,8.5189,8.5955,8.6338,8.6411,8.6411,8.6411,8.6411,8.6411,8.6411,8.6411,8.6411,8.6411,8.6411,8.6411,8.6411,8.6411,8.6411,8.6283,8.6118,8.6118,8.7005,8.8227,9.1657,9.1803,9.1803,9.1803,9.1803,9.1803,9.1803,9.1803,9.1803,9.1803,9.1803,9.1803,9.1803,9.1803,9.1803,9.1803,9.1803,9.1803,9.1803,9.1069,8.9895,8.828,8.7435,8.6978,8.6978,8.6978,8.6978,8.6978,8.6978,8.6978,8.6978,8.6978,8.6848,8.6554,8.6554,8.6371,8.6114,8.6114,8.6114,8.6114,8.6114,8.6114,8.6114,8.6114,8.6114,8.6114,8.6114,8.6114,8.6114,8.6114,8.6114,8.6114,8.6114,8.6114,8.6114,8.6114,8.6114,8.6043,8.594,8.5625,8.5453,8.5967,8.6114,8.6114,8.6114,8.5991,8.5758,8.5282,8.4761,8.4164,8.3343,8.2001,8.0698,7.972,0.0,7.7647,7.6963,7.7144,7.747,7.776,7.805,7.8722,7.99,8.0009,8.0352,8.118,8.1793,8.2154,8.2154,8.3218,8.3939,8.4263,8.4885,8.5328,8.5626,8.5953,8.6098,8.6098,8.6098,8.6098,8.6098,8.6098,8.6098,8.6098,8.6098,8.6098,8.6098,8.6098,8.6098,8.6098,8.6098,8.6061,8.5986,8.5986,8.6832,8.8031,9.1693,9.1803,9.1803,9.1803,9.1803,9.1803,9.1803,9.1803,9.1803,9.1803,9.1803,9.1803,9.1803,9.1803,9.1803,9.1803,9.1803,9.1803,9.1803,9.1069,9.0005,8.8647,8.7802,8.7399,8.7399,8.7124,8.6978,8.6978,8.6978,8.6978,8.6978,8.6978,8.6978,8.6978,8.6978,8.6978,8.6978,8.6978,8.6978,8.6978,8.6978,8.6978,8.6978,8.6978,8.6978,8.6978,8.6978,8.6943,8.6908,8.6908,8.6856,8.6803,8.6803,8.6803,8.6803,8.6803,8.6803,8.6786,8.6625,8.6313,8.6125,8.6657,8.6803,8.6803,8.6803,8.6715,8.6444,8.5895,8.5444,8.499,8.4426,8.3082,8.1995,8.1704,8.042,7.939,7.91,7.9229,7.9375,7.9375,7.9738,8.037,8.1324,8.1414,8.1826,8.2737,8.3042,8.3293,8.3545,8.4084,8.4372,8.4372,8.4911,8.5356,8.5682,8.574,8.5816,8.5909,8.5909,8.5871,8.5778,8.5778,8.574,8.5682,8.5759,8.5778,8.5778,8.589,8.5909,8.5909,8.5909,8.5835,8.5778,8.5778,8.6619,8.7813,9.1803,9.1803,9.1803,9.1803,9.1803,9.1803,9.1803,9.1803,9.1803,9.1803,9.1803,9.1803,9.1803,9.1803,9.1803,9.1803,9.1803,9.1803,9.1803,9.1069,9.0244,8.9436,8.8647,8.8206,8.8206,8.7435,8.7014,8.7014,8.7014,8.7014,8.6978,8.6978,8.6978,8.6978,8.6978,8.6978,8.6978,8.6978,8.7014,8.7014,8.7014,8.7014,8.7014,8.7014,8.7014,8.7014,8.7014,8.6873,8.6715,8.6715,8.6591,8.6411,8.6411,8.6411,8.6411,8.6411,8.6411,8.6411,8.6411,8.6411,8.6411,8.6411,8.6411,8.6411,8.6411,8.6411,8.6411,8.6411,8.5646,8.5009,8.5009,8.4191,8.3247,8.245,8.1635,8.0821,8.0024,8.0442,8.0821,8.0821,8.1988,8.279,8.2826,8.2826,8.2826,8.2826,8.3545,8.4336,8.5163,8.5199,8.5199,8.5199,8.5199,8.5199,8.5199,8.5378,8.5627,8.5909,8.5909,8.5759,8.5495,8.5495,8.5378,8.5218,8.5398,8.5495,8.5514,8.5797,8.5909,8.5909,8.5909,8.574,8.5495,8.5495,8.6404,8.7592,9.1803,9.1803,9.1803,9.1803,9.1803,9.1803,9.1803,9.1803,9.1803,9.1803,9.1803,9.1803,9.1803,9.1803,9.1803,9.1803,9.1803,9.1803,9.1803,9.1583,9.1326,9.1106,8.9784,8.9033,8.9033,8.8812,8.8409,8.7839,8.7839,8.7545,8.6978,8.6978,8.6978,8.6978,8.6978,8.6978,8.6978,8.6856,8.6803,8.6786,8.6644,8.6591,8.6591,8.6591,8.6591,8.6591,8.6591,8.6555,8.6465,8.6465,8.6465,8.6411,8.6411,8.6411,8.6411,8.6411,8.6411,8.6356,8.6229,8.6192,8.6229,8.6356,8.6411,8.6411,8.6411,8.6283,8.6192,8.6192,8.588,8.5641,8.5641,8.4896,8.4206,8.3748,8.3079,8.241,8.1991,8.2096,8.2202,8.2202,8.2577,8.2948,8.3386,8.3438,8.3534,8.384,8.389,8.402,8.4269,8.4269,8.4269,8.4269,8.445,8.4651,8.4794,8.5119,8.5336,8.5395,8.5395,8.5356,8.5297,8.5297,8.5277,8.5218,8.5277,8.5297,8.5317,8.5375,8.5395,8.5395,8.5395,8.5356,8.5297,8.5297,8.6165,8.7382,9.1803,9.1803,9.1803,9.1803,9.1803,9.1803,9.1803,9.1803,9.1803,9.1803,9.1803,9.1803,9.1803,9.1803,9.1803,9.1803,9.1803,9.1803,9.1803,9.1803,9.1803,9.1803,9.0886,9.0207,8.9877,8.9546,8.9143,8.8683,8.8683,8.8426,8.7932,8.7532,8.735,8.735,8.695,8.6768,8.675,8.6644,8.6572,8.6554,8.6465,8.6411,8.6411,8.6411,8.6411,8.6411,8.6411,8.6338,8.6265,8.6265,8.6265,8.6192,8.6192,8.6192,8.6192,8.6192,8.6192,8.6173,8.6062,8.6242,8.646,8.6515,8.659,8.6664,8.6664,8.6826,8.6894,8.6818,8.674,8.6552,8.6186,8.5697,8.5225,8.473,8.4026,8.3483,8.3313,8.3235,8.3138,8.306,8.3268,8.3486,8.3748,8.3799,8.3875,8.4137,8.3989,8.3904,8.3904,8.3904,8.3904,8.3904,8.4053,8.4215,8.4305,8.4574,8.4879,8.5199,8.5199,8.5159,8.508,8.508,8.504,8.496,8.504,8.508,8.51,8.5179,8.5199,8.5199,8.5199,8.5159,8.508,8.508,8.5688,8.66,9.1803,9.1803,9.1803,9.1803,9.1803,9.1803,9.1803,9.1803,9.1803,9.1803,9.1803,9.1803,9.1803,9.1803,9.1803,9.1803,9.1803,9.1803,9.1803,9.1803,9.1803,9.1803,9.1803,9.1473,9.0703,8.9987,8.9583,8.9474,8.9474,8.9437,8.9346,8.8398,8.7923,8.7832,8.6939,8.6447,8.6411,8.6356,8.6356,8.6356,8.6375,8.6375,8.6375,8.6375,8.6375,8.6356,8.6356,8.6192,8.6044,8.6026,8.5931,8.5852,8.5852,8.5852,8.5852,8.5852,8.5852,8.5852,8.5925,8.6431,8.6916,8.683,8.6964,8.7172,8.7155,8.7662,8.809,8.7933,8.7893,8.7581,8.6677,8.6441,8.6133,8.5395,8.4584,8.4062,8.4042,8.3865,8.3665,8.3478,8.3934,8.4173,8.3925,8.3904,8.3883,8.3883,8.3861,8.3861,8.3861,8.3861,8.3861,8.3861,8.3861,8.3883,8.3883,8.3904,8.429,8.51,8.51,8.5,8.4819,8.4819,8.4717,8.4589,8.4758,8.4859,8.4879,8.508,8.5159,8.5139,8.5139,8.502,8.4839,8.4819,8.5074,8.5501,9.1803,9.1803,9.1803,9.1803,9.1803,9.1803,9.1803,9.1803,9.1803,9.1803,9.1803,9.1803,9.1803,9.1803,9.1803,9.1803,9.1803,9.1803,9.1803,9.1803,9.1803,9.1803,9.1803,9.162,9.1326,9.129,9.0887,9.01,9.01,8.9697,8.891,8.8691,8.8271,8.7669,8.745,8.6994,8.6374,8.6229,8.6174,8.6155,8.6061,8.6005,8.6005,8.6005,8.6005,8.5986,8.5744,8.5668,8.561,8.5437,8.5375,8.5356,8.5356,8.5356,8.5356,8.5356,8.5356,8.55,8.6128,8.6417,8.6669,8.7257,8.7909,8.8273,8.7625,8.7625,8.7713,8.7672,8.7652,8.7616,8.7376,8.6836,8.6309,8.5968,8.5105,8.4386,8.4278,8.4014,8.3832,8.3805,8.3904,8.3968,8.3925,8.3768,8.366,8.366,8.345,8.3363,8.3363,8.3363,8.3363,8.3363,8.3573,8.366,8.366,8.3819,8.3975,8.4165,8.4165,8.4144,8.4137,8.4137,8.42,8.4361,8.4403,8.4527,8.4671,8.4712,8.4733,8.4733,8.4569,8.4465,8.4403,8.42,8.4571,8.535,9.1803,9.1803,9.1803,9.1803,9.1803,9.1803,9.1803,9.1803,9.1803,9.1803,9.1803,9.1803,9.1803,9.1803,9.1803,9.1803,9.1803,9.1803,9.1803,9.1803,9.1767,9.1675,9.1675,9.1583,9.1377,9.1471,9.1251,9.0737,9.0737,9.0462,8.993,8.9471,8.9014,8.8577,8.77,8.7081,8.6626,8.604,8.5819,8.5801,8.5627,8.5567,8.5567,8.5567,8.5567,8.5567,8.5414,8.5339,8.532,8.5238,8.5199,8.5199,8.5199,8.5199,8.5199,8.5199,8.545,8.5846,8.6297,8.698,8.7623,8.7916,8.8494,8.8888,8.8306,8.8455,8.8701,8.8598,8.8494,8.8246,8.7783,8.7228,8.6587,8.5769,8.518,8.4683,8.4166,8.3989,8.3861,8.3754,8.3768,8.3689,8.3581,8.345,8.342,8.342,8.3275,8.3208,8.3208,8.3208,8.3208,8.3208,8.3354,8.342,8.342,8.3516,8.3581,8.3581,8.3797,8.3904,8.3904,8.3904,8.3968,8.4131,8.4131,8.4158,8.4263,8.4263,8.4263,8.4242,8.4137,8.4131,8.4074,8.3947,8.4335,8.5075,9.2024,9.2134,9.2207,9.2207,9.2207,9.2207,9.2207,9.2207,9.217,9.2024,9.2024,9.2024,9.2024,9.2134,9.217,9.2024,9.2024,9.1932,9.1767,9.1749,9.1675,9.1471,9.1452,9.1358,9.1168,9.1149,9.1149,9.1149,9.1149,9.1149,9.1055,9.0207,8.9746,8.9509,8.799,8.7242,8.7042,8.6056,8.5653,8.5653,8.5313,8.5179,8.5159,8.5159,8.5139,8.51,8.5024,8.502,8.5,8.5,8.5,8.5,8.5,8.5,8.5,8.5123,8.5681,8.6255,8.6486,8.7526,8.8545,8.8442,8.8807,8.9106,8.8825,8.9268,8.9706,8.9479,8.9306,8.8954,8.8095,8.7648,8.6962,8.571,8.5241,8.4795,8.4144,8.3889,8.3711,8.3551,8.3529,8.3442,8.3231,8.3208,8.3208,8.3208,8.3164,8.3142,8.3142,8.3097,8.3075,8.3075,8.312,8.3142,8.3142,8.3186,8.3208,8.3208,8.3603,8.3797,8.3797,8.3797,8.3819,8.384,8.384,8.3883,8.3904,8.3904,8.3904,8.3904,8.3861,8.384,8.384,8.3797,8.4056,8.4529,9.2941,9.3492,9.3969,9.3969,9.3969,9.3969,9.3969,9.3969,9.3712,9.3015,9.2941,9.2941,9.2941,9.3529,9.3675,9.2978,9.2941,9.2537,9.1601,9.1546,9.1471,9.1263,9.1244,9.1149,9.0936,9.0936,9.0936,9.0936,9.0936,9.0839,9.0661,9.0369,8.9834,8.9148,8.8746,8.8176,8.7457,8.6625,8.6265,8.6229,8.5506,8.51,8.494,8.494,8.4803,8.4564,8.4394,8.4207,8.4095,8.4095,8.4095,8.4095,8.4095,8.4095,8.4202,8.489,8.5174,8.5564,8.6912,8.7409,8.7763,8.8415,8.8641,8.869,8.865,8.8708,8.8757,8.8734,8.8712,8.8632,8.8538,8.7892,8.7316,8.7104,8.5782,8.4732,8.4591,8.3851,8.3297,8.3253,8.3253,8.3231,8.3208,8.3208,8.3208,8.3208,8.3043,8.2954,8.2954,8.2716,8.2602,8.2602,8.2841,8.2954,8.2954,8.3097,8.3208,8.3208,8.3275,8.3297,8.3297,8.3297,8.3407,8.3638,8.3638,8.3746,8.3904,8.3904,8.3904,8.3883,8.3725,8.3638,8.3616,8.3363,8.3345,8.3534,9.3749,9.4042,9.4299,9.4299,9.4299,9.4299,9.4299,9.4299,9.4153,9.3822,9.3749,9.3749,9.3749,9.4079,9.4115,9.3599,9.3544,9.3303,9.2727,9.2671,9.2594,9.238,9.1943,9.1627,9.141,9.0855,9.0541,9.0541,9.0541,9.0537,9.0437,9.0213,8.993,8.957,8.9035,8.8516,8.7997,8.7049,8.6603,8.6406,8.5496,8.5107,8.4952,8.4489,8.4186,8.3918,8.3719,8.3568,8.3538,8.3633,8.3697,8.3697,8.3847,8.4187,8.4648,8.5002,8.571,8.6537,8.721,8.7705,8.8152,8.8506,8.8464,8.8373,8.8373,8.8282,8.8259,8.8567,8.8464,8.8373,8.8373,8.7977,8.7533,8.7075,8.5963,8.4936,8.438,8.3566,8.2963,8.2829,8.2941,8.3008,8.3008,8.312,8.3142,8.3031,8.2954,8.2841,8.267,8.2556,8.251,8.251,8.2602,8.267,8.267,8.2896,8.3008,8.3008,8.3142,8.3208,8.3208,8.3208,8.3253,8.3398,8.3398,8.3407,8.3516,8.3516,8.3516,8.3516,8.3407,8.3398,8.3376,8.3231,8.3208,8.3314]}]]